     2.11           OBSERVATION DATA    G (GPS)             RINEX VERSION / TYPE
teqc 2010Oct21 OPUS Account 20111025 19:14:22UTC            PGM / RUN BY / DATE
L 1521                                                      MARKER NAME
1145                                                        MARKER NUMBER
CSMIDDLETON NGS                                             OBSERVER / AGENCY
0220390627 TRIMBLE R7 2.32                                  REC # / TYPE / VERS
60124849 TRM41249.00 NONE                                   ANT # / TYPE
  -737537.4415 -5467180.2446  3190575.3946                  APPROX POSITION XYZ
        2.0010        0.0000        0.0000                  ANTENNA: DELTA H/E/N
     1     1                                                WAVELENGTH FACT L1/2
     5    L1    L2    C1    P1    P2                        # / TYPES OF OBSERV
    15                                                      LEAP SECONDS
  2011     7    27     0     0   30.0000000     GPS         TIME OF FIRST OBS
                                                            END OF HEADER
 11  7 27  0  0 30.0000000  0  8G28G10G17G09G04G20G27G02
 -53374585.96558 -41581112.43055  21859749.4304                   21859747.0704
  -7213447.74256  -5612181.69153  23834859.1334                   23834859.2774
 -45389699.12958 -35328387.11756  21437454.5944                   21437452.6294
 -17517585.02757 -13619401.89155  22335752.4924                   22335751.5084
 -39582703.13358 -30809958.59056  20060510.1564                   20060507.9924
 -11922446.47356  -9088883.57853  24267069.6094                   24267067.7734
 -26157940.23457 -20353068.52355  22549823.1644                   22549821.8444
 -18019184.37957 -14007504.53955  22587876.8674                   22587874.5554
 11  7 27  0  1  0.0000000  0  8G28G10G17G09G04G20G27G02
 -53371975.22748 -41579078.11345  21860246.3914                   21860243.9804
  -7353024.56246  -5720942.71143  23808298.3984                   23808298.6094
 -45404699.22348 -35340075.50846  21434600.0704                   21434597.7974
 -17595366.85247 -13680011.09045  22320951.2034                   22320949.8244
 -39647775.44148 -30860664.27046  20048127.4384                   20048125.7154
 -11937433.50846  -9100561.80943  24264218.7584                   24264216.5234
 -26217415.94947 -20399413.24245  22538504.9614                   22538503.9654
 -18146826.12148 -14106965.57045  22563587.5004                   22563584.3324
 11  7 27  0  1 30.0000000  0  8G28G10G17G09G04G20G27G02
 -53368935.14848 -41576709.25445  21860824.7424                   21860822.4884
  -7492525.27746  -5829644.44943  23781751.6804                   23781752.6644
 -45419541.04748 -35351640.57046  21431776.0164                   21431773.6024
 -17672460.80547 -13740084.28945  22306280.8204                   22306279.2234
 -39712214.92648 -30910876.83246  20035864.4924                   20035862.6764
 -11951861.98446  -9111804.77343  24261471.9534                   24261470.5434
 -26276340.93747 -20445328.80945  22527292.5474                   22527291.4064
 -18274131.08247 -14206164.16045  22539361.9614                   22539359.3674
 11  7 27  0  2  0.0000000  0  8G28G10G17G09G04G20G27G02
 -53365486.94948 -41574022.37545  21861481.3284                   21861478.8794
  -7631968.38746  -5938301.32443  23755216.7974                   23755217.2154
 -45434246.64548 -35363099.46546  21428977.6804                   21428975.0434
 -17748887.44547 -13799637.51245  22291737.4064                   22291735.4574
 -39776043.00048 -30960612.98446  20023718.5704                   20023716.7384
 -11965753.53546  -9122629.34043  24258829.7814                   24258826.8404
 -26334736.44947 -20490831.79345  22516180.4144                   22516178.8674
 -18401119.63347 -14305116.20345  22515196.8594                   22515193.3484
 11  7 27  0  2 30.0000000  0  8G28G10G17G09G04G20G27G02
 -53361620.41448 -41571009.52345  21862217.1644                   21862214.8054
  -7771340.82846  -6046903.09443  23728695.2194                   23728695.4024
 -45448805.67248 -35374444.16046  21426207.4384                   21426205.0514
 -17824635.74647 -13858662.16045  22277322.5944                   22277320.8014
 -39839249.69148 -31009864.93446  20011691.1644                   20011688.8284
 -11979098.68046  -9133028.16843  24256289.5164                   24256287.6604
 -26392592.30947 -20535914.28545  22505170.4774                   22505169.0634
 -18527780.41048 -14403812.84845  22491094.2504                   22491090.7504
 11  7 27  0  3  0.0000000  0  8G28G10G17G09G04G20G27G02
 -53357353.89848 -41567684.99645  21863028.9064                   21863026.1804
  -7910658.39146  -6155462.11343  23702183.7114                   23702184.0044
 -45463238.00448 -35385690.12946  21423460.7584                   21423458.1524
 -17899723.71147 -13917172.26245  22263034.0474                   22263032.3634
 -39901853.78948 -31058647.32446  19999777.7584                   19999775.9494
 -11991916.67646  -9143016.23443  24253849.8444                   24253848.6564
 -26449927.19948 -20580590.81645  22494259.7584                   22494258.9414
 -18654130.69548 -14502267.55145  22467050.7584                   22467046.7704
 11  7 27  0  3 30.0000000  0  8G28G10G17G09G04G20G27G02
 -53352671.94948 -41564036.75045  21863919.6024                   21863917.5634
  -8049902.18446  -6263963.66843  23675686.3444                   23675686.5204
 -45477528.24648 -35396825.39146  21420741.6174                   21420738.7894
 -17974135.04747 -13975155.13345  22248873.7894                   22248872.4574
 -39963840.03948 -31106948.28546  19987981.8444                   19987979.8524
 -12004192.43746  -9152581.78943  24251513.5554                   24251512.3134
 -26506725.54348 -20624849.27345  22483451.5704                   22483450.3094
 -18780153.43048 -14600467.02745  22443069.1484                   22443065.1254
 11  7 27  0  4  0.0000000  0  8G28G10G17G09G04G20G27G02
 -53347564.50448 -41560056.96145  21864891.8984                   21864889.6334
  -8189059.14546  -6372397.52743  23649205.0084                   23649206.4144
 -45491666.43048 -35407842.15646  21418051.0474                   21418048.7704
 -18047858.98047 -14032602.34045  22234844.3284                   22234843.0864
 -40025198.39148 -31154759.96946  19976305.8284                   19976303.9104
 -12015916.40246  -9161717.33643  24249283.0084                   24249281.4494
 -26562977.11747 -20668681.67645  22472747.0634                   22472746.2274
 -18905836.90248 -14698402.12945  22419152.3134                   22419148.5904
 11  7 27  0  4 30.0000000  0  8G28G10G17G09G04G20G27G02
 -53342025.23448 -41555740.67645  21865945.7114                   21865943.5864
  -8328119.94946  -6480756.50443  23622743.1334                   23622743.3244
 -45505647.22748 -35418736.28546  21415390.8364                   21415388.2894
 -18120888.60547 -14089508.53145  22220947.5474                   22220946.3444
 -40085923.12948 -31202077.94146  19964750.3284                   19964748.4414
 -12027083.21946  -9170418.76243  24247158.5784                   24247156.3524
 -26618675.87548 -20712083.30945  22462148.1644                   22462147.3954
 -19031173.80948 -14796067.18045  22395301.3594                   22395298.2424
 11  7 27  0  5  0.0000000  0  8G28G10G17G09G04G20G27G02
 -53336066.44948 -41551097.50045  21867079.8054                   21867077.4924
  -8467093.79746  -6589047.69143  23596296.8834                   23596297.2814
 -45519483.20748 -35429517.56646  21412757.8204                   21412755.4184
 -18193235.51647 -14145882.73445  22207180.4454                   22207179.6334
 -40146026.42648 -31248911.66446  19953313.1644                   19953311.4694
 -12037705.46546  -9178695.83643  24245136.7974                   24245135.0704
 -26673833.78947 -20755063.49645  22451652.0944                   22451650.8874
 -19156174.75048 -14893470.44545  22371514.2034                   22371511.1254
 11  7 27  0  5 30.0000000  0  8G28G10G17G09G04G20G27G02
 -53329683.46948 -41546123.77345  21868294.5864                   21868292.3014
  -8605972.96946  -6697265.12143  23569868.7894                   23569870.0784
 -45533169.85548 -35440182.48846  21410153.2974                   21410151.1644
 -18264894.33247 -14201720.76645  22193544.1334                   22193542.9184
 -40205504.21948 -31295257.98446  19941994.9454                   19941992.6954
 -12047779.32446  -9186545.59443  24243219.8444                   24243217.8914
 -26728446.65247 -20797618.97745  22441259.1644                   22441258.2304
 -19280834.30548 -14990607.68745  22347792.1414                   22347789.3754
 11  7 27  0  6  0.0000000  0  8G28G10G17G09G04G20G27G02
 -53322872.48848 -41540816.54345  21869590.3524                   21869588.4574
  -8744750.43746  -6805403.28943  23543461.0234                   23543461.4884
 -45546704.08648 -35450728.65246  21407578.0164                   21407575.5784
 -18335860.63747 -14257019.18045  22180040.0314                   22180038.7544
 -40264352.67248 -31341113.91846  19930796.5314                   19930794.6254
 -12057301.66046  -9193965.61743  24241408.1644                   24241406.1724
 -26782510.58247 -20839746.72745  22430971.1564                   22430970.4534
 -19405146.98048 -15087474.64545  22324136.1174                   22324133.6094
 11  7 27  0  6 30.0000000  0  8G28G10G17G09G04G20G27G02
 -53315624.05548 -41535168.44945  21870970.0164                   21870968.1994
  -8883413.77747  -6913452.55944  23517073.6954                   23517074.5164
 -45560076.87548 -35461149.01646  21405033.1724                   21405030.7664
 -18406124.83647 -14311770.48845  22166668.6094                   22166667.4224
 -40322563.33648 -31386472.87146  19919719.1334                   19919717.3634
 -12066263.99646  -9200949.26243  24239702.8914                   24239700.2504
 -26836016.42647 -20881439.60245  22420789.3754                   22420788.6174
 -19529102.09448 -15184062.97745  22300548.1484                   22300545.4384
 11  7 27  0  7  0.0000000  0  8G28G10G17G09G04G20G27G02
 -53307946.06248 -41529185.62545  21872431.1804                   21872428.6764
  -9021967.70346  -7021416.55444  23490708.0554                   23490708.4844
 -45573296.28148 -35471449.85946  21402517.4454                   21402514.8524
 -18475694.13347 -14365980.32845  22153430.3674                   22153428.9654
 -40380143.88348 -31431340.81646  19908761.8674                   19908760.0634
 -12074674.45746  -9207502.85943  24238102.4384                   24238100.5274
 -26888972.13347 -20922703.79345  22410712.7274                   22410711.0514
 -19652706.57448 -15280378.10245  22277026.9304                   22277024.2504
 11  7 27  0  7 30.0000000  0  8G28G10G17G09G04G20G27G02
 -53299838.52748 -41522868.09845  21873974.1954                   21873971.5434
  -9160408.75847  -7129292.60244  23464363.7344                   23464363.4614
 -45586362.39148 -35481631.25846  21400031.3674                   21400028.8404
 -18544567.71147 -14419648.05545  22140324.1564                   22140322.5354
 -40437094.43748 -31475717.85946  19897924.5944                   19897923.0084
 -12082533.50846  -9213626.84443  24236606.2894                   24236604.9064
 -26941377.57847 -20963539.22345  22400740.1954                   22400738.6174
 -19775958.50448 -15376418.50845  22253573.2274                   22253570.4064
 11  7 27  0  8  0.0000000  0  8G28G10G17G09G04G20G27G02
 -53291305.28948 -41516218.85245  21875598.0314                   21875595.4454
  -9298738.00847  -7237081.53944  23438040.4694                   23438040.1994
 -45599279.64148 -35491696.64846  21397573.1414                   21397570.8714
 -18612748.91847 -14472776.25845  22127349.8444                   22127348.4304
 -40493419.63748 -31519607.62146  19887206.4534                   19887204.5434
 -12089846.23046  -9219325.08643  24235215.2664                   24235213.3484
 -26993236.98847 -21003949.16845  22390871.7664                   22390870.4804
 -19898860.64548 -15472186.34445  22230185.8364                   22230182.6764
 11  7 27  0  8 30.0000000  0  8G28G10G17G09G04G20G27G02
 -53282348.40248 -41509239.49645  21877302.4534                   21877300.2154
  -9436954.32847  -7344782.49243  23411738.7974                   23411738.0554
 -45612050.56648 -35501648.02346  21395142.6954                   21395140.3984
 -18680239.34847 -14525366.19945  22114506.7894                   22114505.6884
 -40549121.85248 -31563011.93446  19876606.6484                   19876604.9924
 -12096615.36346  -9224599.74643  24233926.4454                   24233925.2774
 -27044552.54347 -21043935.32045  22381106.9224                   22381105.4734
 -20021413.71948 -15567682.18745  22206864.4694                   22206861.7154
 11  7 27  0  9  0.0000000  0  8G28G10G17G09G04G20G27G02
 -53272965.54748 -41501928.21545  21879087.9844                   21879085.2304
  -9575051.78146  -7452390.82044  23385458.7974                   23385459.3244
 -45624672.60248 -35511483.38746  21392740.9064                   21392738.5354
 -18747035.88347 -14577415.43745  22101795.3754                   22101794.6564
 -40604198.98448 -31605929.17246  19866125.6804                   19866123.8754
 -12102838.57446  -9229449.03943  24232742.3284                   24232740.6564
 -27095321.65247 -21083495.67245  22371445.0314                   22371444.5744
 -20143613.71548 -15662902.89545  22183610.6484                   22183607.2274
 11  7 27  0  9 30.0000000  0  8G28G10G17G09G04G20G27G02
 -53263165.20748 -41494291.61345  21880952.6954                   21880950.1914
  -9713035.56247  -7559910.56644  23359201.8364                   23359202.0204
 -45637154.73448 -35521209.74646  21390365.5704                   21390363.3524
 -18813146.73847 -14628930.36745  22089215.3054                   22089213.9884
 -40658659.64548 -31648366.04346  19855762.2734                   19855760.4144
 -12108525.37146  -9233880.33243  24231660.4304                   24231658.6524
 -27145553.04747 -21122637.03945  22361886.8134                   22361885.6414
 -20265467.89848 -15757854.15645  22160422.4304                   22160418.8484
 11  7 27  0 10  0.0000000  0  8G28G10G17G09G04G20G27G02
 -53252949.03147 -41486330.99645  21882896.5314                   21882894.6174
  -9850904.32447  -7667340.67244  23332966.7194                   23332966.5474
 -45649499.15248 -35530828.78546  21388016.5554                   21388014.3954
 -18878573.44547 -14679912.21545  22076765.0314                   22076764.0044
 -40712506.19148 -31690324.38346  19845515.7274                   19845513.7464
 -12113678.48146  -9237895.73743  24230679.8364                   24230678.4964
 -27195249.10947 -21161361.25845  22352429.6334                   22352428.8204
 -20386976.97348 -15852536.49245  22137299.8834                   22137296.5594
 11  7 27  0 10 30.0000000  0  8G28G10G17G09G04G20G27G02
 -53242315.42247 -41478045.10545  21884920.5394                   21884918.1524
  -9988653.26246  -7774677.43043  23306753.5704                   23306753.1724
 -45661703.68048 -35540338.82046  21385694.4774                   21385691.6844
 -18943313.46547 -14730358.98445  22064445.2274                   22064444.0744
 -40765737.30948 -31731803.17246  19835385.9614                   19835383.9774
 -12118296.72746  -9241494.41843  24229800.8674                   24229799.8054
 -27244407.89848 -21199666.82045  22343075.1334                   22343073.8634
 -20508137.57848 -15946947.30145  22114243.8914                   22114240.4184
 11  7 27  0 11  0.0000000  0  8G28G10G17G09G04G20G27G02
 -53231261.85247 -41469431.96945  21887024.2584                   21887021.4454
 -10126276.29746  -7881916.07044  23280564.2114                   23280564.0234
 -45673766.29348 -35549738.27746  21383398.8984                   21383396.3524
 -19007363.95347 -14780268.44145  22052257.1024                   22052255.7504
 -40818350.70748 -31772800.62146  19825373.9534                   19825371.9414
 -12122378.29746  -9244674.87543  24229023.9694                   24229022.7464
 -27293026.85947 -21237551.73845  22333823.1024                   22333822.5594
 -20628945.80548 -16041083.52345  22091254.8594                   22091251.5354
 11  7 27  0 11 30.0000000  0  8G28G10G17G09G04G20G27G02
 -53219792.73847 -41460495.02745  21889206.1724                   21889203.7234
 -10263774.63347  -7989057.54743  23254399.3204                   23254399.2274
 -45685691.59448 -35559030.73046  21381129.6024                   21381127.2344
 -19070728.99647 -14829643.78945  22040199.0234                   22040197.7934
 -40870351.41448 -31813320.63346  19815478.6334                   19815476.8524
 -12125928.57846  -9247441.37143  24228348.1804                   24228346.7274
 -27341110.77347 -21275019.72745  22324673.3364                   22324671.5744
 -20749404.95348 -16134947.73446  22068332.0944                   22068329.0044
 11  7 27  0 12  0.0000000  0  8G28G10G17G09G04G20G27G02
 -53207898.76247 -41451227.03945  21891469.5394                   21891467.4774
 -10401135.44546  -8096091.83643  23228260.0634                   23228259.9774
 -45697470.49648 -35568209.10546  21378888.0164                   21378885.6294
 -19133398.41847 -14878477.09445  22028273.7274                   22028272.2704
 -40921730.27748 -31853356.10246  19805701.5634                   19805699.7304
 -12128938.34846  -9249786.67643  24227775.3984                   24227774.4414
 -27388650.32847 -21312063.55145  22315626.7664                   22315625.9804
 -20869503.84448 -16228531.22346  22045477.7344                   22045474.6994
 11  7 27  0 12 30.0000000  0  8G28G10G17G09G04G20G27G02
 -53195595.43047 -41441640.05145  21893811.2894                   21893808.2584
 -10538371.25846  -8203028.75444  23202145.0784                   23202144.9574
 -45709118.57448 -35577285.55146  21376671.5944                   21376669.2424
 -19195387.85547 -14926780.55545  22016477.5474                   22016476.0124
 -40972503.60948 -31892919.72746  19796039.7974                   19796037.6954
 -12131424.42246  -9251723.88743  24227302.8364                   24227301.9144
 -27435661.60547 -21348695.72345  22306680.7664                   22306679.6844
 -20989257.02048 -16321845.32445  22022689.8204                   22022686.6484
 11  7 27  0 13  0.0000000  0  8G28G10G17G09G04G20G27G02
 -53182873.60547 -41431726.98045  21896232.0634                   21896229.7154
 -10675469.42246  -8309858.39844  23176055.3054                   23176056.1994
 -45720626.87148 -35586253.07046  21374481.8204                   21374479.3674
 -19256687.70747 -14974546.66445  22004812.3674                   22004810.8244
 -41022662.45748 -31932004.53146  19786494.8134                   19786492.4654
 -12133378.32046  -9253246.46543  24226930.8524                   24226929.6174
 -27482135.66047 -21384909.27045  22297837.3524                   22297836.4384
 -21108653.93448 -16414881.83646  21999969.2664                   21999965.8754
 11  7 27  0 13 30.0000000  0  8G28G10G17G09G04G20G27G02
 -53169721.09847 -41421478.31245  21898734.8834                   21898732.5394
 -10812414.27746  -8416568.55944  23149996.2734                   23149996.3834
 -45731982.97348 -35595101.99246  21372320.4844                   21372318.8164
 -19317285.25447 -15021765.53145  21993280.7344                   21993279.5354
 -41072195.18748 -31970601.45346  19777068.8754                   19777066.7584
 -12134788.69146  -9254345.44943  24226663.0474                   24226661.3754
 -27528060.19147 -21420694.62545  22289098.2344                   22289096.7854
 -21227681.00848 -16507630.15246  21977319.4534                   21977316.2774
 11  7 27  0 14  0.0000000  0  8G28G10G17G09G04G20G27G02
 -53156143.65247 -41410898.52045  21901318.5084                   21901316.1994
 -10949207.84046  -8523160.85244  23123965.2734                   23123965.3634
 -45743192.62948 -35603836.80146  21370187.4534                   21370184.9574
 -19377185.91047 -15068441.38745  21981882.4224                   21981880.3834
 -41121107.61348 -32008715.02046  19767761.2114                   19767759.0274
 -12135661.65246  -9255025.71143  24226496.2734                   24226495.1374
 -27573441.00447 -21456056.30545  22280462.5864                   22280461.3524
 -21346342.39848 -16600093.51645  21954738.3284                   21954735.5744
 11  7 27  0 14 30.0000000  0  8G28G10G17G09G04G20G27G02
 -53142126.62147 -41399976.19145  21903985.9384                   21903983.7624
 -11085831.87546  -8629621.04344  23097966.3594                   23097966.3714
 -45754240.85947 -35612445.82446  21368085.3134                   21368082.8404
 -19436374.53947 -15114562.39845  21970618.8984                   21970617.1844
 -41169385.72748 -32046334.31646  19758574.2974                   19758572.1764
 -12135983.45346  -9255276.46943  24226435.7584                   24226433.6334
 -27618263.66847 -21490983.05945  22271933.0474                   22271931.6914
 -21464621.79748 -16692259.22346  21932230.2814                   21932227.2424
 11  7 27  0 15  0.0000000  0  8G28G10G17G09G04G20G27G02
 -53127687.05947 -41388724.61345  21906733.7664                   21906731.6724
 -11222300.08646  -8735959.81644  23071997.5554                   23071997.9924
 -45765145.35247 -35620942.84046  21366010.1174                   21366007.9534
 -19494868.09447 -15160141.78545  21959487.9384                   21959486.2734
 -41217046.85948 -32083472.84846  19749504.4924                   19749502.7274
 -12135771.93046  -9255111.70743  24226476.0394                   24226474.3444
 -27662545.35247 -21525488.27345  22263506.6174                   22263505.3244
 -21582534.93448 -16784139.54746  21909792.7034                   21909789.2734
 11  7 27  0 15 30.0000000  0  8G28G10G17G09G04G20G27G02
 -53112833.86747 -41377150.74645  21909560.3054                   21909557.7584
 -11358618.30947  -8842181.70344  23046056.9304                   23046057.5984
 -45775914.73847 -35629334.57446  21363960.6024                   21363958.7974
 -19552675.15248 -15205186.24645  21948487.8134                   21948486.4654
 -41264100.84848 -32120138.28146  19740550.6564                   19740548.2384
 -12135036.77046  -9254538.88343  24226615.9534                   24226614.1884
 -27706295.57047 -21559579.35245  22255181.1644                   22255179.6024
 -21700089.89848 -16875740.76646  21887422.2034                   21887418.8054
 11  7 27  0 16  0.0000000  0  8G28G10G17G09G04G20G27G02
 -53097564.79347 -41365252.80545  21912465.8984                   21912463.5394
 -11494780.71546  -8948282.19944  23020145.9694                   23020146.3364
 -45786546.71948 -35637619.24246  21361937.2114                   21361935.2774
 -19609793.27047 -15249693.87945  21937618.5164                   21937616.6954
 -41310545.59848 -32156328.98046  19731712.3594                   19731710.7234
 -12133776.49646  -9253556.83643  24226855.6334                   24226853.6954
 -27749512.08647 -21593254.56645  22246957.1644                   22246956.1174
 -21817282.56648 -16967059.68745  21865121.3524                   21865118.1134
 11  7 27  0 16 30.0000000  0  8G28G10G17G09G04G20G27G02
 -51506457.25047 -40125428.78145  22215243.9694                   22215241.5164
 -10055355.91846  -7826652.41044  23294059.4384                   23294059.0944
 -44221617.77048 -34418194.09046  21659733.6334                   21659731.1764
 -18090796.87547 -14066060.33245  22226673.5394                   22226672.4414
 -39780956.94948 -30964441.71146  20022783.5234                   20022781.5594
 -10556568.94546  -8024563.96143  24526988.1484                   24526986.2894
 -26216770.63747 -20398910.59045  22538628.4384                   22538626.8054
 -20358684.59448 -15830489.78145  22142683.2034                   22142679.5864
 11  7 27  0 17  0.0000000  0  9G28G10G12G17G09G04G20G27G02
 -51490341.83247 -40112871.34445  22218310.2344                   22218308.2154
 -10191181.25446  -7932490.27744  23268212.7424                   23268212.8404
   1369758.35556   1095093.25453  24772508.1724                   24772507.1644
 -44231960.09447 -34426253.04746  21657765.5864                   21657763.1724
 -18146521.56247 -14109482.16445  22216069.7664                   22216068.1914
 -39826170.29748 -30999672.87546  20014179.6254                   20014177.5664
 -10554246.43446  -8022754.25843  24527429.3054                   24527428.2344
 -26258906.00047 -20431743.33245  22530610.1564                   22530608.7504
 -20475134.02048 -15921229.55146  22120523.4064                   22120520.2704
 11  7 27  0 17 30.0000000  0  9G28G10G12G17G09G04G20G27G02
 -51473807.97747 -40099987.86745  22221456.6954                   22221454.8204
 -10326836.79746  -8038195.83244  23242398.6564                   23242398.5124
   1229238.32446    985597.21543  24745767.4534                   24745767.3444
 -44242162.17248 -34434202.71946  21655824.4304                   21655821.5704
 -18201553.58247 -14152364.27045  22205597.6954                   22205595.7234
 -39870773.19148 -31034428.37146  20005692.0234                   20005689.8524
 -10551398.34446  -8020534.96143  24527971.8914                   24527970.4534
 -26300505.59447 -20464158.61345  22522693.9924                   22522693.2114
 -20591214.30548 -16011681.67245  22098434.7114                   22098430.8404
 11  7 27  0 18  0.0000000  0  9G28G10G12G17G09G04G20G27G02
 -51456861.50047 -40086782.86745  22224681.5084                   22224679.2194
 -10462325.19546  -8143771.12944  23216615.5394                   23216615.5944
   1088742.86347    876120.33643  24719032.4304                   24719032.3364
 -44252229.52047 -34442047.40646  21653908.0704                   21653906.1524
 -18255898.49247 -14194710.96545  22195255.8984                   22195254.3834
 -39914771.81248 -31068712.99246  19997319.1094                   19997317.0274
 -10548031.37946  -8017911.38343  24528612.4774                   24528611.0204
 -26341575.52347 -20496161.14845  22514878.7504                   22514877.0354
 -20706929.78148 -16101849.52346  22076414.3754                   22076410.7774
 11  7 27  0 18 30.0000000  0  9G28G10G12G17G09G04G20G27G02
 -51439518.81647 -40073269.13345  22227981.4454                   22227979.6804
 -10597659.17646  -8249226.12944  23190862.2344                   23190862.2854
    948257.66047    766651.39843  24692299.1254                   24692298.6524
 -44262178.42647 -34449799.80546  21652015.2504                   21652012.8014
 -18309572.52747 -14236534.89145  22185042.2504                   22185040.4804
 -39958183.44148 -31102540.22746  19989058.2894                   19989055.9924
 -10544162.75846  -8014896.89143  24529348.9454                   24529347.5514
 -26382132.46947 -20527763.98445  22507161.2034                   22507159.6454
 -20822295.18448 -16191744.59846  22054461.1724                   22054457.5594
 11  7 27  0 19  0.0000000  0  9G28G10G12G17G09G04G20G27G02
 -51421763.94947 -40059434.21545  22231360.4454                   22231358.1054
 -10732819.96146  -8354546.16044  23165141.6564                   23165142.0704
    807800.01247    657203.86343  24665571.0234                   24665569.0744
 -44271992.48047 -34457447.12546  21650147.2424                   21650145.0664
 -18362560.32447 -14277824.10245  22174958.8984                   22174957.3444
 -40000993.07848 -31135898.36746  19980912.2504                   19980910.0864
 -10539777.77746  -8011480.03143  24530183.5164                   24530182.2234
 -26422161.37947 -20558955.34045  22499543.6174                   22499542.4144
 -20937294.25448 -16281354.21546  22032577.3984                   22032573.8954
 11  7 27  0 19 30.0000000  0  9G28G10G12G17G09G04G20G27G02
 -51403591.58647 -40045273.97745  22234818.6174                   22234816.3554
 -10867797.80147  -8459723.62944  23139456.2424                   23139456.2774
    667377.95747    547784.10243  24638849.3674                   24638848.5824
 -44281666.53547 -34464985.35546  21648306.5234                   21648304.1604
 -18414855.84047 -14318573.86745  22165007.7894                   22165005.4104
 -40043195.11748 -31168783.06246  19972880.8594                   19972879.3284
 -10534871.48046  -8007656.94542  24531117.3134                   24531115.6024
 -26461656.34047 -20589730.64545  22492028.3524                   22492027.0594
 -21051919.39848 -16370672.45746  22010764.6024                   22010761.3014
 11  7 27  0 20  0.0000000  0  9G28G10G12G17G09G04G20G27G02
 -51385007.34847 -40030792.80145  22238355.0634                   22238352.7854
 -11002594.59047  -8564760.03544  23113805.7584                   23113805.2234
    526987.74646    438389.21144  24612134.3204                   24612134.1454
 -44291205.87947 -34472418.61746  21646491.7274                   21646489.1094
 -18466464.39147 -14358788.33245  22155187.2814                   22155184.9574
 -40084795.88748 -31201199.23446  19964964.7584                   19964962.6524
 -10529450.20346  -8003432.60543  24532148.3364                   24532147.4184
 -26500623.39147 -20620094.58245  22484613.0634                   22484611.3284
 -21166174.57848 -16459702.41446  21989022.4224                   21989019.1254
 11  7 27  0 20 30.0000000  0  9G28G10G12G17G09G04G20G27G02
 -51366009.22747 -40015989.12145  22241970.3204                   22241968.1414
 -11137204.95747  -8669651.17244  23088189.8524                   23088190.0514
    386633.44546    329022.28143  24585425.1414                   24585424.8524
 -44300608.45747 -34479745.30146  21644702.2274                   21644699.9064
 -18517383.65247 -14398465.68445  22145496.6094                   22145495.6844
 -40125794.07448 -31233145.86346  19957163.0864                   19957160.8484
 -10523512.99246  -7998806.25442  24533278.6484                   24533277.2934
 -26539060.93447 -20650045.93045  22477298.5084                   22477297.3794
 -21280056.53548 -16548441.55546  21967351.6414                   21967348.3674
 11  7 27  0 21  0.0000000  0  9G28G10G12G17G09G04G20G27G02
 -51346601.03147 -40000865.89545  22245663.8204                   22245661.3094
 -11271628.60247  -8774396.78944  23062610.1884                   23062609.8444
    246313.63346    219682.25043  24558723.2974                   24558722.2814
 -44309877.30947 -34486967.79346  21642938.2424                   21642936.0274
 -18567617.59847 -14437609.02045  22135937.8914                   22135936.4454
 -40166193.77048 -31264626.13346  19949475.2664                   19949473.0554
 -10517064.30146  -7993781.28943  24534505.2344                   24534503.9494
 -26576973.02347 -20679587.84045  22470083.8914                   22470083.1334
 -21393567.66048 -16636891.73046  21945751.3204                   21945748.0164
 11  7 27  0 21 30.0000000  0  9G28G10G12G17G09G04G20G27G02
 -51326784.75047 -39985424.68045  22249434.2974                   22249432.1374
 -11405863.85947  -8878995.62144  23037065.6174                   23037065.6954
    106028.62145    110369.32443  24532028.0004                   24532026.3244
 -44319014.07847 -34494087.36346  21641199.8364                   21641197.5664
 -18617168.08647 -14476219.77745  22126508.5704                   22126507.4024
 -40205997.70748 -31295642.16846  19941900.6884                   19941898.1644
 -10510106.87546  -7988359.92243  24535829.8834                   24535827.9964
 -26614361.92647 -20708722.05145  22462969.1884                   22462968.4654
 -21506708.28948 -16725053.20346  21924221.5314                   21924217.8094
 11  7 27  0 22  0.0000000  0  9G28G10G12G17G09G04G20G27G02
 -51306569.73447 -39969672.75845  22253281.2344                   22253279.5944
 -11539916.65647  -8983452.25844  23011556.1954                   23011555.8794
    -34229.56646      1077.34043  24505337.0704                   24505335.4774
 -44328028.29347 -34501111.43046  21639484.2034                   21639482.1844
 -18666044.58647 -14514305.37545  22117207.9454                   22117206.5084
 -40245215.84048 -31326201.74246  19934437.9144                   19934435.7624
 -10502651.19546  -7982550.34843  24537247.8134                   24537247.2704
 -26651237.48847 -20737456.27045  22455952.4534                   22455950.9534
 -21619486.58648 -16812932.34846  21902760.3754                   21902757.1054
 11  7 27  0 22 30.0000000  0  9G28G10G12G17G09G04G20G27G02
 -51285938.10547 -39953596.21145  22257207.1724                   22257205.4184
 -11673765.06247  -9087749.62544  22986086.1024                   22986085.7584
   -174440.54346   -108177.88743  24478656.7034                   24478654.0824
 -44336901.47347 -34508025.60246  21637796.1484                   21637793.3524
 -18714228.50047 -14551851.29745  22108038.7894                   22108037.1724
 -40283830.74648 -31356291.27746  19927089.5784                   19927087.6524
 -10494679.82846  -7976338.91843  24538764.6174                   24538763.7424
 -26687581.79747 -20765776.52345  22449036.4614                   22449034.7734
 -21731883.02748 -16900513.94146  21881371.8054                   21881368.7504
 11  7 27  0 23  0.0000000  0  9G28G10G12G17G09G04G20G27G02
 -51264902.20747 -39937204.63745  22261210.7424                   22261208.3364
 -11807417.83247  -9191894.54744  22960652.1564                   22960651.8594
   -314614.43746   -217404.26643  24451981.7034                   24451979.7584
 -44345645.10547 -34514838.82446  21636131.9924                   21636129.3594
 -18761732.32847 -14588867.26645  22098999.3054                   22098997.5984
 -40321855.46148 -31385920.92246  19919853.2504                   19919851.6884
 -10486206.18446  -7969736.05943  24540378.2274                   24540375.9654
 -26723407.51247 -20793692.68745  22442218.8204                   22442217.7544
 -21843908.82848 -16987806.72346  21860053.7584                   21860050.7774
 11  7 27  0 23 30.0000000  0  9G28G10G12G17G09G04G20G27G02
 -51243454.32047 -39920492.03945  22265291.5084                   22265289.7624
 -11940863.46147  -9295878.07044  22935258.6334                   22935258.3674
   -454741.32046   -326593.95743  24425316.5084                   24425314.1334
 -44354251.61347 -34521545.19546  21634494.2584                   21634491.6644
 -18808548.52047 -14625347.42245  22090090.3054                   22090088.8484
 -40359282.76648 -31415085.04746  19912731.6724                   19912729.7114
 -10477223.59846  -7962736.65243  24542087.4614                   24542085.9304
 -26758707.21547 -20821198.96545  22435501.9384                   22435500.4844
 -21955554.49248 -17074803.29346  21838808.8284                   21838805.5274
 11  7 27  0 24  0.0000000  0  9G28G10G12G17G09G04G20G27G02
 -51221600.67247 -39903463.26645  22269450.6094                   22269448.2114
 -12074103.92247  -9399701.72344  22909903.7274                   22909902.9614
   -594824.74647   -435749.90643  24398659.7424                   24398656.3834
 -44362726.54347 -34528149.04346  21632881.4774                   21632879.2034
 -18854683.02047 -14661296.38345  22081311.2504                   22081309.6414
 -40396119.27348 -31443788.82446  19905721.6564                   19905719.7154
 -10467738.54746  -7955345.71943  24543892.1174                   24543890.4574
 -26793487.31247 -20848300.36745  22428883.2894                   22428881.8014
 -22066824.62548 -17161507.26646  21817634.2664                   21817631.1994
 11  7 27  0 24 30.0000000  0  9G28G10G12G17G09G04G20G27G02
 -51199330.34447 -39886109.80545  22273688.1804                   22273686.3134
 -12207125.06647  -9503354.47344  22884590.3054                   22884589.9104
   -734852.13747   -544862.17243  24372013.2114                   24372010.6564
 -44371058.92647 -34534641.80146  21631296.0554                   21631293.3284
 -18900125.16047 -14696705.84045  22072664.0084                   22072662.2464
 -40432354.96148 -31472024.41446  19898826.7424                   19898824.2664
 -10457741.32846  -7947555.71943  24545795.0474                   24545793.1724
 -26827737.71547 -20874989.00845  22422365.7734                   22422363.7664
 -22177707.12948 -17247909.16846  21796534.5394                   21796531.1804
 11  7 27  0 25  0.0000000  0  9G28G10G12G17G09G04G20G27G02
 -51176653.36747 -39868439.48045  22278003.7194                   22278001.5744
 -12339932.95747  -9606841.05944  22859317.6024                   22859317.5164
   -874830.80946   -653936.45343  24345375.9144                   24345373.8324
 -44379258.14147 -34541030.80546  21629735.8284                   21629733.5664
 -18944884.78947 -14731583.47745  22064146.4064                   22064144.7154
 -40468000.27048 -31499799.97346  19892043.1254                   19892040.9924
 -10447242.44946  -7939374.77743  24547792.4454                   24547791.4884
 -26861468.33647 -20901272.61745  22415946.7894                   22415945.1134
 -22288210.42648 -17334015.59046  21775506.1334                   21775502.7814
 11  7 27  0 25 30.0000000  0  9G28G10G12G17G09G04G20G27G02
 -51153560.95347 -39850445.41845  22282398.0164                   22282395.9804
 -12472514.42647  -9710151.20744  22834089.0164                   22834088.3094
  -1014749.74246   -762964.09844  24318750.0864                   24318749.5904
 -44387314.26248 -34547308.29746  21628202.7114                   21628200.3324
 -18988952.72747 -14765922.12545  22055760.3444                   22055759.0744
 -40503046.71148 -31527108.88746  19885374.5084                   19885372.1414
 -10436234.07846  -7930796.83643  24549888.1334                   24549886.3284
 -26894670.65248 -20927144.57845  22409628.8284                   22409627.4924
 -22398324.07448 -17419818.39546  21754552.1174                   21754548.5394
 11  7 27  0 26  0.0000000  0  9G28G10G12G17G09G04G20G27G02
 -51130053.08647 -39832127.64144  22286872.0634                   22286869.4304
 -12604866.21147  -9813282.39844  22808902.5474                   22808902.1644
  -1154606.81247   -871943.57844  24292136.6334                   24292135.2704
 -44395227.53147 -34553474.48446  21626696.6724                   21626694.2974
 -19032329.85547 -14799722.47745  22047506.3754                   22047505.1094
 -40537495.40248 -31553952.01246  19878818.9454                   19878816.7074
 -10424717.55546  -7921822.90243  24552079.3914                   24552077.4884
 -26927345.36347 -20952605.41445  22403410.5554                   22403409.3244
 -22508046.88348 -17505316.64546  21733672.4454                   21733669.2544
 11  7 27  0 26 30.0000000  0  9G28G10G12G17G09G04G20G27G02
 -51106143.12947 -39813496.52745  22291421.5944                   22291419.1884
 -12736997.50847  -9916241.78944  22783758.9694                   22783758.3364
  -1294412.79347   -980883.24644  24265532.6334                   24265530.7504
 -44403010.79747 -34559539.37146  21625215.6414                   21625213.4654
 -19075029.04747 -14832994.56245  22039381.0004                   22039379.6724
 -40571359.96148 -31580339.96946  19872375.2034                   19872372.8324
 -10412706.37546  -7912463.56243  24554364.6414                   24554362.6094
 -26959505.84847 -20977665.55145  22397290.8204                   22397289.5514
 -22617390.63748 -17590519.52046  21712864.8834                   21712861.6954
 11  7 27  0 27  0.0000000  0  8G28G10G12G17G09G04G27G02
 -51081824.41847 -39794546.92645  22296048.8914                   22296047.3364
 -12868897.57847 -10019020.99644  22758658.8914                   22758658.8404
  -1434158.40647  -1089775.88744  24238939.7584                   24238938.2704
 -44410656.61747 -34565497.15646  21623760.5004                   21623758.4844
 -19117043.69147 -14865733.24645  22031385.8674                   22031384.1374
 -40604634.32848 -31606268.03946  19866042.8524                   19866040.3914
 -26991145.88747 -21002320.13345  22391270.0944                   22391268.5634
 -22726347.02748 -17675420.55946  21692131.1484                   21692128.1054
 11  7 27  0 27 30.0000000  0  8G28G10G12G17G09G04G27G02
 -51057088.17647 -39775271.97345  22300756.0554                   22300754.2504
 -13000553.77747 -10121610.16045  22733605.4774                   22733605.2304
  -1573832.42247  -1198612.73844  24212360.4144                   24212358.8554
 -44418155.65648 -34571340.57446  21622333.7194                   21622331.2664
 -19158365.35247 -14897931.94145  22023522.0554                   22023521.0314
 -40637310.57048 -31631730.03946  19859824.4774                   19859822.3284
 -27022257.06248 -21026562.61745  22385349.5474                   22385348.1724
 -22834905.89848 -17760011.84446  21671473.6954                   21671469.9344
 11  7 27  0 28  0.0000000  0  8G28G10G12G17G09G04G27G02
 -51031933.51647 -39755670.99645  22305543.3284                   22305541.3674
 -13131961.46147 -10224005.69544  22708599.7114                   22708599.0434
  -1713431.90647  -1307391.53544  24185795.7424                   24185794.6884
 -44425506.50048 -34577068.51646  21620935.0634                   21620932.3404
 -19198993.03947 -14929589.87945  22015791.0864                   22015789.8594
 -40669388.46148 -31656725.79346  19853720.2194                   19853718.5944
 -27052838.88748 -21050392.62545  22379530.0704                   22379528.7424
 -22943064.81248 -17844291.48046  21650891.1954                   21650887.3444
 11  7 27  0 28 30.0000000  0  8G28G10G12G17G09G04G27G02
 -51006365.26247 -39735747.73045  22310408.6564                   22310406.8984
 -13263121.29347 -10326208.08644  22683640.1884                   22683640.2384
  -1852959.02047  -1416113.92243  24159243.8284                   24159242.7734
 -44432713.06248 -34582684.02746  21619563.7344                   21619561.1094
 -19238931.75447 -14960710.96145  22008191.3754                   22008190.4694
 -40700873.21548 -31681259.36346  19847729.1954                   19847727.1294
 -27082896.37947 -21073814.05945  22373810.6564                   22373809.1214
 -23050827.19548 -17928262.11346  21630384.6804                   21630381.2974
 11  7 27  0 29  0.0000000  0  8G28G10G12G17G09G04G27G02
 -50980386.08247 -39715504.26245  22315352.4224                   22315350.4804
 -13394031.47347 -10428215.94544  22658729.2664                   22658728.7154
  -1992413.71946  -1524779.93043  24132706.9694                   24132703.7734
 -44439777.22747 -34588188.58646  21618219.2424                   21618216.5984
 -19278183.93447 -14991297.07445  22000721.8834                   22000720.4494
 -40731768.12548 -31705333.31646  19841849.8984                   19841847.9494
 -27112432.38347 -21096829.13745  22368189.9064                   22368188.2384
 -23158193.91848 -18011924.44546  21609953.6334                   21609949.7974
 11  7 27  0 29 30.0000000  0  8G28G10G12G17G09G04G27G02
 -50953989.30947 -39694935.41445  22320375.1804                   22320373.1174
 -13524681.93447 -10530021.43444  22633866.8594                   22633866.6804
  -2131787.10546  -1633382.58244  24106185.2114                   24106182.8594
 -44446691.78547 -34593576.57046  21616903.4064                   21616901.1914
 -19316743.29347 -15021343.32445  21993384.3914                   21993383.3874
 -40762067.28148 -31728943.03946  19836084.1334                   19836081.9924
 -27141440.99647 -21119433.26645  22362669.6564                   22362668.3014
 -23265157.30548 -18095272.48446  21589599.0234                   21589595.0824
 11  7 27  0 30  0.0000000  0  8G28G10G12G17G09G04G27G02
 -50927190.73047 -39674053.45345  22325475.0474                   22325473.1884
 -13655084.23847 -10631633.54744  22609051.9694                   22609051.6214
  -2271092.31646  -1741932.08644  24079676.5944                   24079674.4964
 -44453472.22348 -34598860.04746  21615613.1804                   21615610.9694
 -19354625.70747 -15050862.09845  21986175.4144                   21986173.9924
 -40791786.82048 -31752101.12146  19830428.7114                   19830426.8874
 -27169938.29747 -21141638.97345  22357246.5314                   22357245.7504
 -23371731.09848 -18178316.94546  21569318.5944                   21569314.8834
 11  7 27  0 30 30.0000000  0  8G28G10G12G17G09G04G27G02
 -50899980.80147 -39652850.95745  22330653.2274                   22330651.4184
 -13785225.16047 -10733041.98445  22584287.5164                   22584287.2424
  -2410317.35547  -1850419.09044  24053182.6884                   24053181.8134
 -44460108.06248 -34604030.84446  21614350.6174                   21614348.0984
 -19391821.92647 -15079846.16845  21979097.1804                   21979095.7464
 -40820918.37548 -31774801.02746  19824885.4304                   19824883.1724
 -27197915.33247 -21163439.27745  22351923.2814                   22351921.5314
 -23477904.60248 -18261049.50046  21549114.7664                   21549110.3444
 11  7 27  0 31  0.0000000  0  8G28G10G12G17G09G04G27G02
 -50872359.27347 -39631327.75445  22335910.0234                   22335907.5904
 -13915099.99647 -10834243.07844  22559572.9924                   22559572.5004
  -2549459.12147  -1958841.19144  24026704.4694                   24026703.2854
 -44466598.41448 -34609088.28146  21613115.4064                   21613112.9064
 -19428331.57447 -15108295.26245  21972149.7114                   21972147.9694
 -40849461.75048 -31797042.61746  19819453.8914                   19819451.7074
 -27225372.00047 -21184834.09845  22346698.5864                   22346696.9304
 -23583675.62548 -18343468.43446  21528986.9224                   21528983.2114
 11  7 27  0 31 30.0000000  0  8G28G10G12G17G09G04G27G02
 -50844338.75047 -39609493.62944  22341241.4534                   22341239.3204
 -14044717.42247 -10935243.59844  22534907.0004                   22534906.2584
  -2688527.55547  -2067206.19944  24000241.0864                   24000239.0784
 -44472955.00847 -34614041.49246  21611905.9384                   21611903.5984
 -19464167.77747 -15136219.59445  21965330.2504                   21965328.5864
 -40877430.58648 -31818836.51646  19814131.3984                   19814129.0984
 -27252321.32447 -21205833.57845  22341569.7584                   22341568.3134
 -23689055.57048 -18425582.62546  21508934.1884                   21508930.1724
 11  7 27  0 32  0.0000000  0  8G28G10G12G17G09G04G27G02
 -50815919.18447 -39587348.55944  22346649.6884                   22346647.3794
 -14174073.40647 -11036040.40644  22510291.5704                   22510290.4104
  -2827519.91847  -2175511.89544  23973792.0704                   23973789.7344
 -44479177.13348 -34618889.91046  21610721.9064                   21610719.5944
 -19499330.65247 -15163619.25445  21958638.7344                   21958637.3874
 -40904825.27348 -31840183.01646  19808918.6724                   19808916.1054
 -27278763.59847 -21226437.95745  22336538.1804                   22336536.5664
 -23794043.02048 -18507390.98046  21488955.3834                   21488951.8364
 11  7 27  0 32 30.0000000  0  8G28G10G12G17G09G04G27G02
 -50787105.46147 -39564896.34444  22352132.8204                   22352130.9414
 -14303168.64547 -11136634.04744  22485725.7194                   22485725.1374
  -2966438.58246  -2283760.10944  23947356.0234                   23947354.4264
 -44485268.66447 -34623636.57846  21609562.7734                   21609560.2384
 -19533825.36347 -15190498.26645  21952074.7274                   21952073.6644
 -40931651.53948 -31861086.59846  19803813.1954                   19803811.3634
 -27304704.04747 -21246651.30545  22331602.1954                   22331600.4064
 -23898641.16448 -18588895.97346  21469050.9454                   21469047.0314
 11  7 27  0 33  0.0000000  0  8G28G10G12G17G09G04G27G02
 -50757879.50047 -39542122.91844  22357694.4064                   22357692.5594
 -14431980.90647 -11237007.17644  22461213.5164                   22461212.7274
  -3105262.91047  -2391934.85544  23920938.6174                   23920937.2734
 -44491210.80548 -34628266.84046  21608432.0784                   21608429.9304
 -19567634.01247 -15216842.68445  21945641.0234                   21945639.4064
 -40957892.01648 -31881533.71946  19798819.9304                   19798817.9844
 -27330125.14147 -21266459.96145  22326764.1724                   22326763.1484
 -24002830.60248 -18670082.50446  21449224.0864                   21449220.3484
 11  7 27  0 33 30.0000000  0  8G28G10G12G17G09G04G27G02
 -50728263.93447 -39519045.89144  22363330.0004                   22363328.0164
 -14560528.79347 -11337174.30944  22436751.6174                   22436750.5314
  -3244012.63747  -2500051.49244  23894535.7194                   23894533.1604
 -44497025.45348 -34632797.75846  21607325.3054                   21607323.3324
 -19600779.35547 -15242670.24645  21939334.1414                   21939332.2934
 -40983569.92648 -31901542.47347  19793933.4614                   19793931.4884
 -27355050.00048 -21285881.94945  22322021.2504                   22322020.2504
 -24106632.13748 -18750966.77346  21429471.4064                   21429467.8794
 11  7 27  0 34  0.0000000  0  8G28G10G12G17G09G04G27G02
 -50698260.31647 -39495666.49244  22369038.8524                   22369037.7934
 -14688809.37547 -11437133.14545  22412340.2344                   22412339.3754
  -3382686.59847  -2608109.07843  23868146.6334                   23868144.4224
 -44502712.99648 -34637229.61746  21606243.2274                   21606241.1994
 -19633262.97347 -15267982.17645  21933152.4224                   21933150.7544
 -41008687.25448 -31921114.41846  19789154.0084                   19789151.7734
 -27379480.42648 -21304918.65645  22317372.3524                   22317371.0944
 -24210045.85248 -18831548.84446  21409792.3984                   21409788.8244
 11  7 27  0 34 30.0000000  0  8G28G10G12G17G09G04G27G02
 -50667868.90647 -39471984.92644  22374822.9534                   22374821.4024
 -14816819.01247 -11536880.84445  22387981.2584                   22387980.6684
  -3521282.40647  -2716105.78944  23841773.0164                   23841771.4694
 -44508272.89548 -34641562.02746  21605185.2814                   21605182.9574
 -19665086.07847 -15292779.42645  21927097.2664                   21927095.1054
 -41033245.15248 -31940250.43746  19784480.6334                   19784479.1684
 -27403417.25047 -21323570.73845  22312817.1094                   22312816.3164
 -24313070.54348 -18911827.78546  21390187.2584                   21390183.9924
 11  7 27  0 35  0.0000000  0  8G28G10G12G17G09G04G27G02
 -49061656.99647 -38220391.26244  22680474.9304                   22680472.6484
 -13369115.61747 -10408800.19945  22663470.0864                   22663469.1954
  -2084358.72347  -1596424.96144  24115210.2344                   24115208.5084
 -42938270.52348 -33418183.57846  21903947.1174                   21903944.2664
 -18120813.79347 -14089450.38745  22220962.2974                   22220960.2504
 -39481809.62148 -30731339.62546  20079708.9384                   20079707.1804
 -25851426.13747 -20114227.02745  22608151.4614                   22608150.7464
 -22840267.36748 -17764188.91046  21670452.4304                   21670449.3914
 11  7 27  0 35 30.0000000  0  8G28G10G12G17G09G04G27G02
 -49030479.02047 -38196096.77744  22686408.0234                   22686405.8324
 -13496560.10947 -10508107.55145  22639217.6174                   22639216.9694
  -2222778.46147  -1704284.43444  24088869.8674                   24088868.4184
 -42943562.04348 -33422306.85546  21902939.7734                   21902937.2814
 -18151305.04747 -14113209.83245  22215159.7734                   22215158.2034
 -39505239.78948 -30749596.90646  20075250.4924                   20075248.5124
 -25874365.82447 -20132102.14145  22603785.8834                   22603784.8554
 -22942498.67648 -17843849.64146  21650998.6954                   21650995.1174
 11  7 27  0 36  0.0000000  0  8G28G10G12G17G09G04G27G02
 -48998916.09047 -38171502.33644  22692413.9924                   22692412.3914
 -13623723.68047 -10607195.99645  22615019.4844                   22615018.4884
  -2361114.13747  -1812078.41044  24062544.3674                   24062543.7854
 -42948725.77748 -33426330.56646  21901957.0704                   21901955.0984
 -18181138.82448 -14136456.94145  22209482.5704                   22209481.2194
 -39528115.09848 -30767421.81646  20070897.7814                   20070895.5784
 -25896815.70347 -20149595.57845  22599514.2274                   22599513.2274
 -23044338.98048 -17923205.68446  21631618.9924                   21631615.9454
 11  7 27  0 36 30.0000000  0  8G28G10G12G17G09G04G27G02
 -48966959.83647 -38146601.41844  22698495.3984                   22698493.6414
 -13750594.17647 -10706056.07045  22590876.9144                   22590876.3054
  -2499354.54346  -1919798.10244  24036238.7894                   24036238.5204
 -42953752.65248 -33430247.62546  21901000.5864                   21900998.3874
 -18210307.36748 -14159185.68745  22203932.0944                   22203930.4454
 -39550428.20348 -30784808.64847  20066651.5164                   20066649.3554
 -25918768.16447 -20166701.40245  22595336.7504                   22595336.1564
 -23145778.36348 -18002249.32046  21612315.7114                   21612311.9964
 11  7 27  0 37  0.0000000  0  8G28G10G12G17G09G04G27G02
 -48934626.52747 -38121406.66044  22704648.2974                   22704646.4654
 -13877183.67247 -10804697.18045  22566787.8364                   22566786.4344
  -2637513.52046  -2027454.38344  24009947.9614                   24009945.8364
 -42958658.08248 -33434070.04746  21900067.2344                   21900064.7194
 -18238827.56647 -14181409.22745  22198504.9844                   22198503.6024
 -39572195.89548 -30801770.48446  20062509.0004                   20062506.9884
 -25940239.83647 -20183432.59845  22591250.4144                   22591250.1954
 -23246831.77748 -18080992.21946  21593085.7424                   21593082.2194
 11  7 27  0 37 30.0000000  0  8G28G10G12G17G09G04G27G02
 -48901905.04347 -38095909.44544  22710874.7584                   22710873.1024
 -14003476.45347 -10903107.07045  22542754.6564                   22542754.4104
  -2775576.75047  -2135036.05144  23983675.4534                   23983673.1054
 -42963429.67248 -33437788.17646  21899159.3524                   21899157.0904
 -18266688.44947 -14203119.01645  22193202.9384                   22193201.9224
 -39593407.82448 -30818299.25446  20058472.6024                   20058470.7544
 -25961219.78947 -20199780.64145  22587258.4694                   22587257.6844
 -23347486.63748 -18159424.55146  21573932.0314                   21573928.2624
 11  7 27  0 38  0.0000000  0  8G28G10G12G17G09G04G27G02
 -48868817.22747 -38070126.81244  22717171.2194                   22717169.4494
 -14129490.20747 -11001299.55545  22518775.2194                   22518774.2974
  -2913562.47747  -2242557.35544  23957418.3284                   23957415.5554
 -42968087.93048 -33441417.99646  21898272.6884                   21898270.3094
 -18293912.31647 -14224332.41445  22188022.0394                   22188021.5864
 -39614086.24648 -30834412.31246  20054537.7814                   20054535.6954
 -25981730.29747 -20215762.87145  22583355.0704                   22583354.0474
 -23447762.89148 -18237561.86346  21554849.8284                   21554845.9574
 11  7 27  0 38 30.0000000  0  8G28G10G12G17G09G04G27G02
 -48835350.63347 -38044049.00444  22723540.0314                   22723537.8834
 -14255208.31247 -11099261.65645  22494851.7504                   22494850.7304
  -3051456.07446  -2350006.87544  23931177.1644                   23931175.3014
 -42972620.29348 -33444949.71546  21897410.2814                   21897407.9614
 -18320487.22747 -14245040.13745  22182965.5864                   22182964.7424
 -39634219.90248 -30850100.87546  20050706.4774                   20050704.7934
 -26001759.66047 -20231370.19545  22579543.7194                   22579543.0434
 -23547646.76248 -18315393.43046  21535842.5314                   21535838.8874
 11  7 27  0 39  0.0000000  0  8G28G10G12G17G09G04G27G02
 -48801493.66847 -38017667.01644  22729982.6954                   22729980.8484
 -14380614.61747 -11196980.78145  22470987.7974                   22470987.2234
  -3189242.68747  -2457373.03144  23904957.4224                   23904955.8874
 -42977013.29348 -33448372.83646  21896574.2424                   21896571.5744
 -18346401.53147 -14265233.10945  22178034.1414                   22178033.0434
 -39653797.33648 -30865356.02046  20046980.9384                   20046978.7664
 -26021296.57047 -20246593.78145  22575826.4454                   22575825.4924
 -23647124.77048 -18392908.74246  21516912.5474                   21516909.2234
 11  7 27  0 39 30.0000000  0  8G28G10G12G17G09G04G27G02
 -48767261.86747 -37990992.94544  22736496.7034                   22736495.0704
 -14505720.69147 -11294465.98445  22447180.4774                   22447179.9414
  -3326934.89547  -2564665.64844  23878755.4304                   23878753.3634
 -42981281.91848 -33451699.03946  21895762.2034                   21895759.8014
 -18371671.55947 -14284924.03945  22173225.0314                   22173224.5004
 -39672834.99248 -30880190.55946  20043358.2194                   20043356.5394
 -26040357.24647 -20261446.30545  22572199.3914                   22572198.1454
 -23746211.31648 -18470119.01646  21498056.8204                   21498053.3594
 11  7 27  0 40  0.0000000  0  8G28G10G12G17G09G04G27G02
 -48732660.84447 -37964031.17644  22743081.0634                   22743079.7344
 -14630527.91047 -11391718.29345  22423430.4384                   22423430.2034
  -3464535.56647  -2671886.87544  23852570.3524                   23852569.0204
 -42985430.41048 -33454931.64146  21894972.4924                   21894970.5944
 -18396303.39847 -14304117.69545  22168538.1414                   22168537.1334
 -39691339.54348 -30894609.68746  20039836.8674                   20039835.1374
 -26058947.83648 -20275932.48845  22568661.4534                   22568660.7814
 -23844910.73848 -18547027.62546  21479275.0784                   21479271.3794
 11  7 27  0 40 30.0000000  0  8G28G10G12G17G09G04G27G02
 -48697671.94147 -37936767.16044  22749738.9384                   22749737.3014
 -14755013.19147 -11488719.74645  22399741.5944                   22399741.0044
  -3602022.76647  -2779019.69144  23826407.4844                   23826405.3524
 -42989438.94547 -33458055.18446  21894209.7194                   21894207.1914
 -18420279.01247 -14322799.98845  22163975.6024                   22163974.7584
 -39709292.90248 -30908599.32046  20036420.5634                   20036418.6764
 -26077050.07447 -20290038.14845  22565217.0784                   22565215.7894
 -23943202.60948 -18623618.67646  21460570.3754                   21460566.7194
 11  7 27  0 41  0.0000000  0  8G28G10G12G17G09G04G27G02
 -48662308.80147 -37909211.53144  22756469.0314                   22756467.0124
 -14879186.28947 -11585477.94945  22376112.3914                   22376111.5474
  -3739406.65647  -2886072.03944  23800264.6884                   23800261.9574
 -42993320.28948 -33461079.62146  21893471.2424                   21893468.7424
 -18443612.28147 -14340981.76645  22159535.3914                   22159534.3484
 -39726709.32848 -30922170.56246  20033106.0704                   20033104.2114
 -26094678.09047 -20303774.27745  22561862.6564                   22561860.8094
 -24041098.80148 -18699901.40246  21441941.5554                   21441938.0044
 11  7 27  0 41 30.0000000  0  8G28G10G12G17G09G04G27G02
 -48626575.25447 -37881367.27744  22763268.8054                   22763267.5824
 -15003046.27747 -11681992.16845  22352542.7344                   22352542.2194
  -3876688.85947  -2993045.14144  23774140.7814                   23774138.7934
 -42997076.77048 -33464006.75446  21892756.3674                   21892754.1804
 -18466307.18047 -14358666.11345  22155217.0864                   22155215.9384
 -39743593.17248 -30935326.80546  20029893.6334                   20029891.4654
 -26111835.78147 -20317143.93045  22558597.7114                   22558595.7814
 -24138601.52348 -18775877.51646  21423387.4064                   21423383.4964
 11  7 27  0 42  0.0000000  0  8G28G10G12G17G09G04G27G02
 -48590474.80147 -37853237.12944  22770138.5474                   22770136.9344
 -15126592.17247 -11778261.64845  22329032.7734                   22329031.5944
  -4013869.04747  -3099938.77044  23748036.2344                   23748034.9384
 -43000710.80148 -33466838.47346  21892064.6174                   21892062.4344
 -18488367.99647 -14375856.36745  22151018.8284                   22151017.8634
 -39759948.48448 -30948071.20746  20026781.1564                   20026778.9454
 -26128527.25448 -20330150.29745  22555421.5784                   22555419.5434
 -24235713.07848 -18851548.84046  21404908.2424                   21404904.0864
 11  7 27  0 42 30.0000000  0  8G28G10G12G17G09G04G27G02
 -48553989.87947 -37824807.37944  22777081.8204                   22777079.7384
 -15249802.00447 -11874269.25845  22305586.6484                   22305585.5594
  -4150926.56647  -3206736.79344  23721954.5474                   23721952.5164
 -43004203.60248 -33469560.14546  21891399.8754                   21891397.7304
 -18509777.94947 -14392539.44145  22146944.5004                   22146943.8554
 -39775758.73048 -30960390.86746  20023772.4064                   20023770.1764
 -26144735.70747 -20342780.25445  22552337.1024                   22552335.2814
 -24332414.06648 -18926900.23046  21386506.1484                   21386502.4104
 11  7 27  0 43  0.0000000  0  8G28G10G12G17G09G04G27G02
 -48517138.70347 -37796092.23444  22784094.0944                   22784092.0314
 -15372690.03547 -11970026.10945  22282201.5944                   22282200.5084
  -4287876.64546  -3313451.09044  23695893.6414                   23695891.1914
 -43007572.07447 -33472184.93746  21890758.8364                   21890756.6844
 -18530555.52747 -14408729.75445  22142990.9224                   22142989.5234
 -39791042.96948 -30972300.66846  20020863.6254                   20020861.7974
 -26160479.94147 -20355048.50845  22549340.7034                   22549339.4064
 -24428721.32848 -19001944.82846  21368179.4454                   21368175.4884
 11  7 27  0 43 30.0000000  0  8G28G10G12G17G09G04G27G02
 -48479914.32047 -37767086.27344  22791177.7504                   22791176.3244
 -15495244.77747 -12065523.25445  22258880.1644                   22258878.8634
  -4424708.92246  -3420073.59844  23669856.1644                   23669853.3404
 -43010807.85947 -33474706.35246  21890143.3834                   21890141.2154
 -18550694.13347 -14424422.19545  22139158.5164                   22139157.2234
 -39805794.52048 -30983795.38346  20018057.1564                   20018054.9654
 -26175753.11347 -20366949.70345  22546434.4384                   22546432.9654
 -24524626.06248 -19076675.77046  21349929.7814                   21349925.0394
 11  7 27  0 44  0.0000000  0  8G28G10G12G17G09G04G27G02
 -48442320.16447 -37737792.20344  22798331.3524                   22798330.5204
 -15617465.16447 -12160759.86745  22235622.0234                   22235621.3634
  -4561423.73447  -3526604.57844  23643839.5784                   23643836.6134
 -43013913.18447 -33477126.09446  21889552.3834                   21889550.0704
 -18570197.86747 -14439619.93045  22135447.1724                   22135445.6094
 -39820017.84448 -30994878.48447  20015350.2504                   20015348.3714
 -26190559.28947 -20378487.00445  22543617.1174                   22543615.7114
 -24620130.44548 -19151094.73846  21331755.5314                   21331751.3874
 11  7 27  0 44 30.0000000  0  8G28G10G12G17G09G04G27G02
 -48404349.32847 -37708204.58244  22805557.3754                   22805556.0204
 -15739339.98047 -12255727.19945  22212430.0314                   22212429.1914
  -4698010.87547  -3633036.06644  23617848.5704                   23617846.1564
 -43016880.30547 -33479438.14846  21888987.6804                   21888985.6174
 -18589060.45347 -14454318.04745  22131857.5634                   22131856.8164
 -39833706.37548 -31005544.87946  20012745.2504                   20012743.2544
 -26204892.17647 -20389655.50845  22540889.1094                   22540887.9064
 -24715225.93748 -19225195.10246  21313659.4924                   21313655.3244
 11  7 27  0 45  0.0000000  0  8G28G10G12G17G09G04G27G02
 -48366010.43047 -37678330.16044  22812853.0864                   22812851.2194
 -15860873.26247 -12350428.40645  22189303.4694                   22189302.1524
  -4834475.75847  -3739372.32445  23591879.5944                   23591878.6374
 -43019716.05547 -33481647.84446  21888448.4534                   21888446.1174
 -18607291.05147 -14468523.73045  22128388.2664                   22128387.3954
 -39846869.79348 -31015802.09046  20010240.3914                   20010238.6454
 -26218760.77047 -20400462.22745  22538250.5164                   22538248.9844
 -24809919.27048 -19298982.08646  21295640.3204                   21295635.9694
 11  7 27  0 45 30.0000000  0  8G28G10G12G17G09G04G27G02
 -48327297.86347 -37648164.61344  22820219.3524                   22820218.6564
 -15982055.24247 -12444855.87145  22166242.9614                   22166241.9454
  -4970809.48847  -3845606.34444  23565936.5474                   23565934.3324
 -43022413.62548 -33483749.86746  21887935.0314                   21887932.8204
 -18624884.45747 -14482232.91045  22125040.5004                   22125039.4884
 -39859503.09448 -31025646.23046  20007836.3284                   20007834.4804
 -26232159.99647 -20410903.21945  22535700.5164                   22535699.4384
 -24904203.66848 -19372450.42246  21277698.2584                   21277694.2234
 11  7 27  0 46  0.0000000  0  8G28G10G12G17G09G04G27G02
 -48288214.48447 -37617710.08244  22827656.9454                   22827655.3674
 -16102884.40247 -12539008.40645  22143250.3364                   22143249.4494
  -5107011.60247  -3951737.81644  23540017.5864                   23540016.2934
 -43024974.46147 -33485745.33646  21887447.8754                   21887445.8204
 -18641844.25047 -14495448.35245  22121813.4534                   22121811.9614
 -39871609.79348 -31035080.02746  20005532.6174                   20005530.4454
 -26245093.25447 -20420981.10245  22533239.2344                   22533238.6724
 -24998080.32848 -19445601.03546  21259833.9614                   21259830.1564
 11  7 27  0 46 30.0000000  0  8G28G10G12G17G09G04G27G02
 -48248766.97347 -37586971.80544  22835163.8524                   22835162.0594
 -16223362.75047 -12632887.58245  22120323.9144                   22120322.8674
  -5243085.52047  -4057769.44144  23514123.2894                   23514121.4144
 -43027404.09848 -33487638.56646  21886985.3134                   21886983.2704
 -18658177.85947 -14508175.85945  22118705.0784                   22118703.9534
 -39883197.26648 -31044109.23046  20003327.7584                   20003325.6844
 -26257568.07847 -20430701.75845  22530865.8834                   22530864.7234
 -25091554.34048 -19518437.89146  21242046.3134                   21242042.8634
 11  7 27  0 47  0.0000000  0  8G28G10G12G17G09G04G27G02
 -48208952.94547 -37555947.94544  22842740.3204                   22842738.6524
 -16343483.81247 -12726488.37145  22097465.7114                   22097464.4064
  -5379025.80947  -4163696.88744  23488254.8284                   23488253.1994
 -43029698.81648 -33489426.67246  21886548.7894                   21886546.6334
 -18673883.83647 -14520414.28545  22115716.5634                   22115714.8404
 -39894264.23448 -31052732.84046  20001221.6174                   20001219.2704
 -26269582.81247 -20440063.91445  22528579.4144                   22528578.9144
 -25184622.05148 -19590958.15246  21224336.3054                   21224332.4104
 11  7 27  0 47 30.0000000  0  8G28G10G12G17G09G04G27G02
 -48168775.30147 -37524640.75444  22850385.6884                   22850384.1804
 -16463245.96947 -12819809.48045  22074675.2194                   22074673.9774
  -5514832.02347  -4269519.88744  23462412.3364                   23462409.8324
 -43031860.12948 -33491110.82846  21886137.4144                   21886135.4694
 -18688965.43447 -14532166.20345  22112846.3364                   22112844.9924
 -39904814.23048 -31060953.61346  19999213.8444                   19999212.1524
 -26281140.72747 -20449070.09045  22526379.9224                   22526379.4414
 -25277284.78948 -19663162.84846  21206702.8364                   21206698.7734
 11  7 27  0 48  0.0000000  0  8G28G10G12G17G09G04G27G02
 -48128244.23447 -37493058.15244  22858098.5004                   22858097.7034
 -16582654.45347 -12912854.99245  22051952.8204                   22051951.9024
  -5650510.19147  -4375243.09444  23436593.1724                   23436591.6174
 -43033896.02747 -33492697.25846  21885749.7274                   21885747.9264
 -18703432.89847 -14543439.56245  22110093.2814                   22110091.5044
 -39914857.55948 -31068779.58246  19997302.8674                   19997300.9734
 -26292251.59047 -20457727.92245  22524265.6174                   22524264.9964
 -25369550.38348 -19735058.07846  21189145.5314                   21189141.5744
 11  7 27  0 48 30.0000000  0  8G28G10G12G17G09G04G27G02
 -48087342.69547 -37461186.88344  22865882.1024                   22865880.2664
 -16701688.32047 -13005608.60945  22029301.1644                   22029300.6884
  -5786040.36347  -4480850.99244  23410802.2274                   23410801.2544
 -43035788.74648 -33494172.12946  21885390.1254                   21885387.6484
 -18717270.57047 -14554222.19545  22107460.1024                   22107458.9804
 -39924378.14148 -31076198.22746  19995491.0634                   19995489.4694
 -26302899.44147 -20466024.96945  22522239.4924                   22522239.2114
 -25461400.75448 -19806629.77346  21171666.7734                   21171662.7384
 11  7 27  0 49  0.0000000  0  8G28G10G12G17G09G04G27G02
 -48046084.36747 -37429037.59044  22873733.0234                   22873731.6564
 -16820356.16847 -13098077.01645  22006719.5554                   22006718.4344
  -5921432.34047  -4586351.19544  23385038.1334                   23385037.2344
 -43037550.26248 -33495544.76646  21885054.7504                   21885052.2734
 -18730492.51247 -14564525.03545  22104944.4144                   22104942.9884
 -39933390.34848 -31083220.72746  19993776.0004                   19993774.2624
 -26313098.27747 -20473972.12945  22520298.4064                   22520297.7624
 -25552847.98048 -19877887.32446  21154264.9844                   21154260.8444
 11  7 27  0 49 30.0000000  0  8G28G10G12G17G09G04G27G02
 -48004462.41847 -37396604.96544  22881653.0944                   22881652.6294
 -16938647.10547 -13190251.71545  21984209.1174                   21984208.0904
  -6056676.62547  -4691736.32444  23359302.5004                   23359300.0004
 -43039172.36748 -33496808.76246  21884746.4304                   21884743.7154
 -18743092.88347 -14574343.52045  22102545.8674                   22102545.4654
 -39941888.29348 -31089842.50446  19992158.8834                   19992157.5204
 -26322842.31647 -20481564.90645  22518444.2504                   22518443.8674
 -25643883.78948 -19948824.28146  21136941.5314                   21136937.8014
 11  7 27  0 50  0.0000000  0  8G28G10G12G17G09G04G27G02
 -47962481.49247 -37363892.62944  22889642.2584                   22889641.3484
 -17056561.09847 -13282132.69145  21961771.2034                   21961770.1644
  -6191774.08647  -4797007.05544  23333594.1564                   23333591.9614
 -43040658.05147 -33497966.45346  21884463.3834                   21884460.7814
 -18755076.66447 -14583681.55145  22100265.8674                   22100264.8204
 -39949877.18048 -31096067.60546  19990638.9064                   19990636.9454
 -26332136.55547 -20488807.18745  22516675.1884                   22516675.3594
 -25734511.25448 -20019443.05946  21119695.7504                   21119691.7704
 11  7 27  0 50 30.0000000  0  8G28G10G12G17G09G04G27G02
 -47920154.06647 -37330910.25044  22897696.6954                   22897695.2424
 -17174106.53147 -13373726.47345  21939402.6174                   21939402.4304
  -6326733.57047  -4902170.22344  23307912.0864                   23307909.9064
 -43042018.24247 -33499026.35545  21884204.4144                   21884202.5084
 -18766457.02347 -14592549.37545  22098100.4614                   22098099.2704
 -39957370.18448 -31101906.30546  19989213.2504                   19989210.5084
 -26340993.93747 -20495709.05145  22514990.1254                   22514989.5744
 -25824741.35248 -20089752.19946  21102525.4064                   21102521.3834
 11  7 27  0 51  0.0000000  0  8G28G10G12G17G09G04G27G02
 -47877465.65247 -37297646.61744  22905820.5084                   22905818.9494
 -17291264.07447 -13465018.02745  21917108.4224                   21917107.7074
  -6461536.56647  -5007211.48045  23282259.8364                   23282257.6724
 -43043237.18448 -33499976.21145  21883972.5474                   21883970.1954
 -18777220.55147 -14600936.56645  22096052.5004                   22096051.3324
 -39964353.55148 -31107347.88746  19987883.9454                   19987881.7734
 -26349400.57447 -20502259.71945  22513390.4694                   22513389.3324
 -25914557.81648 -20159739.02746  21085433.8284                   21085429.7854
 11  7 27  0 51 30.0000000  0  8G28G10G12G17G09G04G27G02
 -47834417.14147 -37264102.39144  22914012.3834                   22914011.5944
 -17408030.48847 -13556004.79745  21894888.5084                   21894887.4144
  -6596181.44547  -5112129.50444  23256637.5944                   23256635.6414
 -43044313.94947 -33500815.27746  21883767.6254                   21883765.6914
 -18787368.92247 -14608844.39845  22094120.8054                   22094119.8954
 -39970828.92648 -31112393.63746  19986651.9844                   19986649.9064
 -26357358.09047 -20508460.38745  22511876.3364                   22511875.4384
 -26003960.17648 -20229403.17646  21068420.9844                   21068416.8284
 11  7 27  0 52  0.0000000  0  8G28G10G12G17G09G04G27G02
 -47791010.44147 -37230279.03544  22922272.2974                   22922271.2194
 -17524402.64547 -13646684.33645  21872743.7034                   21872742.4494
  -6730666.02346  -5216922.59944  23231046.0004                   23231044.3594
 -43045248.82048 -33501543.77346  21883589.6954                   21883588.0784
 -18796904.65247 -14616274.85245  22092306.1564                   22092305.8204
 -39976798.68748 -31117045.39146  19985515.8134                   19985513.8834
 -26364868.67647 -20514312.80545  22510447.0394                   22510446.4224
 -26092948.54348 -20298744.73046  21051487.3594                   21051483.4224
 11  7 27  0 52 30.0000000  0  8G28G10G12G17G09G04G27G02
 -47747260.40647 -37196188.17244  22930598.1024                   22930596.5944
 -17640391.28947 -13737065.05945  21850671.6724                   21850670.6564
  -6865001.74647  -5321599.75845  23205482.6564                   23205481.1954
 -43046055.44547 -33502172.34846  21883436.4384                   21883434.5164
 -18805842.93747 -14623239.77745  22090605.7894                   22090604.5274
 -39982278.54748 -31121315.42246  19984472.9224                   19984471.0044
 -26371947.89147 -20519829.12545  22509100.0314                   22509099.4734
 -26181536.20348 -20367774.05946  21034629.4774                   21034625.3674
 11  7 27  0 53  0.0000000  0  9G28G10G12G17G09G05G04G27G02
 -47703179.71147 -37161839.62544  22938985.4614                   22938985.2664
 -17756004.50847 -13827153.23045  21828671.1174                   21828669.7624
  -6999197.55147  -5426167.85244  23179946.3524                   23179943.9694
 -43046744.81247 -33502709.53945  21883305.1254                   21883302.8134
 -18814197.68447 -14629749.98045  22089015.5784                   22089014.5594
   2937796.74656   2317880.31653  24527435.7424                   24527437.0434
 -39987281.98448 -31125214.20746  19983520.8134                   19983519.0164
 -26378609.19947 -20525019.76245  22507832.2974                   22507831.7974
 -26269734.71948 -20436500.14146  21017845.9224                   21017841.9804
 11  7 27  0 53 30.0000000  0  9G28G10G12G17G09G05G04G27G02
 -47658757.86747 -37127225.27744  22947439.4844                   22947438.4384
 -17871226.84847 -13916936.82445  21806744.8204                   21806744.1294
  -7133239.25447  -5530615.89144  23154439.1484                   23154437.0474
 -43047304.48047 -33503145.66045  21883198.6954                   21883196.5594
 -18821958.96147 -14635797.73445  22087539.0944                   22087537.9804
   2792342.12146   2204539.31343  24499755.6254                   24499758.2664
 -39991799.15248 -31128734.08646  19982661.5004                   19982659.2624
 -26384842.22747 -20529876.71145  22506646.5944                   22506646.1374
 -26357531.46948 -20504913.17246  21001138.6644                   21001134.5164
 11  7 27  0 54  0.0000000  0  9G28G10G12G17G09G05G04G27G02
 -46038570.48847 -35864741.66844  23255750.4614                   23255749.8324
 -16410624.41047 -12778805.00845  22084688.2114                   22084687.1844
  -5691693.09047  -4407333.12144  23428756.2814                   23428753.0084
 -41472306.98448 -32275874.89845  22182910.8204                   22182908.3984
 -17253701.71147 -13413779.11345  22385968.2504                   22385967.6644
   4222269.37546   3318768.63343  24771861.8984                   24771863.7194
 -38420404.39848 -29904270.63746  20281688.1564                   20281685.5594
 -24815221.73447 -19306795.84045  22805334.9384                   22805334.8324
 -24869496.58648 -19345405.44546  21284302.4534                   21284298.1914
 11  7 27  0 54 30.0000000  0  9G28G10G12G17G09G05G04G27G02
 -45993447.16047 -35829580.69543  23264337.1724                   23264336.5784
 -16525033.28147 -12867954.73045  22062916.8914                   22062916.0594
  -5825397.01647  -4511517.93444  23403312.6484                   23403310.7664
 -41472583.47747 -32276090.36345  22182858.2114                   22182856.2814
 -17260259.66847 -13418889.22345  22384720.1954                   22384719.3244
   4076740.00846   3205369.41043  24744168.1484                   24744170.4184
 -38423931.78548 -29907019.25046  20281016.5944                   20281014.6254
 -24820581.37547 -19310972.22745  22804315.3364                   22804314.7154
 -24956466.52048 -19413174.19946  21267752.1484                   21267748.4774
 11  7 27  0 55  0.0000000  0  9G28G10G12G17G09G05G04G27G02
 -45947991.07047 -35794160.41444  23272986.6884                   23272986.1484
 -16639046.21147 -12956795.92645  22041221.3834                   22041219.7664
  -5958944.05147  -4615580.50444  23377899.4304                   23377897.5274
 -41472733.66847 -32276207.41445  22182829.7734                   22182827.7704
 -17266234.80147 -13423545.18445  22383583.4064                   22383582.1484
   3931161.53146   3091931.89843  24716465.4694                   24716467.5124
 -38426983.16848 -29909396.95346  20280435.9534                   20280434.0274
 -24825522.93447 -19314822.83245  22803375.1954                   22803374.6134
 -25043038.51648 -19480632.87546  21251278.3134                   21251274.4064
 11  7 27  0 55 30.0000000  0  9G28G10G12G17G09G05G04G27G02
 -45902201.25047 -35758480.10244  23281700.8914                   23281699.7974
 -16752657.93747 -13045324.49645  22019601.3594                   22019600.5434
  -6092329.79747  -4719517.37545  23352517.7424                   23352515.2974
 -41472755.07047 -32276224.11745  22182825.7974                   22182823.4734
 -17271627.44947 -13427747.27045  22382556.9924                   22382556.0904
   3785538.92246   2978460.01243  24688753.2504                   24688755.4144
 -38429558.35948 -29911403.60246  20279945.8674                   20279944.2734
 -24830045.95747 -19318347.30145  22802514.4694                   22802513.4184
 -25129210.27348 -19547779.67646  21234880.2034                   21234876.3554
 11  7 27  0 56  0.0000000  0  9G28G10G12G17G09G05G04G27G02
 -45856088.14547 -35722547.85944  23290475.4454                   23290474.8714
 -16865874.30547 -13133544.98845  21998057.3524                   21998055.9774
  -6225561.00447  -4823333.86745  23327164.3364                   23327162.6334
 -41472656.30948 -32276147.18045  22182843.8524                   22182842.2154
 -17276448.44947 -13431503.90245  22381639.9774                   22381638.5354
   3639865.84046   2864948.77743  24661033.1174                   24661034.5514
 -38431668.42648 -29913047.81646  20279544.5704                   20279542.5704
 -24834161.51647 -19321554.27745  22801731.9224                   22801730.9924
 -25214990.64848 -19614621.51246  21218556.9454                   21218552.8204
 11  7 27  0 56 30.0000000  0  9G28G10G12G17G09G05G04G27G02
 -45809628.15647 -35686345.30943  23299316.6334                   23299315.6414
 -16978667.05147 -13221435.40245  21976593.3594                   21976592.1214
  -6358610.65247  -4927008.87545  23301845.6024                   23301843.9384
 -41472412.11348 -32275956.92645  22182891.0004                   22182888.7544
 -17280675.35947 -13434797.61345  22380835.9694                   22380834.6174
   3494169.58246   2751419.48443  24633308.3594                   24633310.1564
 -38433290.61348 -29914311.86346  20279235.7974                   20279234.0634
 -24837846.66847 -19324425.87545  22801030.0634                   22801029.0164
 -25300354.24248 -19681138.57046  21202313.0944                   21202308.4804
 11  7 27  0 57  0.0000000  0  9G28G10G12G17G09G05G04G27G02
 -45762839.70347 -35649886.82444  23308221.3364                   23308219.4964
 -17091049.89847 -13309006.40645  21955207.9384                   21955206.4694
  -6491492.92647  -5030553.48844  23276559.1954                   23276556.0824
 -41472038.69948 -32275665.97345  22182962.1564                   22182959.3484
 -17284327.18447 -13437643.20345  22380140.5784                   22380139.6174
   3348435.92646   2637861.07044  24605576.0314                   24605578.4494
 -38434443.83248 -29915210.48446  20279016.1414                   20279014.3244
 -24841120.44947 -19326976.91045  22800406.7584                   22800406.3954
 -25385317.94548 -19747344.02046  21186144.4924                   21186140.9224
 11  7 27  0 57 30.0000000  0  9G28G10G12G17G09G05G04G27G02
 -45715721.09047 -35613171.05544  23317186.8524                   23317185.9774
 -17203017.02047 -13396253.46145  21933900.9774                   21933899.4344
  -6624202.84047  -5133963.77044  23251304.2344                   23251302.2304
 -41471533.51648 -32275272.33245  22183058.1174                   22183055.5864
 -17287403.39547 -13440040.27345  22379554.9304                   22379554.0204
   3202670.13746   2524277.57844  24577837.3674                   24577839.1764
 -38435127.48448 -29915743.20746  20278886.1724                   20278884.1764
 -24843981.91447 -19329206.67645  22799862.6024                   22799862.0744
 -25469878.57048 -19813235.40246  21170053.4454                   21170049.4494
 11  7 27  0 58  0.0000000  0  9G28G10G12G17G09G05G04G27G02
 -45668263.96947 -35576191.52044  23326218.1334                   23326216.2854
 -17314555.55147 -13483166.57445  21912675.5634                   21912674.3244
  -6756727.98847  -5237230.09445  23226086.2974                   23226083.9304
 -41470886.12148 -32274767.88745  22183181.3914                   22183179.2234
 -17289896.55947 -13441983.02045  22379079.8834                   22379080.1994
   3056884.85246   2410678.88344  24550095.3834                   24550096.7974
 -38435333.62148 -29915903.84046  20278846.9694                   20278844.8404
 -24846423.34847 -19331109.14145  22799398.8984                   22799396.8714
 -25554026.57848 -19878805.25046  21154040.3984                   21154036.7234
 11  7 27  0 58 30.0000000  0  9G28G10G12G17G09G05G04G27G02
 -45620484.76647 -35538961.00444  23335310.8134                   23335309.2034
 -17425676.87547 -13569754.57845  21891530.2274                   21891528.6884
  -6889080.67247  -5340362.03545  23200900.7034                   23200897.4884
 -41470110.70747 -32274163.68745  22183329.0634                   22183326.6134
 -17291823.61347 -13443484.63745  22378714.5314                   22378713.3094
   2911068.14846   2297055.71944  24522346.8524                   24522348.7464
 -38435079.03148 -29915705.45746  20278895.5944                   20278893.7504
 -24848461.27047 -19332697.17245  22799010.2344                   22799009.2734
 -25637776.37148 -19944064.80146  21138103.6254                   21138099.5864
 11  7 27  0 59  0.0000000  0  9G28G10G12G17G09G05G04G27G02
 -45572372.14547 -35501470.69544  23344466.0004                   23344464.5664
 -17536365.56647 -13656005.46145  21870466.6564                   21870465.0824
  -7021245.96947  -5443347.96545  23175750.7734                   23175748.2424
 -41469194.36747 -32273449.68745  22183503.4064                   22183501.0664
 -17293174.19947 -13444537.05945  22378457.3204                   22378455.8524
   2765235.30146   2183419.94544  24494596.0704                   24494597.4614
 -38434353.35548 -29915139.99646  20279033.2504                   20279031.2704
 -24850085.30947 -19333962.70744  22798701.2424                   22798701.0704
 -25721115.07048 -20009004.02346  21122244.2664                   21122240.5744
 11  7 27  0 59 30.0000000  0  9G28G10G12G17G09G05G04G27G02
 -45523935.52047 -35463727.91444  23353683.3594                   23353681.6644
 -17646626.19547 -13741922.80145  21849484.7274                   21849483.2074
  -7153229.70747  -5546192.39845  23150634.4224                   23150632.7424
 -41468144.86347 -32272631.90645  22183702.9224                   22183700.8634
 -17293958.78947 -13445148.45745  22378308.1334                   22378306.6454
   2619380.64146   2069767.17244  24466840.5164                   24466842.1334
 -38433166.68048 -29914215.32446  20279259.3134                   20279257.4264
 -24851305.48447 -19334913.55945  22798469.3984                   22798468.1054
 -25804051.22348 -20073629.56246  21106462.2504                   21106458.3444
 11  7 27  1  0  0.0000000  0  9G28G10G12G17G09G05G04G27G02
 -45475183.00846 -35425738.96943  23362960.3914                   23362959.1054
 -17756462.39547 -13827509.40645  21828583.6094                   21828582.0594
  -7285036.03947  -5648898.59845  23125552.3204                   23125550.6094
 -41466968.25447 -32271715.09445  22183926.8444                   22183924.7734
 -17294186.53147 -13445325.94145  22378264.7504                   22378263.3444
   2473500.26646   1956094.34044  24439080.3364                   24439081.8094
 -38431527.80948 -29912938.29346  20279571.0554                   20279569.0984
 -24852130.61347 -19335556.56645  22798312.4924                   22798310.8444
 -25886590.49248 -20137945.85546  21090755.5394                   21090751.4104
 11  7 27  1  0 30.0000000  0  9G28G10G12G17G09G05G04G27G02
 -45426106.24646 -35387497.41044  23372299.1094                   23372298.4304
 -17865861.17647 -13912755.17245  21807765.5634                   21807764.2734
  -7416652.47347  -5751456.83245  23100506.3524                   23100505.1414
 -41465654.55148 -32270691.45745  22184177.0394                   22184174.8634
 -17293849.93047 -13445063.69545  22378328.5554                   22378328.5084
   2327606.83246   1842411.35244  24411316.8364                   24411319.0594
 -38429429.00448 -29911302.86746  20279970.5704                   20279968.7384
 -24852552.91447 -19335885.68045  22798231.5394                   22798230.8204
 -25968723.43448 -20201945.53146  21075126.0084                   21075122.1804
 11  7 27  1  1  0.0000000  0  9G28G10G12G17G09G05G04G27G02
 -45376695.16046 -35348995.32044  23381701.3444                   23381701.5084
 -17974807.81247 -13997648.61345  21787033.6954                   21787032.8054
  -7548065.28947  -5853856.41445  23075499.3984                   23075497.0354
 -41464191.50848 -32269551.43445  22184455.2504                   22184452.9804
 -17292939.66047 -13444354.42245  22378502.2734                   22378501.7734
   2181714.81646   1728729.47344  24383554.5864                   24383555.8364
 -38426860.75848 -29909301.63346  20280459.3204                   20280457.2384
 -24852562.68447 -19335893.34445  22798230.8834                   22798229.7034
 -26050438.07848 -20265619.25046  21059576.3444                   21059572.2274
 11  7 27  1  1 30.0000000  0  9G28G10G12G17G09G05G04G27G02
 -45326961.66046 -35310241.99244  23391165.7034                   23391165.1684
 -18083310.01647 -14082195.73445  21766386.3674                   21766385.2624
  -7679282.43047  -5956103.53945  23050530.0474                   23050527.0124
 -41462589.19548 -32268302.89845  22184760.5084                   22184757.7854
 -17291468.82847 -13443208.34445  22378782.0314                   22378781.4924
   2035816.00846   1615042.31343  24355790.5864                   24355792.8244
 -38423835.89148 -29906944.59846  20281034.7194                   20281033.2344
 -24852172.65247 -19335589.48845  22798303.9224                   22798303.8324
 -26131745.21548 -20328975.42646  21044104.1254                   21044100.3014
 11  7 27  1  2  0.0000000  0  9G28G10G12G17G09G05G04G27G02
 -45276909.84846 -35271240.64844  23400690.4534                   23400689.5434
 -18191367.16848 -14166396.05945  21745823.8204                   21745822.6134
  -7810303.81247  -6058198.10245  23025597.7344                   23025595.5904
 -41460849.89148 -32266947.61745  22185090.9774                   22185088.8834
 -17289442.18447 -13441629.19145  22379167.5944                   22379167.0594
   1889911.21146   1501350.48444  24328025.6644                   24328028.1094
 -38420358.77748 -29904235.16446  20281696.3284                   20281694.5124
 -24851387.34847 -19334977.61745  22798454.1484                   22798453.4694
 -26212647.32448 -20392016.00446  21028708.8524                   21028705.0084
 11  7 27  1  2 30.0000000  0  9G28G10G12G17G09G05G04G27G02
 -45226541.84446 -35231992.91044  23410275.4454                   23410274.4844
 -18298976.86348 -14250247.72345  21725346.4384                   21725344.9454
  -7941127.95347  -6160138.96545  23000702.4224                   23000700.3164
 -41458973.67247 -32265485.64845  22185447.9924                   22185445.9774
 -17286862.94947 -13439619.43045  22379658.5554                   22379658.0704
   1744001.92646   1387655.18843  24300259.6024                   24300262.0904
 -38416432.31648 -29901175.58646  20282443.5234                   20282441.6134
 -24850209.44547 -19334059.82045  22798677.6174                   22798678.0904
 -26293144.69548 -20454741.20346  21013390.8754                   21013386.8484
 11  7 27  1  3  0.0000000  0  9G28G10G12G17G09G05G04G27G02
 -45175863.09447 -35192503.03944  23419919.3754                   23419918.4694
 -18406139.96547 -14333751.39545  21704954.0944                   21704952.5354
  -8071756.45347  -6261927.33645  22975844.3914                   22975842.6024
 -41456964.18447 -32263919.82446  22185830.8754                   22185828.8094
 -17283737.75447 -13437184.24645  22380253.2504                   22380252.8204
   1598087.18046   1273955.60944  24272493.9534                   24272494.9344
 -38412062.82448 -29897770.78546  20283275.2664                   20283273.6334
 -24848645.29347 -19332841.07045  22798975.6334                   22798975.5474
 -26373241.48448 -20517154.25846  20998148.9614                   20998145.0514
 11  7 27  1  3 30.0000000  0  9G28G10G12G17G09G05G04G27G02
 -45124872.62147 -35152770.25443  23429622.4224                   23429621.5704
 -18512850.67647 -14416902.55145  21684647.5314                   21684646.1374
  -8202183.84447  -6363559.03145  22951024.6334                   22951023.0314
 -41454818.26247 -32262247.69545  22186239.1724                   22186237.0824
 -17280066.40647 -13434323.50445  22380951.6804                   22380951.4734
   1452172.08246   1160255.73843  24244726.3834                   24244728.4654
 -38407249.69148 -29894020.28946  20284191.2424                   20284189.2274
 -24846694.28947 -19331320.87545  22799347.1334                   22799346.5044
 -26452935.21148 -20579253.24246  20982983.5634                   20982979.8874
 11  7 27  1  4  0.0000000  0  9G28G10G12G17G09G05G04G27G02
 -45073569.10946 -35112793.53143  23439385.1094                   23439383.8914
 -18619103.16847 -14499696.64545  21664428.3984                   21664426.8484
  -8332404.92247  -6465029.95745  22926244.6954                   22926242.4414
 -41452533.12547 -32260467.08645  22186673.8594                   22186671.7274
 -17275848.63747 -13431036.96945  22381753.8204                   22381753.4614
   1306262.45346   1046560.17643  24216961.1024                   24216961.5004
 -38401992.45748 -29889923.74246  20285191.6724                   20285189.8984
 -24844355.91847 -19329498.80945  22799791.8054                   22799791.5784
 -26532222.83648 -20641035.78146  20967895.8834                   20967891.7934
 11  7 27  1  4 30.0000000  0  9G28G10G12G17G09G05G04G27G02
 -45021958.41446 -35072577.43443  23449206.9064                   23449204.6294
 -18724898.32047 -14582134.37145  21644295.9304                   21644294.6484
  -8462421.49247  -6566341.55945  22901503.5084                   22901501.3754
 -41450111.86347 -32258580.39545  22187134.5474                   22187132.6414
 -17271091.01247 -13427329.77345  22382659.6174                   22382659.1374
   1160356.64146    932867.54743  24189195.6804                   24189196.4694
 -38396297.17648 -29885485.85546  20286275.3914                   20286273.4844
 -24841636.43047 -19327379.77344  22800309.4144                   22800308.5354
 -26611108.32448 -20702504.96946  20952884.4614                   20952880.4454
 11  7 27  1  5  0.0000000  0  9G28G10G12G17G09G05G04G27G02
 -44970026.51246 -35032111.02043  23459088.2974                   23459086.9734
 -18830218.08247 -14664201.67645  21624254.7034                   21624252.9804
  -8592215.60947  -6667479.82445  22876804.5394                   22876802.4144
 -41447538.93747 -32256575.51645  22187624.4304                   22187622.1484
 -17265780.85547 -13423192.02345  22383670.1724                   22383669.4774
   1014472.84846    819192.10244  24161435.3134                   24161435.9264
 -38390150.92248 -29880696.57046  20287444.9924                   20287443.2304
 -24838522.61347 -19324953.46544  22800902.1174                   22800900.9024
 -26689576.76648 -20763649.18746  20937952.1334                   20937948.6054
 11  7 27  1  5 30.0000000  0  9G28G10G12G17G09G05G04G27G02
 -44917784.82046 -34991403.21543  23469030.3524                   23469028.7814
 -18935069.43447 -14745903.97745  21604301.9694                   21604300.1994
  -8721794.96547  -6768450.72745  22852146.0164                   22852144.1454
 -41444823.53148 -32254459.62545  22188141.0314                   22188138.8594
 -17259930.57047 -13418633.40645  22384783.4064                   22384783.2704
    868604.00847    705528.27044  24133676.9924                   24133677.5514
 -38383565.54348 -29875565.10946  20288698.1724                   20288696.0554
 -24835026.52047 -19322229.29344  22801567.2034                   22801566.3204
 -26767637.97748 -20824476.07846  20923097.5234                   20923093.7034
 11  7 27  1  6  0.0000000  0  9G28G10G12G17G09G05G04G27G02
 -44865238.32446 -34950457.95743  23479029.3284                   23479028.3284
 -19039452.57047 -14827241.43445  21584438.1254                   21584436.8834
  -8851160.25847  -6869254.78945  22827528.3834                   22827526.4264
 -41441969.10548 -32252235.38745  22188684.3834                   22188682.2664
 -17253546.18047 -13413658.61345  22385998.2194                   22385998.0234
    722749.46947    591875.59844  24105922.0234                   24105922.1054
 -38376546.73448 -29870095.90646  20290033.8134                   20290031.6564
 -24831153.76247 -19319211.58645  22802304.1334                   22802303.6564
 -26845295.26648 -20884988.22746  20908319.8834                   20908315.9574
 11  7 27  1  6 30.0000000  0  9G28G10G12G17G09G05G04G27G02
 -44812387.11346 -34909275.19543  23489087.0314                   23489085.0394
 -19143363.23848 -14908210.73845  21564664.7274                   21564662.6914
  -8980307.35547  -6969888.82045  22802952.8444                   22802950.5984
 -41438973.47747 -32249901.12545  22189254.0394                   22189251.9064
 -17246628.67247 -13408268.39545  22387314.3364                   22387313.9884
    576913.53147    478237.41044  24078169.9614                   24078170.6484
 -38369095.09448 -29864289.42246  20291451.7034                   20291449.3954
 -24826904.77047 -19315900.72745  22803113.2344                   22803112.2624
 -26922547.25448 -20945184.55946  20893619.3134                   20893615.3164
 11  7 27  1  7  0.0000000  0  9G28G10G12G17G09G05G04G27G02
 -44759227.54346 -34867852.16843  23499202.4224                   23499201.0084
 -19246793.07847 -14988805.36745  21544982.4614                   21544981.3984
  -9109228.60547  -7070346.88745  22778420.3524                   22778417.7894
 -41435830.69948 -32247452.19945  22189852.3524                   22189850.1684
 -17239175.48847 -13402460.74645  22388733.1174                   22388732.1994
    431104.23447    364619.98444  24050422.7344                   24050423.8794
 -38361207.59448 -29858143.31246  20292952.6484                   20292950.6024
 -24822276.79747 -19312294.56245  22803994.0634                   22803993.4574
 -26999388.75448 -21005061.03946  20878996.5474                   20878992.9844
 11  7 27  1  7 30.0000000  0  9G28G10G12G17G09G05G04G27G02
 -44705763.36346 -34826191.78543  23509376.7664                   23509375.8524
 -19349741.01247 -15069024.49245  21525392.2894                   21525391.1684
  -9237923.36747  -7170628.49245  22753930.1564                   22753927.7344
 -41432542.23848 -32244889.75445  22190478.0474                   22190475.8954
 -17231191.17247 -13396239.25845  22390252.2504                   22390252.0044
    285322.40647    251023.95744  24022681.4064                   24022682.7504
 -38352888.57048 -29851660.95746  20294535.7034                   20294533.8244
 -24817273.96147 -19308396.28944  22804945.4614                   22804945.6454
 -27075821.40248 -21064618.93046  20864452.0474                   20864448.4344
 11  7 27  1  8  0.0000000  0  9G28G10G12G17G09G05G04G27G02
 -44652001.44146 -34784299.39843  23519606.7734                   23519606.5904
 -19452209.56247 -15148870.06645  21505892.8444                   21505891.6294
  -9366394.60947  -7270735.91845  22729483.2504                   22729480.1954
 -41429113.16047 -32242217.74245  22191130.7894                   22191128.8054
 -17222684.10247 -13389610.41845  22391871.3834                   22391870.8014
    139565.68447    137447.48044  23994944.0004                   23994945.5634
 -38344145.41048 -29844848.10946  20296199.5474                   20296197.6684
 -24811903.99247 -19304211.95344  22805968.1804                   22805967.3164
 -27151851.14548 -21123862.86346  20849984.1024                   20849980.3834
 11  7 27  1  8 30.0000000  0  9G28G10G12G17G09G05G04G27G02
 -44597945.08646 -34742177.59843  23529893.6254                   23529892.7074
 -19554197.82847 -15228341.39845  21486485.2034                   21486484.2274
  -9494641.82447  -7370668.77045  22705077.7504                   22705075.8554
 -41425545.11348 -32239437.43445  22191809.5784                   22191807.6214
 -17213658.71147 -13382577.71145  22393588.9144                   22393588.6724
     -6165.35247     23891.01244  23967212.8134                   23967213.9574
 -38334982.29748 -29837708.03146  20297943.1564                   20297941.2234
 -24806170.94947 -19299744.70344  22807058.9774                   22807058.6294
 -27227479.89548 -21182794.34446  20835592.4064                   20835588.6214
 11  7 27  1  9  0.0000000  0  9G28G10G12G17G09G05G04G27G02
 -44543589.87546 -34699822.91443  23540236.7894                   23540236.2774
 -19655696.92247 -15307431.55145  21467170.7424                   21467169.5554
  -9622655.97347  -7470420.00045  22680717.8284                   22680715.8794
 -41421831.13348 -32236543.41445  22192516.2504                   22192514.4774
 -17204111.41447 -13375138.28545  22395405.5634                   22395404.7974
   -151861.54747    -89638.30544  23939487.4304                   23939488.5864
 -38325395.46548 -29830237.77746  20299767.7344                   20299765.6334
 -24800070.73447 -19294991.34044  22808219.5394                   22808219.5434
 -27302701.49248 -21241408.55146  20821278.1724                   20821274.1884
 11  7 27  1  9 30.0000000  0  9G28G10G12G17G09G05G04G27G02
 -44488939.04346 -34657237.90243  23550637.1094                   23550636.1374
 -19756705.04747 -15386139.12945  21447949.4924                   21447947.8954
  -9750436.24247  -7569988.99245  22656402.5554                   22656400.4574
 -41417972.33647 -32233536.54745  22193250.5474                   22193248.7584
 -17194046.39147 -13367295.45745  22397321.2344                   22397319.8444
   -297521.59846   -203139.46944  23911768.4694                   23911769.9774
 -38315388.28148 -29822439.96946  20301671.7274                   20301670.0004
 -24793607.46147 -19289955.07844  22809449.7034                   22809449.3324
 -27377517.57048 -21299706.77746  20807041.0314                   20807037.1294
 11  7 27  1 10  0.0000000  0  9G28G10G12G17G09G05G04G27G02
 -44433980.72746 -34614413.25843  23561094.8444                   23561094.2464
 -19857205.96547 -15464451.48445  21428824.6644                   21428822.9844
  -9877966.85247  -7669363.44145  22632133.8984                   22632132.0164
 -41413954.71148 -32230405.91445  22194015.3524                   22194012.7424
 -17183452.87947 -13359040.82045  22399336.9774                   22399336.3324
   -443129.06246   -316599.68444  23884060.4144                   23884061.6454
 -38304949.73848 -29814306.04346  20303657.9144                   20303656.4224
 -24786769.69147 -19284627.00845  22810750.8204                   22810750.3674
 -27451914.59048 -21357678.46146  20792883.8524                   20792879.5784
 11  7 27  1 10 30.0000000  0  9G28G10G12G17G09G05G04G27G02
 -44378727.09846 -34571358.53143  23571609.1954                   23571608.6484
 -19957207.12548 -15542374.41445  21409795.0314                   21409793.7624
 -10005255.18047  -7768549.10245  22607911.6254                   22607909.3094
 -41409787.77348 -32227158.94145  22194807.9224                   22194805.8054
 -17172344.06247 -13350384.64845  22401450.7584                   22401450.1174
   -588691.78947   -430025.00444  23856361.5394                   23856361.7344
 -38294092.21548 -29805845.63746  20305724.1254                   20305722.0314
 -24779570.17247 -19279017.04744  22812120.7894                   22812120.4264
 -27525903.40648 -21415332.06246  20778804.2974                   20778799.8404
 11  7 27  1 11  0.0000000  0  9G28G10G12G17G09G05G04G27G02
 -44323189.47346 -34528082.50843  23582178.2814                   23582177.1414
 -20056715.34047 -15619913.23845  21390859.1884                   21390857.6804
 -10132308.58647  -7867551.69545  22583734.3364                   22583731.9454
 -41405481.53948 -32223803.44145  22195627.3364                   22195625.3754
 -17160732.57847 -13341336.76645  22403661.0004                   22403659.5314
   -734216.41047   -543420.68044  23828668.6484                   23828668.0044
 -38282827.79348 -29797068.16046  20307868.0554                   20307865.8954
 -24772021.00447 -19273134.64544  22813557.3834                   22813557.1134
 -27599493.83248 -21472675.23046  20764800.4224                   20764796.3014
 11  7 27  1 11 30.0000000  0  9G28G10G12G17G09G05G04G27G02
 -44267359.21146 -34484578.43443  23592801.7114                   23592801.6414
 -20155717.93047 -15697058.06645  21372019.4064                   21372017.6954
 -10259114.29747  -7966361.30145  22559603.1564                   22559601.1724
 -41401024.90647 -32220330.74645  22196475.2894                   22196473.2154
 -17148610.82847 -13331891.28545  22405967.1564                   22405965.7664
   -879690.07847   -656776.65244  23800985.1954                   23800985.5474
 -38271148.62148 -29787967.50846  20310090.4844                   20310088.7194
 -24764114.33247 -19266973.65644  22815062.0234                   22815061.1054
 -27672675.62148 -21529699.97346  20750874.5004                   20750870.7234
 11  7 27  1 12  0.0000000  0  9G28G10G12G17G09G05G04G27G02
 -44211242.91046 -34440851.46943  23603480.7974                   23603479.7384
 -20254216.81247 -15773810.39145  21353275.8054                   21353273.9614
 -10385674.82847  -8064979.84845  22535519.6724                   22535517.8794
 -41396422.19547 -32216744.22745  22197350.9384                   22197349.3324
 -17135986.66847 -13322054.31245  22408369.9774                   22408368.4574
  -1025114.72747   -770094.41844  23773312.4384                   23773312.4264
 -38259061.90648 -29778549.28946  20312390.1954                   20312388.3244
 -24755857.47747 -19260539.79344  22816633.2734                   22816632.9264
 -27745454.23048 -21586410.54346  20737024.7344                   20737020.5634
 11  7 27  1 12 30.0000000  0  9G28G10G12G17G09G05G04G27G02
 -44154841.28146 -34396902.17643  23614213.9304                   23614212.9414
 -20352207.93047 -15850167.06245  21334628.8984                   21334626.9804
 -10511986.43447  -8163404.43045  22511483.9614                   22511481.2934
 -41391672.00047 -32213042.78145  22198255.3444                   22198253.0634
 -17122861.57047 -13311827.00045  22410867.2034                   22410865.7704
  -1170486.53147   -883371.01244  23745648.8444                   23745649.0944
 -38246568.64848 -29768814.28146  20314767.8284                   20314765.6764
 -24747251.62147 -19253834.00844  22818271.0474                   22818270.6454
 -27817828.39548 -21642805.97346  20723252.7814                   20723248.5124
 11  7 27  1 13  0.0000000  0  9G28G10G12G17G09G05G04G27G02
 -44098146.09446 -34352724.15243  23625002.5164                   23625001.8404
 -20449678.49247 -15926118.10245  21316080.5554                   21316078.8164
 -10638036.44147  -8261625.17245  22487496.8914                   22487494.6294
 -41386763.81247 -32209218.22745  22199189.0314                   22199186.8954
 -17109228.42647 -13301203.79745  22413461.6024                   22413460.0984
  -1315792.52047   -996596.32444  23717997.5004                   23717997.7814
 -38233661.06648 -29758756.43446  20317224.0784                   20317221.8794
 -24738288.77347 -19246850.03544  22819976.8594                   22819975.5984
 -27889788.27748 -21698878.57446  20709559.3444                   20709554.9534
 11  7 27  1 13 30.0000000  0  9G28G10G12G17G09G05G04G27G02
 -44041174.05546 -34308330.36343  23635843.9064                   23635843.0314
 -20546640.96548 -16001673.23046  21297629.3524                   21297627.9144
 -10763837.32047  -8359651.77745  22463557.8204                   22463555.8164
 -41381711.87147 -32205281.65645  22200150.8524                   22200148.5164
 -17095105.36347 -13290198.85945  22416149.5864                   22416147.5274
  -1461044.82847  -1109779.82844  23690357.2974                   23690357.3524
 -38220356.54348 -29748389.26646  20319755.9534                   20319753.8524
 -24728986.68047 -19239601.70744  22821746.9614                   22821746.0784
 -27961349.55948 -21754640.59846  20695941.8284                   20695937.5124
 11  7 27  1 14  0.0000000  0  9G28G10G12G17G09G05G04G27G02
 -42408495.75446 -33036113.53543  23946532.2424                   23946531.5394
 -19067656.24648 -14849217.55545  21579070.5004                   21579069.1844
  -9313949.50047  -7229869.01645  22739462.0474                   22739460.0904
 -39801083.00447 -30973622.80545  22500934.0864                   22500932.3984
 -15505062.60947 -12051204.52345  22718724.2274                   22718722.7234
    -30802.26247      4695.05144  23962523.1804                   23962523.3244
 -36631224.85548 -28510104.81646  20622157.4384                   20622155.2584
 -23143914.92247 -18004480.93044  23123376.1024                   23123375.5164
 -26457076.92648 -20582480.07446  20982194.8754                   20982191.2504
 11  7 27  1 14 30.0000000  0  9G28G10G12G17G09G05G04G27G02
 -42350958.88746 -32991279.65243  23957480.6094                   23957480.4534
 -19163577.85248 -14923961.60945  21560817.3444                   21560815.8404
  -9439228.69547  -7327489.12145  22715622.1564                   22715620.0124
 -39795726.28948 -30969448.74645  22501953.3524                   22501951.5664
 -15489951.87947 -12039429.97345  22721599.5784                   22721598.8484
   -175922.43047   -108385.45744  23934907.1954                   23934907.9414
 -36617117.08248 -28499111.74646  20624842.1484                   20624840.1994
 -23133925.24247 -17996696.82444  23125277.3054                   23125276.5704
 -26527825.12548 -20637608.52346  20968732.2114                   20968728.2974
 11  7 27  1 15  0.0000000  0  9G28G10G12G17G09G05G04G27G02
 -42293149.41046 -32946233.32843  23968481.9614                   23968481.3324
 -19258982.47748 -14998302.82446  21542662.6174                   21542661.3524
  -9564250.49647  -7424908.69545  22691831.8444                   22691829.4024
 -39790223.62947 -30965160.97345  22503001.0394                   22502998.6804
 -15474359.28947 -12027279.94945  22724567.0394                   22724565.5274
   -320979.69547   -221416.96544  23907303.7974                   23907304.6724
 -36602618.52748 -28487814.16846  20627600.9224                   20627598.8834
 -23123602.96547 -17988653.58244  23127241.0784                   23127240.9224
 -26598174.54348 -20692426.22746  20955345.2034                   20955341.1374
 11  7 27  1 15 30.0000000  0  9G28G10G12G17G09G05G04G27G02
 -42235075.40646 -32900980.87543  23979532.1564                   23979532.1524
 -19353873.11348 -15072243.52745  21524605.1724                   21524604.1024
  -9689018.31647  -7522130.34445  22668089.0474                   22668086.6374
 -39784580.55147 -30960763.77045  22504074.5314                   22504072.9384
 -15458293.18047 -12014760.94544  22727623.6174                   22727623.3714
   -465976.86346   -334401.60544  23879711.5004                   23879712.2424
 -36587737.20748 -28476218.33246  20630432.9614                   20630431.2894
 -23112956.00447 -17980357.28944  23129267.8054                   23129267.2854
 -26668131.22348 -20746937.90246  20942032.5864                   20942028.9064
 11  7 27  1 16  0.0000000  0  9G28G10G12G17G09G05G04G27G02
 -42176723.07846 -32855511.58643  23990637.0634                   23990636.6294
 -19448231.58648 -15145769.56245  21506649.6804                   21506648.3834
  -9813513.77047  -7619139.73845  22644398.6644                   22644395.5124
 -39778781.04347 -30956244.68745  22505178.0944                   22505176.0744
 -15441741.28547 -12001863.41045  22730774.1724                   22730773.0354
   -610895.82046   -447325.32044  23852134.3284                   23852135.1524
 -36572459.87148 -28464313.92246  20633339.7584                   20633338.1684
 -23101971.19947 -17971797.77744  23131357.6884                   23131357.7154
 -26737680.13348 -20801131.83246  20928797.9534                   20928793.9734
 11  7 27  1 16 30.0000000  0  9G28G10G12G17G09G05G04G27G02
 -42118089.86746 -32809823.39143  24001794.5864                   24001794.3444
 -19542050.84848 -15218875.44145  21488796.2894                   21488794.7704
  -9937730.05947  -7715931.62945  22620760.5314                   22620758.4494
 -39772820.22347 -30951599.91045  22506312.9304                   22506310.6804
 -15424702.04747 -11988586.14145  22734017.0394                   22734015.8094
   -755729.39546   -560182.50844  23824573.8284                   23824574.0164
 -36556784.60948 -28452099.42246  20636322.7974                   20636320.8054
 -23090646.75447 -17962973.60244  23133512.8524                   23133513.0394
 -26806817.00448 -20855004.68446  20915641.4774                   20915637.7234
 11  7 27  1 17  0.0000000  0  9G28G10G12G17G09G05G04G27G02
 -42059194.51646 -32763930.96543  24013002.4064                   24013001.5704
 -19635345.87548 -15291572.82045  21471042.4924                   21471041.0084
 -10061681.59447  -7812517.21145  22597173.3674                   22597171.4024
 -39766714.81247 -30946842.46945  22507474.1644                   22507472.4264
 -15407196.02047 -11974945.12545  22737347.6024                   22737346.9774
   -900491.72746   -672984.16444  23797025.7734                   23797026.4184
 -36540731.05148 -28439590.14846  20639377.8364                   20639375.8954
 -23079002.58647 -17953900.27744  23135728.5474                   23135729.2704
 -26875559.76248 -20908570.44946  20902560.2584                   20902556.1914
 11  7 27  1 17 30.0000000  0  9G28G10G12G17G09G05G04G27G02
 -42000030.73046 -32717829.32043  24024260.1094                   24024259.7664
 -19728105.27748 -15363852.83246  21453391.0084                   21453389.8524
 -10185357.32047  -7908887.88345  22573638.6174                   22573636.7544
 -39760455.96547 -30941965.46145  22508665.6254                   22508663.4414
 -15389217.29347 -11960935.78145  22740769.1884                   22740768.5124
  -1045171.22747   -785721.29344  23769494.6644                   23769494.7114
 -36524292.85548 -28426781.16846  20642505.9064                   20642503.9344
 -23067032.53147 -17944573.00844  23138006.4534                   23138006.7424
 -26943899.93748 -20961822.51246  20889555.5164                   20889551.3714
 11  7 27  1 18  0.0000000  0  9G28G10G12G17G09G05G04G27G02
 -41940600.47746 -32671520.05943  24035569.9614                   24035569.1644
 -19820326.85248 -15435713.76245  21435841.6564                   21435840.4574
 -10308756.03947  -8005042.69145  22550157.0004                   22550154.5744
 -39754043.16047 -30936968.48045  22509886.0944                   22509883.6804
 -15370769.38347 -11946560.85245  22744279.5554                   22744279.3054
  -1189765.70347   -898392.19144  23741979.1254                   23741978.7274
 -36507472.73048 -28413674.57446  20645706.5704                   20645704.7974
 -23054739.46547 -17934994.03944  23140345.6254                   23140345.3834
 -27011838.33648 -21014761.49646  20876627.1334                   20876622.9024
 11  7 27  1 18 30.0000000  0  9G28G10G12G17G09G05G04G27G02
 -41880913.97746 -32625011.07443  24046927.7584                   24046926.7344
 -19912016.34848 -15507160.08645  21418394.0314                   21418392.4104
 -10431882.81647  -8100985.61745  22526726.2814                   22526723.9884
 -39747484.40647 -30931857.78545  22511134.1024                   22511131.8444
 -15351863.56247 -11931829.10245  22747877.8834                   22747876.9144
  -1334280.13347  -1011000.69944  23714479.0084                   23714479.1024
 -36490281.21548 -28400278.58646  20648978.1334                   20648976.1374
 -23042134.12147 -17925171.72744  23142744.6564                   23142744.0124
 -27079383.73048 -21067394.24246  20863773.7664                   20863769.6954
 11  7 27  1 19  0.0000000  0  9G28G10G12G17G09G05G04G27G02
 -41820965.21146 -32578297.76243  24058335.5164                   24058335.0554
 -20003163.29348 -15578183.63746  21401049.4144                   21401047.5864
 -10554726.95347  -8196708.28945  22503350.1724                   22503347.6214
 -39740771.48047 -30926626.95745  22512411.7344                   22512409.4654
 -15332494.90647 -11916736.71545  22751563.9844                   22751562.8204
  -1478704.40647  -1123538.94144  23686995.5704                   23686995.3984
 -36472712.91048 -28386589.00046  20652321.3284                   20652319.1764
 -23029211.09047 -17915101.85544  23145203.5084                   23145203.4804
 -27146528.59448 -21119714.89146  20850996.5004                   20850992.2114
 11  7 27  1 19 30.0000000  0  9G28G10G12G17G09G05G04G27G02
 -41760763.63746 -32531387.44143  24069791.5864                   24069790.9384
 -20093773.01648 -15648788.58246  21383806.9064                   21383805.1644
 -10677293.88747  -8292214.96545  22480025.8914                   22480023.5314
 -39733911.55547 -30921281.57845  22513717.1334                   22513714.4924
 -15312674.39847 -11901292.21945  22755335.2894                   22755334.8484
  -1623043.27747  -1236010.66844  23659528.9144                   23659528.2664
 -36454777.77048 -28372613.56646  20655734.2734                   20655732.5164
 -23015980.50447 -17904792.32845  23147721.6564                   23147721.5434
 -27213280.84448 -21171729.59846  20838294.0864                   20838289.7034
 11  7 27  1 20  0.0000000  0  9G28G10G12G17G09G05G04G27G02
 -41700296.09046 -32484269.89543  24081298.7894                   24081297.7344
 -20183827.80548 -15718961.09845  21366669.8754                   21366668.3874
 -10799565.55947  -8387491.55145  22456758.9614                   22456756.7234
 -39726888.96147 -30915809.43445  22515052.6804                   22515050.6214
 -15292389.94947 -11885486.23044  22759194.9694                   22759194.6174
  -1767278.41047  -1348401.56644  23632081.8834                   23632081.0044
 -36436462.82048 -28358342.17246  20659219.1414                   20659217.6954
 -23002429.82047 -17894233.39144  23150300.1564                   23150300.3444
 -27279625.60548 -21223426.78546  20825669.0474                   20825664.5554
 11  7 27  1 20 30.0000000  0  9G28G10G12G17G09G05G04G27G02
 -41639585.39546 -32436962.85543  24092851.3594                   24092850.1414
 -20273346.04348 -15788715.52746  21349635.2894                   21349633.1604
 -10921560.89847  -8482552.83245  22433543.8444                   22433540.9104
 -39719724.11347 -30910226.44145  22516416.4304                   22516414.5084
 -15271665.34847 -11869337.27045  22763138.9534                   22763138.5824
  -1911427.87547  -1460725.71944  23604650.9844                   23604650.1564
 -36417791.62148 -28343793.19146  20662772.4144                   20662770.1374
 -22988582.51247 -17883443.32044  23152935.3054                   23152935.1884
 -27345584.60248 -21274823.38346  20813117.4534                   20813112.9654
 11  7 27  1 21  0.0000000  0  9G28G10G12G17G09G05G04G27G02
 -41578620.37146 -32389457.62143  24104452.2114                   24104451.2704
 -20362312.40248 -15858039.91845  21332705.5314                   21332703.3204
 -11043264.25847  -8577386.59445  22410384.5944                   22410381.7504
 -39712403.44947 -30904522.04345  22517809.7974                   22517807.6804
 -15250490.94947 -11852837.80145  22767168.0784                   22767166.9844
  -2055475.81247  -1572970.75444  23577239.3284                   23577238.3984
 -36398753.33248 -28328958.15246  20666395.5084                   20666393.7814
 -22974428.16847 -17872413.97344  23155628.8204                   23155627.9964
 -27411145.09048 -21325909.43746  20800641.4384                   20800637.1724
 11  7 27  1 21 30.0000000  0  9G28G10G12G17G09G05G04G27G02
 -41517415.12946 -32341765.28543  24116098.9924                   24116098.3244
 -20450736.59048 -15926941.84445  21315878.7814                   21315877.1644
 -11164684.77347  -8671999.95345  22387278.8674                   22387276.1844
 -39704938.55947 -30898705.27345  22519230.3984                   22519228.2704
 -15228881.92647 -11835999.67244  22771280.4144                   22771279.6844
  -2199431.62547  -1685144.00044  23549845.1024                   23549844.6334
 -36379362.67648 -28313848.55546  20670085.3524                   20670083.4454
 -22959981.47347 -17861156.83244  23158377.4844                   23158377.5944
 -27476319.82048 -21376694.91846  20788239.2894                   20788234.8634
 11  7 27  1 22  0.0000000  0  9G28G10G12G17G09G05G04G27G02
 -41455962.39846 -32293880.02343  24127793.7194                   24127793.1604
 -20538606.76248 -15995412.07046  21299157.4924                   21299155.8834
 -11285810.71947  -8766383.78145  22364229.0864                   22364226.7304
 -39697319.80147 -30892768.59445  22520679.9384                   22520678.3244
 -15206831.87947 -11818817.90244  22775476.1884                   22775476.1254
  -2343282.96547  -1797235.83644  23522471.1804                   23522470.7704
 -36359612.43048 -28298458.75446  20673843.6024                   20673841.9024
 -22945235.67247 -17849666.63344  23161184.2424                   23161183.8834
 -27541099.94148 -21427172.90246  20775912.0634                   20775907.8404
 11  7 27  1 22 30.0000000  0  9G28G10G12G17G09G05G04G27G02
 -41394257.19546 -32245798.03543  24139535.8674                   24139535.2974
 -20625913.72748 -16063443.42645  21282543.7504                   21282542.1484
 -11406633.03147  -8860531.00845  22341237.9924                   22341235.0084
 -39689539.57047 -30886706.09045  22522160.7424                   22522158.7814
 -15184337.28547 -11801289.71544  22779756.6024                   22779756.6994
  -2487020.19147  -1909238.74244  23495118.4224                   23495118.4224
 -36339498.16848 -28282785.30146  20677671.3834                   20677669.5124
 -22930186.51647 -17837940.04344  23164047.6174                   23164047.5904
 -27605479.02048 -21477338.39546  20763661.3204                   20763657.0124
 11  7 27  1 23  0.0000000  0  9G28G10G12G17G09G05G04G27G02
 -41332301.97346 -32197521.26643  24151324.8204                   24151325.1914
 -20712655.66848 -16131034.50446  21266037.1024                   21266035.2624
 -11527149.50048  -8954439.91045  22318303.9534                   22318301.2624
 -39681598.24247 -30880518.05145  22523671.6254                   22523670.1134
 -15161401.85547 -11783418.02344  22784121.4304                   22784121.4494
  -2630640.73447  -2021150.71944  23467788.5944                   23467788.5394
 -36319022.71548 -28266830.40646  20681567.4924                   20681565.7814
 -22914837.03947 -17825979.44944  23166968.9844                   23166968.7974
 -27669457.86748 -21527192.02746  20751486.2974                   20751482.8014
 11  7 27  1 23 30.0000000  0  9G28G10G12G17G09G05G04G27G02
 -41270104.24646 -32149055.50043  24163160.7424                   24163160.4924
 -20798835.66848 -16198187.69945  21249637.8284                   21249636.2704
 -11647363.15247  -9048112.84845  22295428.0004                   22295425.0944
 -39673500.73447 -30874208.33245  22525212.2974                   22525210.3754
 -15138034.30147 -11765209.60244  22788568.2034                   22788567.5634
  -2774147.37946  -2132973.95344  23440480.0554                   23440479.8554
 -36298194.04348 -28250600.27046  20685531.3134                   20685529.0434
 -22899195.48047 -17813791.24244  23169945.3674                   23169945.4414
 -27733042.86348 -21576738.75446  20739386.3364                   20739382.5904
 11  7 27  1 24  0.0000000  0  9G28G10G12G17G09G05G04G27G02
 -41207660.47746 -32100398.00443  24175043.1804                   24175042.7584
 -20884445.91048 -16264896.93446  21233346.5474                   21233344.8984
 -11767265.96547  -9141543.57445  22272611.8524                   22272608.8284
 -39665241.13347 -30867772.30145  22526784.3674                   22526782.6294
 -15114232.39847 -11746662.71945  22793098.0944                   22793097.3874
  -2917531.83646  -2244701.96144  23413194.3524                   23413194.6054
 -36277009.12948 -28234092.55546  20689562.3444                   20689560.8874
 -22883259.04347 -17801373.27344  23172977.7734                   23172977.6294
 -27796228.99248 -21625974.68446  20727362.5784                   20727358.4924
 11  7 27  1 24 30.0000000  0  9G28G10G12G17G09G05G04G27G02
 -41144979.43046 -32051555.63343  24186971.6334                   24186970.8134
 -20969491.19547 -16331165.93446  21217162.6254                   21217161.3164
 -11886862.36347  -9234735.54345  22249852.8594                   22249850.2114
 -39656825.57847 -30861214.74645  22528386.2344                   22528384.0904
 -15090006.17647 -11727785.19145  22797708.2974                   22797707.5784
  -3060797.72747  -2356337.59844  23385932.2974                   23385931.5514
 -36255477.09048 -28217314.34846  20693660.0164                   20693657.9224
 -22867037.08647 -17788732.82844  23176065.0394                   23176065.1414
 -27859023.50848 -21674905.46146  20715413.3204                   20715409.0434
 11  7 27  1 25  0.0000000  0  9G28G10G12G17G09G05G04G27G02
 -41082059.64846 -32002527.21943  24198944.8834                   24198943.9774
 -21053965.89148 -16396990.32846  21201087.8134                   21201086.1994
 -12006145.76647  -9327683.60945  22227154.0314                   22227151.4264
 -39648250.17647 -30854532.64145  22530017.6724                   22530015.9064
 -15065355.11347 -11708576.62145  22802399.1334                   22802398.5434
  -3203938.95347  -2467876.07045  23358692.9924                   23358692.6174
 -36233596.75448 -28200264.74246  20697823.6564                   20697821.7274
 -22850528.76647 -17775869.23844  23179206.3204                   23179206.2624
 -27921423.48448 -21723528.80946  20703539.0784                   20703534.7894
 11  7 27  1 25 30.0000000  0  9G28G10G12G17G09G05G04G27G02
 -41018901.68746 -31953313.26643  24210963.3364                   24210963.0904
 -21137865.70348 -16462366.76246  21185122.1644                   21185120.4454
 -12125112.32047  -9420384.79745  22204515.2974                   22204512.3984
 -39639512.78947 -30847724.31245  22531680.4924                   22531678.8014
 -15040280.80947 -11689038.24644  22807170.2504                   22807169.7034
  -3346950.89847  -2579313.82445  23331478.8444                   23331478.6994
 -36211368.81248 -28182944.26646  20702053.6644                   20702051.4304
 -22833734.87947 -17762783.12944  23182402.2114                   23182401.7584
 -27983427.92648 -21771843.93446  20691739.5474                   20691735.5434
 11  7 27  1 26  0.0000000  0  9G28G10G12G17G09G05G04G27G02
 -40955509.52746 -31903916.79343  24223026.3914                   24223025.8594
 -21221190.81648 -16527295.37146  21169266.0084                   21169264.4024
 -12243762.21947  -9512839.23045  22181937.1334                   22181934.5044
 -39630615.43047 -30840791.32845  22533373.5634                   22533371.6844
 -15014789.39147 -11669174.81644  22812021.2974                   22812020.7704
  -3489833.34847  -2690650.66045  23304289.2584                   23304288.9534
 -36188798.21948 -28165356.78546  20706348.5394                   20706346.5004
 -22816660.88747 -17749478.77044  23185651.0634                   23185651.4924
 -28045039.85248 -21819853.20746  20680015.5234                   20680011.1414
 11  7 27  1 26 30.0000000  0  9G28G10G12G17G09G05G04G27G02
 -40891884.59046 -31854338.93443  24235134.2194                   24235133.3834
 -21303938.53948 -16591774.07446  21153519.6644                   21153517.8524
 -12362091.67247  -9605043.96945  22159419.7424                   22159417.2234
 -39621556.57447 -30833732.50045  22535097.6334                   22535095.3324
 -14988882.95747 -11648988.00845  22816951.4064                   22816950.3634
  -3632582.30147  -2801883.48445  23277124.5864                   23277124.4694
 -36165886.45748 -28147503.46546  20710708.4454                   20710706.7934
 -22799308.24247 -17735957.28544  23188952.9924                   23188953.2154
 -28106258.68748 -21867556.16846  20668365.4534                   20668361.5124
 11  7 27  1 27  0.0000000  0  9G28G10G12G17G09G05G04G27G02
 -40828025.60946 -31804578.71543  24247285.8984                   24247284.9024
 -21386103.09847 -16655798.36746  21137883.9304                   21137882.5864
 -12480094.63747  -9696994.30945  22136964.2974                   22136961.4884
 -39612332.59447 -30826544.99645  22536853.1484                   22536851.1414
 -14962561.07847 -11628477.45745  22821959.9454                   22821959.3714
  -3775191.23847  -2913007.19945  23249987.3284                   23249986.4024
 -36142632.09848 -28129383.19146  20715133.4304                   20715131.5904
 -22781676.17647 -17722218.05144  23192308.2584                   23192308.7384
 -28167081.65648 -21914950.68446  20656791.3364                   20656787.1604
 11  7 27  1 27 30.0000000  0  9G28G10G12G17G09G05G04G27G02
 -40763935.86346 -31754638.62543  24259481.7734                   24259480.7424
 -21467684.37548 -16719368.14546  21122359.7274                   21122357.9844
 -12597770.58247  -9788689.81645  22114571.2584                   22114569.0744
 -39602944.72347 -30819229.79345  22538639.2424                   22538637.7304
 -14935829.03147 -11607647.31644  22827046.8054                   22827046.5824
  -3917659.24247  -3024021.09045  23222876.1724                   23222875.4924
 -36119039.68048 -28110999.49646  20719623.2274                   20719621.2194
 -22763769.28947 -17708264.68444  23195715.9694                   23195716.5204
 -28227511.05148 -21962038.50846  20645292.0394                   20645287.9454
 11  7 27  1 28  0.0000000  0  8G10G12G17G09G05G04G27G02
 -21548684.73447 -16782485.25046  21106945.6884                   21106943.8984
 -12715121.63747  -9880132.17245  22092240.2664                   22092237.7504
 -39593397.36747 -30811790.31245  22540456.1094                   22540454.3874
 -14908695.01247 -11586503.94544  22832210.0784                   22832210.3324
  -4059988.32047  -3134926.73845  23195791.3054                   23195791.2154
 -36095116.55148 -28092358.10946  20724175.5004                   20724173.9104
 -22745595.12147 -17694103.05144  23199174.6094                   23199174.7344
 -28287552.98448 -22008824.41046  20633866.5864                   20633862.3484
 11  7 27  1 28 30.0000000  0  8G10G12G17G09G05G04G27G02
 -21629098.41847 -16845145.21546  21091643.3594                   21091641.8554
 -12832142.13347  -9971316.95745  22069972.0164                   22069969.4964
 -39583686.49647 -30804223.42645  22542304.0234                   22542301.7194
 -14881158.75847 -11565047.14844  22837450.4224                   22837449.8984
  -4202171.97747  -3245719.06645  23168735.0004                   23168734.7814
 -36070861.34848 -28073457.95346  20728791.0554                   20728789.2274
 -22727152.77047 -17679732.45344  23202684.2114                   23202684.3554
 -28347204.21148 -22055305.87146  20622515.3364                   20622511.3284
 11  7 27  1 29  0.0000000  0  8G10G12G17G09G05G04G27G02
 -21708920.86748 -16907344.47746  21076453.7664                   21076452.1214
 -12948826.50448 -10062239.82445  22047767.5084                   22047765.0434
 -39573809.10947 -30796526.77045  22544184.0554                   22544181.0594
 -14853220.88747 -11543277.37144  22842766.3984                   22842766.3954
  -4344204.55547  -3356393.68444  23141707.0084                   23141706.5864
 -36046273.64548 -28054298.71146  20733470.0234                   20733468.5634
 -22708442.48047 -17665153.06644  23206244.4924                   23206244.7934
 -28406462.77348 -22101481.36346  20611238.8754                   20611234.8484
 11  7 27  1 29 30.0000000  0  8G10G12G17G09G05G04G27G02
 -21788143.37947 -16969076.26246  21061378.1804                   21061376.5514
 -13065165.81247 -10152893.79746  22025629.0864                   22025626.7114
 -39563757.65647 -30788694.49645  22546096.7274                   22546094.4494
 -14824877.83647 -11521191.90244  22848160.1884                   22848160.1254
  -4486076.74647  -3466943.34044  23114709.5084                   23114708.6604
 -36021349.33248 -28034877.18046  20738212.8834                   20738211.3674
 -22689460.19947 -17650361.73844  23209857.2114                   23209856.9924
 -28465322.30148 -22147345.90246  20600038.1564                   20600034.2814
 11  7 27  1 30  0.0000000  0  8G10G12G17G09G05G04G27G02
 -21866770.34448 -17030343.97746  21046416.0004                   21046413.6884
 -13181163.64848 -10243281.69546  22003555.1414                   22003552.8794
 -39553538.15247 -30780731.26245  22548040.9614                   22548039.1024
 -14796139.50447 -11498798.43044  22853629.0554                   22853628.5554
  -4627791.62947  -3577370.39845  23087741.5164                   23087741.0704
 -35996096.82048 -28015199.90246  20743018.5394                   20743016.5084
 -22670214.83647 -17635365.39844  23213519.4224                   23213519.2154
 -28523789.83648 -22192905.00046  20588911.9064                   20588908.0864
 11  7 27  1 30 30.0000000  0  8G10G12G17G09G05G04G27G02
 -21944803.99248 -17091149.37546  21031566.4614                   21031564.5864
 -13296821.85948 -10333404.94545  21981546.1724                   21981543.5204
 -39543154.36347 -30772640.01645  22550017.3674                   22550015.1804
 -14767013.50447 -11476102.87544  22859171.5634                   22859171.0784
  -4769350.77347  -3687676.08645  23060804.2504                   23060803.7504
 -35970523.14848 -27995272.37946  20747884.9304                   20747883.1094
 -22650713.48847 -17620169.57444  23217230.0394                   23217229.9844
 -28581870.63348 -22238162.75446  20577859.7424                   20577855.3914
 11  7 27  1 31  0.0000000  0  8G10G12G17G09G05G04G27G02
 -22022241.79347 -17151490.46946  21016830.6954                   21016829.1804
 -13412137.08648 -10423260.94546  21959602.6804                   21959599.5204
 -39532605.17647 -30764419.87945  22552024.9534                   22552022.3134
 -14737502.29347 -11453107.15244  22864787.1804                   22864786.8054
  -4910750.60947  -3797857.65645  23033896.4534                   23033895.7234
 -35944629.94148 -27975095.85946  20752812.1644                   20752810.2274
 -22630958.02747 -17604775.77744  23220989.4224                   23220989.5634
 -28639564.76648 -22283119.20346  20566880.8834                   20566876.5084
 11  7 27  1 31 30.0000000  0  8G10G12G17G09G05G04G27G02
 -22099082.72348 -17211366.47346  21002208.2114                   21002206.7034
 -13527107.14847 -10512847.98845  21937724.3984                   21937721.5124
 -39521890.99647 -30756071.17645  22554063.5394                   22554061.3954
 -14707610.44547 -11429814.83244  22870475.8834                   22870474.8364
  -5051989.07447  -3907913.48845  23007019.7584                   23007018.8404
 -35918420.38748 -27954672.84446  20757799.7814                   20757798.2194
 -22610952.09047 -17589186.82844  23224796.6724                   23224797.0824
 -28696873.67248 -22327775.48046  20555975.5394                   20555971.0204
 11  7 27  1 32  0.0000000  0  8G10G12G17G09G05G04G27G02
 -22175319.83648 -17270771.97346  20987701.1804                   20987699.3094
 -13641725.98848 -10602161.34045  21915912.9694                   21915910.7234
 -39511006.96947 -30747590.12545  22556134.4304                   22556132.5864
 -14677336.48447 -11406224.77044  22876237.2344                   22876236.2464
  -5193058.58647  -4017837.66845  22980175.1254                   22980173.9414
 -35891892.30148 -27934001.61746  20762847.8834                   20762845.9414
 -22590693.90247 -17573401.27744  23228652.1804                   23228652.3914
 -28753793.56248 -22372128.62146  20545143.9304                   20545139.4694
 11  7 27  1 32 30.0000000  0  8G10G12G17G09G05G04G27G02
 -22250955.79348 -17329709.05146  20973307.7894                   20973305.6844
 -13755995.44547 -10691202.45746  21894168.3524                   21894165.5394
 -39499956.96947 -30738979.74245  22558237.7424                   22558235.6604
 -14646688.45347 -11382343.23044  22882068.6174                   22882068.2774
  -5333960.86347  -4127631.55145  22953361.7114                   22953361.5474
 -35865052.40248 -27913087.41446  20767955.3524                   20767953.6454
 -22570190.69547 -17557424.84444  23232553.7424                   23232554.0554
 -28810329.28948 -22416182.41446  20534385.5704                   20534381.1484
 11  7 27  1 33  0.0000000  0  8G10G12G17G09G05G04G27G02
 -22325995.01648 -17388181.13346  20959028.3984                   20959026.3754
 -13869918.64548 -10779973.76245  21872489.1484                   21872486.3834
 -39488746.55947 -30730244.36345  22560370.7814                   22560368.2384
 -14615675.68747 -11358177.49244  22887970.5394                   22887970.0594
  -5474698.92647  -4237297.47345  22926580.8984                   22926579.7194
 -35837909.25448 -27891936.92646  20773120.5004                   20773118.4384
 -22549451.34047 -17541264.35944  23236499.6884                   23236500.0744
 -28866487.90648 -22459942.35946  20523698.7664                   20523694.4454
 11  7 27  1 33 30.0000000  0  8G10G12G17G09G05G04G27G02
 -22400433.71148 -17446185.27346  20944862.8834                   20944861.4224
 -13983491.40247 -10868471.99646  21850877.2114                   21850874.5664
 -39477373.27347 -30721382.06245  22562534.9774                   22562532.5984
 -14584299.52747 -11333728.59044  22893940.9774                   22893940.9414
  -5615268.12147  -4346831.80145  22899831.2814                   22899830.1764
 -35810463.43048 -27870550.58246  20778343.3134                   20778341.3634
 -22528476.93047 -17524920.71944  23240491.8444                   23240491.2894
 -28922268.29748 -22503407.58246  20513084.0864                   20513079.7664
 11  7 27  1 34  0.0000000  0  8G10G12G17G09G05G04G27G02
 -22474261.57848 -17503713.44546  20930813.9924                   20930811.7774
 -14096703.21948 -10956688.98046  21829333.8204                   21829331.4454
 -39465828.41047 -30712386.06645  22564731.7344                   22564729.6524
 -14552555.18047 -11308992.78944  22899982.1804                   22899981.5274
  -5755657.18447  -4456225.78145  22873115.8444                   22873114.6374
 -35782708.93448 -27848923.70346  20783624.6254                   20783623.2894
 -22507261.59847 -17508389.35544  23244528.3054                   23244528.0944
 -28977662.97748 -22546572.25446  20502542.9534                   20502538.9734
 11  7 27  1 34 30.0000000  0  8G10G12G17G09G05G04G27G02
 -20972055.46948 -16333163.19546  21216674.3364                   21216672.8134
 -12634128.45347  -9817020.30546  22107652.6954                   22107650.0354
 -37878692.90647 -29475657.10245  22866753.6334                   22866751.4654
 -12945028.25447 -10056374.45344  23205884.4064                   23205884.1094
  -4320439.55547  -3337874.28545  23146228.6024                   23146227.6294
 -34179229.90648 -26599459.53146  21088756.6724                   21088755.0314
 -20910389.79747 -16264073.70344  23548403.6174                   23548403.3914
 -27457251.70748 -21361836.18746  20791867.5004                   20791863.8364
 11  7 27  1 35  0.0000000  0  8G10G12G17G09G05G04G27G02
 -21044669.03548 -16389745.16846  21202856.2734                   21202854.6644
 -12746622.39848  -9904677.91446  22086245.5554                   22086242.9104
 -37866816.00047 -29466402.36745  22869014.1254                   22869011.8954
 -12912570.24247 -10031082.53544  23212060.8834                   23212060.7194
  -4460471.90647  -3446990.30545  23119581.1254                   23119580.2034
 -34150877.47348 -26577366.73446  21094152.1644                   21094150.3834
 -20888713.18446 -16247182.87944  23552527.6334                   23552528.8914
 -27511889.46148 -21404411.05946  20781470.2584                   20781466.2774
 11  7 27  1 35 30.0000000  0  8G10G12G17G09G05G04G27G02
 -21116673.67248 -16445852.64846  21189154.0944                   21189152.3594
 -12858754.78547  -9992053.78546  22064907.3134                   22064904.8754
 -37854773.40647 -29457018.53945  22871305.5314                   22871303.4264
 -12879761.53547 -10005517.35544  23218303.7274                   23218303.5784
  -4600322.73847  -3555964.87545  23092967.8364                   23092967.2274
 -34122230.74248 -26555044.62146  21099603.1334                   21099601.6174
 -20866811.31246 -16230116.59044  23556695.9304                   23556696.9454
 -27566151.35248 -21446693.04746  20771144.7034                   20771140.3754
 11  7 27  1 36  0.0000000  0  8G10G12G17G09G05G04G27G02
 -21188064.36748 -16501481.72746  21175569.1254                   21175567.4184
 -12970519.64848 -10079143.27046  22043639.4614                   22043636.4574
 -37842561.32447 -29447502.63345  22873629.2114                   22873627.1134
 -12846602.28947  -9979679.03144  23224614.1644                   23224614.1134
  -4739985.66447  -3664793.02345  23066390.8134                   23066389.9924
 -34093288.58248 -26532492.30546  21105110.9924                   21105109.3404
 -20844683.63346 -16212874.29344  23560906.9064                   23560906.9224
 -27620034.40248 -21488679.82846  20760891.3364                   20760886.8244
 11  7 27  1 36 30.0000000  0  8G10G12G17G09G05G04G27G02
 -21258842.23448 -16556633.28146  21162100.6564                   21162098.8954
 -13081917.55548 -10165946.81246  22022441.0164                   22022438.2304
 -37830182.43447 -29437856.76245  22875984.7584                   22875982.9264
 -12813098.70347  -9953572.38344  23230989.7424                   23230989.6294
  -4879460.75447  -3773474.83245  23039850.2894                   23039848.6604
 -34064056.28948 -26509713.91046  21110673.4694                   21110671.5124
 -20822335.70746 -16195460.33644  23565159.0944                   23565159.6564
 -27673542.07048 -21530374.10246  20750708.9454                   20750704.5314
 11  7 27  1 37  0.0000000  0  8G10G12G17G09G05G04G27G02
 -21329010.68748 -16611309.97346  21148747.7814                   21148745.8364
 -13192951.03148 -10252466.38346  22001311.7974                   22001309.6644
 -37817640.77347 -29428084.05545  22878371.2114                   22878369.8914
 -12779258.90647  -9927203.73844  23237429.0704                   23237428.8594
  -5018749.82847  -3882011.67645  23013344.1254                   23013342.8324
 -34034540.97348 -26486714.96946  21116290.2504                   21116288.6884
 -20799775.11746 -16177880.74644  23569452.8674                   23569453.0904
 -27726680.38348 -21571780.55546  20740596.8594                   20740592.5554
 11  7 27  1 37 30.0000000  0  8G10G12G17G09G05G04G27G02
 -21398574.61748 -16665515.60246  21135510.4224                   21135508.3014
 -13303624.10948 -10338705.13746  21980251.6804                   21980249.6294
 -37804942.29347 -29418189.15244  22880787.7584                   22880785.9884
 -12745093.03547  -9900581.00844  23243931.2974                   23243930.2034
  -5157856.60947  -3990406.48845  22986873.1954                   22986871.8244
 -34004751.55948 -26463502.44946  21121959.1024                   21121957.1994
 -20777011.30546 -16160142.75844  23573784.0474                   23573784.9884
 -27779456.53548 -21612904.81646  20730553.9534                   20730549.6374
 11  7 27  1 38  0.0000000  0  8G10G12G17G09G05G04G27G02
 -21467525.43748 -16719243.48846  21122389.4144                   21122387.1454
 -13413927.34447 -10424655.69946  21959261.5164                   21959259.3324
 -37792080.10247 -29408166.68745  22883235.5084                   22883232.9414
 -12710597.85947  -9873701.67244  23250495.3364                   23250494.0084
  -5296771.32447  -4098651.64145  22960438.6414                   22960437.1724
 -33974683.88748 -26440073.10246  21127680.8594                   21127678.8204
 -20754040.25046 -16142243.29344  23578156.2584                   23578156.5204
 -27831864.92648 -21653742.50846  20720580.8364                   20720576.9344
 11  7 27  1 38 30.0000000  0  8G10G12G17G09G05G04G27G02
 -21535861.61748 -16772492.43746  21109385.4844                   21109383.5744
 -13523858.07847 -10510315.99646  21938342.2734                   21938339.9694
 -37779053.37547 -29398016.00045  22885714.6174                   22885712.6484
 -12675776.42647  -9846568.10944  23257121.0474                   23257120.8364
  -5435490.94947  -4206744.77745  22934041.2114                   22934039.7114
 -33944339.89848 -26416428.44946  21133454.7114                   21133453.1174
 -20730864.70346 -16124184.46944  23582566.1414                   23582565.9344
 -27883905.88748 -21694293.89846  20710677.7894                   20710673.5824
 11  7 27  1 39  0.0000000  0  8G10G12G17G09G05G04G27G02
 -21603584.89547 -16825263.79746  21096497.7894                   21096495.8444
 -13633417.27747 -10595686.79346  21917493.7664                   21917491.3284
 -37765865.27047 -29387739.56245  22888223.6024                   22888222.0514
 -12640635.83247  -9819185.87144  23263808.7504                   23263807.9384
  -5574015.78547  -4314686.12545  22907680.5004                   22907678.6484
 -33913725.44948 -26392573.04346  21139280.6724                   21139279.1454
 -20707490.86346 -16105971.10944  23587014.2504                   23587013.9024
 -27935583.67648 -21734562.29746  20700843.5704                   20700839.7814
 11  7 27  1 39 30.0000000  0  8G10G12G17G09G05G04G27G02
 -21670688.92647 -16877552.62946  21083728.4454                   21083726.4224
 -13742597.61347 -10680762.36346  21896717.9614                   21896715.0944
 -37752510.29347 -29377333.11345  22890765.5474                   22890763.5004
 -12605174.59847  -9791553.77344  23270556.5944                   23270555.8324
  -5712338.20747  -4422469.75045  22881358.2504                   22881357.0554
 -33882837.94148 -26368504.86346  21145158.1334                   21145156.4454
 -20683916.41046 -16087601.46544  23591500.1024                   23591501.2194
 -27986894.36748 -21774544.65247  20691080.1954                   20691075.5664
 11  7 27  1 40  0.0000000  0  8G10G12G17G09G05G04G27G02
 -21737171.59448 -16929357.28146  21071077.3914                   21071075.3754
 -13851395.84047 -10765540.19546  21876013.8754                   21876011.0354
 -37738987.31647 -29366795.76245  22893338.5944                   22893337.0434
 -12569395.41847  -9763673.93744  23277364.9304                   23277365.2154
  -5850454.73847  -4530092.93745  22855075.7424                   22855074.4804
 -33851679.16848 -26344225.31646  21151087.8914                   21151085.7774
 -20660143.98846 -16069077.53944  23596024.2114                   23596024.6214
 -28037838.65248 -21814241.48846  20681385.1644                   20681381.3594
 11  7 27  1 40 30.0000000  0  8G10G12G17G09G05G04G27G02
 -21803035.85947 -16980680.05946  21058543.9454                   21058541.6804
 -13959814.40647 -10850022.19146  21855382.6024                   21855379.8364
 -37725300.19547 -29356130.49645  22895943.1334                   22895941.3054
 -12533306.28947  -9735552.58644  23284232.3134                   23284232.7074
  -5988366.90647  -4637556.89845  22828831.8284                   22828830.3714
 -33820255.65648 -26319739.47746  21157067.2584                   21157065.9654
 -20636180.75846 -16050404.94544  23600584.1094                   23600584.6054
 -28088421.23048 -21853656.48046  20671759.7814                   20671755.7344
 11  7 27  1 41  0.0000000  0  8G10G12G17G09G05G04G27G02
 -21868284.42648 -17031523.07046  21046127.4224                   21046125.4964
 -14067855.04347 -10934209.69146  21834823.1954                   21834820.3054
 -37711453.45347 -29345340.85245  22898578.5164                   22898576.5164
 -12496915.25847  -9707195.97744  23291157.8754                   23291157.5744
  -6126076.09447  -4744862.68445  22802626.4144                   22802625.1484
 -33788574.32048 -26295052.73446  21163096.0234                   21163094.0634
 -20612033.68446 -16031589.09844  23605178.7424                   23605178.9414
 -28138647.46948 -21892793.81646  20662202.4614                   20662198.0354
 11  7 27  1 41 30.0000000  0  8G10G12G17G09G05G04G27G02
 -21932910.27347 -17081880.85246  21033829.5784                   21033827.3364
 -14175509.22348 -11018096.06246  21814337.3594                   21814334.3404
 -37697440.45347 -29334421.66445  22901244.9534                   22901243.3094
 -12460219.90647  -9678602.25844  23298140.6644                   23298140.7774
  -6263573.44547  -4852003.39545  22776461.4304                   22776460.4884
 -33756631.74648 -26270162.41846  21169174.5944                   21169172.7894
 -20587699.75046 -16012627.61743  23609809.0784                   23609809.2194
 -28188512.45348 -21931649.63746  20652713.2734                   20652709.0004
 11  7 27  1 42  0.0000000  0  8G10G12G17G09G05G04G27G02
 -21996912.42648 -17131752.62546  21021650.1724                   21021648.0944
 -14282775.15248 -11101679.88746  21793925.4694                   21793922.8094
 -37683261.19547 -29323372.92245  22903943.5554                   22903941.5044
 -12423224.37947  -9649774.61344  23305180.7114                   23305180.7624
  -6400857.10547  -4958977.59445  22750337.2504                   22750336.4184
 -33724430.59048 -26245070.60946  21175302.1954                   21175300.1844
 -20563182.51646 -15993523.33243  23614475.1254                   23614474.3834
 -28238017.67248 -21970225.12146  20643292.5634                   20643288.2814
 11  7 27  1 42 30.0000000  0  8G10G12G17G09G05G04G27G02
 -22060286.92648 -17181135.32446  21009590.3364                   21009588.5704
 -14389648.17248 -11184957.56246  21773588.1644                   21773585.0984
 -37668912.75047 -29312192.34045  22906673.6954                   22906671.5634
 -12385929.28147  -9620713.55144  23312277.2664                   23312277.7304
  -6537921.27747  -5065780.76645  22724254.4924                   22724253.6884
 -33691970.91448 -26219777.36746  21181478.8674                   21181477.4884
 -20538482.27046 -15974276.42244  23619175.9694                   23619175.1254
 -28287161.78948 -22008519.22747  20633940.8594                   20633936.6024
 11  7 27  1 43  0.0000000  0  8G10G12G17G09G05G04G27G02
 -22123037.38748 -17230031.75846  20997649.1334                   20997647.3874
 -14496130.55947 -11267930.84846  21753325.1484                   21753322.1294
 -37654399.79747 -29300883.57445  22909435.6804                   22909433.9534
 -12348343.19147  -9591425.72744  23319429.7034                   23319430.4964
  -6674768.13747  -5172414.60245  22698213.5314                   22698212.4304
 -33659259.82848 -26194288.21946  21187703.6484                   21187702.1724
 -20513606.77746 -15954892.95344  23623909.2664                   23623909.6414
 -28335950.49248 -22046536.37547  20624656.6094                   20624652.6844
 11  7 27  1 43 30.0000000  0  9G25G10G12G17G09G05G04G27G02
   7671643.92255   6005626.47753  24670474.2974                   24670476.0234
 -22185166.44148 -17278443.97746  20985826.5784                   20985824.6254
 -14602224.03548 -11350601.08246  21733136.0864                   21733133.2504
 -37639725.78547 -29289449.30945  22912228.1254                   22912226.1484
 -12310473.69947  -9561917.09044  23326636.5004                   23326636.9454
  -6811398.59447  -5278879.81245  22672213.6644                   22672212.1844
 -33626303.54748 -26168608.00846  21193975.0474                   21193973.1294
 -20488562.86346 -15935378.25444  23628674.9224                   23628675.5984
 -28384388.57848 -22084280.33247  20615439.4304                   20615434.9534
 11  7 27  1 44  0.0000000  0  9G25G10G12G17G09G05G04G27G02
   7531429.18846   5896368.37943  24643792.5314                   24643794.2384
 -22246666.43448 -17326366.01646  20974123.2734                   20974121.8914
 -14707919.59448 -11432961.25446  21713022.8364                   21713020.2464
 -37624883.40647 -29277883.84045  22915052.1174                   22915050.5594
 -12272317.72747  -9532185.23044  23333896.9924                   23333897.5124
  -6947803.25847  -5385169.08245  22646256.7274                   22646255.3054
 -33593097.89848 -26142733.47346  21200293.8834                   21200292.3714
 -20463346.86346 -15915729.48844  23633473.1484                   23633474.1524
 -28432470.73448 -22121746.93046  20606289.0944                   20606285.3834
 11  7 27  1 44 30.0000000  0  9G25G10G12G17G09G05G04G27G02
   7391340.69546   5787208.60543  24617134.6174                   24617135.8094
 -22307544.41848 -17373803.37946  20962538.4384                   20962536.7814
 -14813223.09047 -11515015.91046  21692984.4224                   21692982.0004
 -37609880.94947 -29266193.63745  22917906.9924                   22917904.9064
 -12233887.04347  -9502239.31644  23341210.2424                   23341210.0314
  -7083987.54347  -5491286.63345  22620341.3444                   22620340.5044
 -33559653.61748 -26116673.00446  21206658.3284                   21206656.7664
 -20437970.08646 -15895955.43744  23638302.1884                   23638303.7074
 -28480205.89548 -22158943.15246  20597205.4694                   20597201.1994
 11  7 27  1 45  0.0000000  0  9G25G10G12G17G09G05G04G27G02
   7251383.07446   5678150.75843  24590500.9924                   24590502.0314
 -22367796.74648 -17420753.21946  20951073.1484                   20951071.4184
 -14918129.92648 -11596761.48446  21673021.4694                   21673018.6844
 -37594715.73447 -29254376.59845  22920792.8754                   22920791.1334
 -12195182.87947  -9472080.25844  23348575.8984                   23348574.3094
  -7219946.24647  -5597228.39545  22594469.5474                   22594467.9804
 -33525970.55948 -26090426.46946  21213067.7034                   21213066.1414
 -20412432.91446 -15876056.37544  23643161.8054                   23643162.8754
 -28527593.09048 -22195868.23447  20588187.9694                   20588184.1564
 11  7 27  1 45 30.0000000  0  9G25G10G12G17G09G05G04G27G02
   7111553.58247   5569192.72343  24563892.9064                   24563893.0864
 -22427427.59448 -17467218.78146  20939725.4694                   20939723.6334
 -15022642.66848 -11678199.97346  21653133.2504                   21653131.0904
 -37579392.34847 -29242436.29745  22923709.1644                   22923706.9734
 -12156213.78547  -9441714.78544  23355991.9844                   23355990.3404
  -7355681.54347  -5702996.09045  22568639.9144                   22568638.3794
 -33492056.23048 -26063999.72346  21219521.8834                   21219519.7894
 -20386743.19147 -15856038.44944  23648050.7894                   23648051.7114
 -28574637.94148 -22232526.54747  20579235.9304                   20579231.5784
 11  7 27  1 46  0.0000000  0  9G25G10G12G17G09G05G04G27G02
   6971861.22346   5460341.56343  24537309.7814                   24537310.3244
 -22486428.78148 -17513193.70346  20928498.0164                   20928496.1884
 -15126752.05948 -11759324.14846  21633321.6254                   21633319.2854
 -37563903.72747 -29230367.26245  22926656.3364                   22926654.3524
 -12116976.60247  -9411140.40244  23363458.0554                   23363458.2464
  -7491184.16847  -5808582.46945  22542854.3204                   22542852.8284
 -33457906.15248 -26037389.26646  21226019.9384                   21226018.0864
 -20360897.03546 -15835898.64544  23652968.5634                   23652969.6724
 -28621334.80148 -22268913.70747  20570349.8834                   20570345.8364
 11  7 27  1 46 30.0000000  0  9G25G10G12G17G09G05G04G27G02
   6832301.16046   5351593.55943  24510752.3444                   24510753.2854
 -22544806.79748 -17558683.04346  20917389.0004                   20917387.0634
 -15230463.25448 -11840138.04346  21613586.2344                   21613584.0044
 -37548256.59847 -29218174.68745  22929634.4844                   22929631.9734
 -12077481.97747  -9380365.43744  23370973.3754                   23370973.6884
  -7626458.26647  -5913990.77745  22517112.3134                   22517110.7384
 -33423529.96948 -26010602.63346  21232561.6254                   21232559.6094
 -20334904.66846 -15815644.91444  23657915.8134                   23657915.4184
 -28667692.10948 -22305036.26247  20561528.0554                   20561524.2704
 11  7 27  1 47  0.0000000  0  9G25G10G12G17G09G05G04G27G02
   6692874.25846   5242949.32843  24484219.7974                   24484221.5004
 -22602561.69548 -17603686.83646  20906398.7274                   20906396.8444
 -15333775.52047 -11920641.07846  21593926.2734                   21593923.9454
 -37532452.09447 -29205859.48444  22932640.8754                   22932638.9964
 -12037735.35947  -9349394.10944  23378536.9384                   23378537.4924
  -7761502.46547  -6019219.95745  22491414.7114                   22491412.7774
 -33388931.57048 -25983642.84046  21239145.4454                   21239143.7504
 -20308770.49247 -15795280.65244  23662888.7344                   23662888.5354
 -28713712.57048 -22340896.35946  20552770.7034                   20552766.3364
 11  7 27  1 47 30.0000000  0  9G25G10G12G17G09G05G04G27G02
   6553593.90246   5134419.32043  24457716.3364                   24457716.7974
 -22659681.70748 -17648195.91446  20895528.8674                   20895527.1994
 -15436675.25447 -12000822.64846  21574345.2584                   21574342.9924
 -37516478.65247 -29193412.65244  22935680.8834                   22935679.3324
 -11997729.26247  -9318220.58244  23386150.0634                   23386151.1524
  -7896302.94947  -6124259.22345  22465762.6644                   22465760.9414
 -33354102.07848 -25956502.97746  21245773.3284                   21245771.8484
 -20282486.45346 -15774799.59444  23667890.9534                   23667891.3444
 -28759386.03948 -22376486.05547  20544079.4224                   20544075.3524
 11  7 27  1 48  0.0000000  0  9G25G10G12G17G09G05G04G27G02
   6414459.84846   5026003.28544  24431239.8524                   24431240.8834
 -22716168.10548 -17692211.25846  20884779.8134                   20884777.9414
 -15539162.90648 -12080683.12946  21554842.5004                   21554839.5554
 -37500338.37147 -29180835.82044  22938752.2504                   22938750.0744
 -11957469.68747  -9286849.55944  23393811.7194                   23393812.0084
  -8030859.40247  -6229108.34045  22440157.6564                   22440155.8914
 -33319046.39148 -25929186.85546  21252444.6644                   21252442.9494
 -20256058.08646 -15754206.10544  23672919.2734                   23672920.1134
 -28804716.20348 -22411808.25046  20535453.4844                   20535448.7504
 11  7 27  1 48 30.0000000  0  9G25G10G12G17G09G05G04G27G02
   6275479.84447   4917707.27044  24404792.8364                   24404793.6644
 -22772014.47748 -17735727.89846  20874152.7034                   20874150.6294
 -15641230.94947 -12160216.62146  21535419.3984                   21535416.8134
 -37484026.20747 -29168125.05545  22941856.5634                   22941853.9654
 -11916954.75047  -9255279.53144  23401521.5704                   23401521.2704
  -8165163.86747  -6333761.10245  22414599.6804                   22414598.3914
 -33283761.52348 -25901692.14846  21259158.6884                   21259157.0354
 -20229482.79746 -15733498.12143  23677976.1484                   23677977.2544
 -28849698.58648 -22446859.43447  20526893.6724                   20526889.0664
 11  7 27  1 49  0.0000000  0  9G25G10G12G17G09G05G04G27G02
   6136650.53547   4809528.70744  24378374.4304                   24378375.6764
 -22827225.74648 -17778749.64146  20863646.3594                   20863644.4804
 -15742882.59047 -12239425.64846  21516075.8364                   21516073.0514
 -37467547.20347 -29155284.29344  22944992.6334                   22944989.8984
 -11876193.69547  -9223517.73044  23409277.4694                   23409277.7464
  -8299218.85947  -6438219.46145  22389090.3984                   22389089.0164
 -33248255.53548 -25874025.13746  21265915.6024                   21265913.7734
 -20202769.11746 -15712682.28543  23683060.1174                   23683060.7424
 -28894339.79348 -22481644.76647  20518398.5864                   20518394.2194
 11  7 27  1 49 30.0000000  0  9G25G10G12G17G09G05G04G27G02
   5997974.75847   4701469.73043  24351984.8284                   24351985.9494
 -22881800.63748 -17821275.51646  20853260.9454                   20853259.0744
 -15844115.07848 -12318308.07046  21496811.6804                   21496808.9574
 -37450900.36347 -29142312.76244  22948160.1954                   22948157.8404
 -11835189.60247  -9191566.58244  23417081.2034                   23417080.3594
  -8433021.37947  -6542481.09845  22363628.4694                   22363627.4654
 -33212530.27048 -25846187.28146  21272713.7504                   21272712.1174
 -20175919.69946 -15691760.66443  23688169.6094                   23688169.1644
 -28938640.97748 -22516165.15646  20509968.1954                   20509964.0824
 11  7 27  1 50  0.0000000  0  9G25G10G12G17G09G05G04G27G02
   5859457.41447   4593534.16043  24325625.8834                   24325625.6174
 -22935735.60948 -17863302.75046  20842997.7664                   20842995.4694
 -15944923.82048 -12396860.30146  21477628.5554                   21477625.7304
 -37434082.58647 -29129208.02344  22951359.9774                   22951358.1644
 -11793943.71147  -9159426.95344  23424929.8524                   23424928.8634
  -8566565.85947  -6646541.66045  22338215.5864                   22338214.2854
 -33176585.38748 -25818178.26646  21279553.8834                   21279552.0434
 -20148934.87546 -15670733.53943  23693304.3754                   23693304.5944
 -28982600.37548 -22550419.21946  20501602.6954                   20501598.8674
 11  7 27  1 50 30.0000000  0  9G25G10G12G17G09G05G04G27G02
   5721101.95747   4485724.69143  24299297.8524                   24299297.4144
 -22989028.66448 -17904829.78546  20832856.3204                   20832854.1604
 -16045305.25448 -12475079.56246  21458526.4064                   21458523.5354
 -37417092.76247 -29115969.23844  22954593.8284                   22954591.1804
 -11752458.28147  -9127100.68744  23432824.1804                   23432824.4184
  -8699848.53947  -6750398.21545  22312852.9064                   22312851.5904
 -33140422.12148 -25789999.10246  21286435.5784                   21286433.4844
 -20121816.50446 -15649602.35243  23698464.1954                   23698465.3364
 -29026218.32448 -22584407.23446  20493302.7894                   20493298.8054
 11  7 27  1 51  0.0000000  0  9G25G10G12G17G09G05G04G27G02
   5582904.56346   4378038.48443  24272998.7504                   24272999.3874
 -23041685.34848 -17945860.94546  20822836.2734                   20822834.3094
 -16145263.36347 -12552968.95346  21439505.2194                   21439502.5554
 -37399936.80547 -29102600.99244  22957858.3444                   22957856.6174
 -11710743.30147  -9094595.54744  23440762.2114                   23440761.5084
  -8832872.79347  -6854053.40645  22287538.4534                   22287537.5004
 -33104049.07448 -25761656.46146  21293356.9224                   21293355.2734
 -20094573.73446 -15628374.28943  23703648.7814                   23703649.9104
 -29069501.65648 -22618134.50046  20485066.4384                   20485061.6804
 11  7 27  1 51 30.0000000  0  9G25G10G12G17G09G05G04G27G02
   5444868.03147   4270477.58643  24246731.7504                   24246732.4144
 -23093704.33648 -17986395.19546  20812937.1724                   20812935.2114
 -16244795.20348 -12630526.19146  21420564.7974                   21420562.0354
 -37382613.90647 -29089102.66044  22961155.2424                   22961152.8524
 -11668801.75847  -9061913.86344  23448742.5234                   23448742.3634
  -8965635.60947  -6957504.88345  22262275.0554                   22262273.8364
 -33067467.97748 -25733151.69945  21300318.3524                   21300316.3834
 -20067209.01246 -15607051.17644  23708856.1884                   23708857.5784
 -29112451.19148 -22651601.65247  20476893.4064                   20476888.6684
 11  7 27  1 52  0.0000000  0  9G25G10G12G17G09G05G04G27G02
   5307000.93447   4163048.70344  24220496.6174                   24220497.7584
 -23145078.71548 -18026427.14846  20803161.0474                   20803159.0824
 -16343892.84848 -12707745.09446  21401707.3284                   21401704.2814
 -37365117.62547 -29075469.23444  22964484.0634                   22964482.0824
 -11626631.41047  -9029053.91044  23456767.6484                   23456767.9534
  -9098127.91847  -7060745.57045  22237062.6644                   22237061.4344
 -33030675.16848 -25704481.97346  21307319.6484                   21307317.6024
 -20039719.27046 -15585630.64544  23714087.6724                   23714089.0234
 -29155061.95748 -22684804.81646  20468784.7194                   20468779.9884
 11  7 27  1 52 30.0000000  0  9G25G10G12G17G09G05G04G27G02
   5169305.95347   4055753.96944  24194294.5474                   24194294.7274
 -23195807.35248 -18065955.94146  20793507.6024                   20793505.1484
 -16442553.64848 -12784623.60946  21382933.0634                   21382929.8714
 -37347446.91047 -29061699.89544  22967846.8204                   22967845.2584
 -11584235.40647  -8996018.09844  23464835.4844                   23464835.8634
  -9230346.37547  -7163772.88345  22211902.2974                   22211900.4414
 -32993672.38348 -25675648.62546  21314360.9844                   21314358.9884
 -20012106.91046 -15564114.57044  23719342.0004                   23719342.6804
 -29197334.58648 -22717744.50047  20460740.4384                   20460736.0704
 11  7 27  1 53  0.0000000  0  9G25G10G12G17G09G05G04G27G02
   5031786.73046   3948596.15244  24168125.0864                   24168125.5004
 -23245888.49648 -18104980.19546  20783977.5004                   20783975.5984
 -16540774.20747 -12861159.07846  21364242.2734                   21364238.9064
 -37329600.57047 -29047793.69945  22971243.1334                   22971241.3014
 -11541615.84047  -8962808.05944  23472945.8284                   23472946.4264
  -9362287.09447  -7266583.75445  22186795.0394                   22186793.6414
 -32956460.80948 -25646652.59446  21321442.2814                   21321440.2934
 -19984373.75446 -15542504.37143  23724620.0944                   23724619.4384
 -29239269.51648 -22750421.06247  20452760.3444                   20452756.1454
 11  7 27  1 53 30.0000000  0  9G25G10G12G17G09G05G04G27G02
   4894433.28147   3841567.53944  24141988.1334                   24141988.9804
 -23295333.84448 -18143509.02346  20774568.5084                   20774566.7194
 -16638564.67648 -12937359.41846  21345632.7504                   21345629.7774
 -37311590.63747 -29033760.03544  22974670.2814                   22974668.9104
 -11498788.91047  -8929436.49244  23481096.0394                   23481096.5084
  -9493959.66847  -7369185.69545  22161738.3674                   22161736.2624
 -32919055.02048 -25617505.22345  21328560.3444                   21328558.3094
 -19956535.29346 -15520812.07843  23729917.2194                   23729916.8554
 -29280879.60248 -22782844.48447  20444842.3594                   20444837.9144
 11  7 27  1 54  0.0000000  0  9G25G10G12G17G09G05G04G27G02
   4757252.52747   3734673.50044  24115883.1644                   24115883.9844
 -23344138.17648 -18181538.35546  20765281.2344                   20765279.0314
 -16735918.01248 -13013219.13746  21327107.1724                   21327104.6914
 -37293412.37547 -29019595.19545  22978129.7504                   22978128.0944
 -11455753.50447  -8895902.45344  23489285.5634                   23489285.0554
  -9625356.90647  -7471573.09445  22136734.3754                   22136732.4884
 -32881452.86748 -25588204.84445  21335715.1884                   21335714.2704
 -19928589.72346 -15499036.35944  23735234.9924                   23735235.5784
 -29322161.91848 -22815012.51647  20436986.8284                   20436982.2234
 11  7 27  1 54 30.0000000  0  9G25G10G12G17G09G05G04G27G02
   4620254.95746   3627922.18043  24089812.9924                   24089813.9344
 -23392292.84448 -18219061.45346  20756117.5004                   20756115.5944
 -16832824.37548 -13088730.57446  21308666.7194                   21308663.9534
 -37275057.14547 -29005292.44545  22981622.6024                   22981620.8714
 -11412505.34047  -8862202.61744  23497514.9454                   23497514.7584
  -9756467.80147  -7573737.37945  22111784.4454                   22111782.2934
 -32843648.25848 -25558746.70746  21342909.6024                   21342907.5204
 -19900531.76246 -15477173.08644  23740574.0314                   23740576.0744
 -29363109.46148 -22846919.68047  20429194.7584                   20429189.7854
 11  7 27  1 55  0.0000000  0  9G25G10G12G17G09G05G04G27G02
   4483446.38747   3521318.14543  24063779.8054                   24063780.7344
 -23439793.75048 -18256075.13746  20747078.4694                   20747076.2704
 -16929278.05548 -13163889.27346  21290311.9454                   21290309.3874
 -37256521.18447 -28990848.87945  22985150.0474                   22985148.3134
 -11369044.65046  -8828337.17444  23505784.6724                   23505785.3134
  -9887286.16848  -7675673.72345  22086891.0944                   22086888.7344
 -32805640.33648 -25529130.13745  21350142.2734                   21350140.4224
 -19872361.10246 -15455222.01243  23745934.9534                   23745935.9264
 -29403720.02048 -22878564.24646  20421466.6174                   20421462.0164
 11  7 27  1 55 30.0000000  0  9G25G10G12G17G09G05G04G27G02
   5922252.28947   4642465.57843  24337574.9144                   24337576.8594
 -21911220.58648 -17064979.14546  21037956.4924                   21037954.5164
 -15449855.19548 -12011092.23446  21571836.9614                   21571834.5234
 -35662386.63347 -27748666.14845  23288503.5394                   23288501.9654
  -9749957.82447  -7566711.09844  23813887.7584                   23813887.3834
  -8442386.50048  -6549777.83245  22361845.8054                   22361843.2934
 -31192014.01648 -24271758.97345  21657204.8754                   21657203.5514
 -18268663.14546 -14205587.30543  24051108.7114                   24051108.7624
 -27868574.74648 -21682347.13746  20713594.9144                   20713590.6764
 11  7 27  1 56  0.0000000  0  9G25G10G12G17G09G05G04G27G02
   5785810.60247   4536147.40644  24311611.2734                   24311612.1294
 -21957431.21548 -17100987.40246  21029162.8674                   21029160.5944
 -15545415.31248 -12085554.65646  21553652.2504                   21553649.7624
 -35643506.91447 -27733954.70345  23292096.3204                   23292094.5084
  -9706101.07847  -7532537.03143  23822232.5234                   23822232.7774
  -8572630.27047  -6651266.43745  22337061.0554                   22337059.5704
 -31153624.29348 -24241844.89845  21664510.4144                   21664508.3674
 -18240294.15246 -14183481.64543  24056507.3914                   24056506.8554
 -27908533.09048 -21713483.49247  20705991.3284                   20705987.0394
 11  7 27  1 56 30.0000000  0  9G25G10G12G17G09G05G04G27G02
   5649555.52747   4429974.66844  24285683.0394                   24285684.5514
 -22002996.30148 -17136492.64146  21020492.0554                   21020490.0434
 -15640525.92648 -12159666.81246  21535553.0314                   21535550.8014
 -35624455.28147 -27719109.28545  23295721.1484                   23295720.0004
  -9662051.99247  -7498213.06644  23830615.0474                   23830615.1334
  -8702582.98847  -6752528.23845  22312331.9694                   22312329.9964
 -31115047.64148 -24211785.17645  21671851.3524                   21671849.5514
 -18211831.00446 -14161302.62143  24061924.2424                   24061924.5664
 -27948167.57448 -21744367.50047  20698449.0704                   20698444.5474
 11  7 27  1 57  0.0000000  0  9G25G10G12G17G09G05G04G27G02
   5513492.47347   4323951.52044  24259791.1644                   24259792.1524
 -22047912.14548 -17171491.98046  21011944.9304                   21011942.6374
 -15735181.80948 -12233424.65646  21517540.8834                   21517538.6134
 -35605228.66047 -27704127.49645  23299380.3204                   23299378.8244
  -9617811.43447  -7463739.94944  23839033.7894                   23839034.2704
  -8832238.89847  -6853558.76245  22287658.9064                   22287657.6134
 -31076283.15648 -24181579.08245  21679228.1954                   21679226.2624
 -18183273.53947 -14139050.14844  24067358.3284                   24067359.0594
 -27987476.50448 -21774997.82047  20690969.0944                   20690964.6844
 11  7 27  1 57 30.0000000  0  9G25G10G12G17G09G05G04G27G02
   5377618.39547   4218075.66444  24233934.8984                   24233935.9264
 -22092183.93448 -17205989.46546  21003520.0944                   21003518.1254
 -15829386.55948 -12306830.94546  21499614.3054                   21499612.2544
 -35585831.96947 -27689013.18445  23303071.2974                   23303070.0944
  -9573388.36347  -7429124.59444  23847487.6174                   23847487.2974
  -8961600.64147  -6954360.06246  22263042.5554                   22263041.1414
 -31037338.45348 -24151232.55945  21686639.0864                   21686637.3094
 -18154630.05546 -14116730.63344  24072809.0474                   24072809.3834
 -28026466.39848 -21805379.53546  20683549.3364                   20683544.9184
 11  7 27  1 58  0.0000000  0  9G25G10G12G17G09G05G04G27G02
   5241944.63747   4112355.91044  24208116.8834                   24208118.5354
 -22135802.50448 -17239977.93746  20995219.8444                   20995217.6414
 -15923129.07048 -12379877.06646  21481775.5084                   21481773.1134
 -35566256.17247 -27673759.31645  23306796.6254                   23306794.9344
  -9528777.50447  -7394362.90244  23855976.9224                   23855977.2544
  -9090656.62547  -7054923.10946  22238483.7814                   22238482.2384
 -30998207.06648 -24120740.57445  21694085.7894                   21694083.4144
 -18125894.79346 -14094339.59444  24078276.7424                   24078277.8164
 -28065129.65248 -21835506.73447  20676191.8134                   20676187.1374
 11  7 27  1 58 30.0000000  0  9G25G10G12G17G09G05G04G27G02
   5106475.40647   4006795.57444  24182337.7424                   24182338.3244
 -22178765.67648 -17273455.72346  20987044.1644                   20987041.7344
 -16016405.31648 -12452559.85546  21464026.0634                   21464023.1764
 -35546498.75047 -27658363.91045  23310556.4774                   23310554.7344
  -9483980.35247  -7359456.04744  23864502.1414                   23864502.0704
  -9219402.28547  -7155244.34446  22213984.5234                   22213982.5314
 -30958889.21148 -24090103.28945  21701567.0394                   21701565.5904
 -18097068.72346 -14071877.82044  24083762.4694                   24083764.0234
 -28103465.33648 -21865378.68046  20668896.9384                   20668892.0354
 11  7 27  1 59  0.0000000  0  9G25G10G12G17G09G05G04G27G02
   4971197.57847   3901384.33244  24156595.6804                   24156596.3984
 -22221088.60948 -17306434.61746  20978990.3364                   20978988.4384
 -16109229.03148 -12524890.03146  21446361.9384                   21446359.9344
 -35526575.53147 -27642839.31245  23314347.0864                   23314345.5984
  -9439016.45347  -7324419.22744  23873057.4304                   23873057.9104
  -9347850.53547  -7255333.84046  22189541.5944                   22189539.4924
 -30919402.70348 -24059334.59045  21709081.4144                   21709079.2504
 -18068170.49247 -14049359.76244  24089262.1254                   24089263.3634
 -28141490.66448 -21895008.78946  20661660.8754                   20661656.5664
 11  7 27  1 59 30.0000000  0  9G25G10G12G17G09G05G04G27G02
   4836121.71947   3796130.46543  24130890.6334                   24130891.8444
 -22262762.81247 -17338908.00446  20971059.8444                   20971057.9614
 -16201589.72748 -12596859.41046  21428786.2344                   21428784.1214
 -35506477.81246 -27627178.72744  23318171.5704                   23318170.1414
  -9393881.13347  -7289248.83643  23881645.9924                   23881646.1054
  -9475990.56247  -7355183.15646  22165157.2194                   22165155.3364
 -30879741.71548 -24028429.92646  21716628.8594                   21716626.9344
 -18039194.75846 -14026781.31243  24094774.8054                   24094775.9964
 -28179198.62548 -21924391.60246  20654485.2344                   20654480.5314
 11  7 27  2  0  0.0000000  0  9G25G10G12G17G09G05G04G27G02
   4701252.00447   3691037.24644  24105226.7274                   24105226.9884
 -22303786.35248 -17370874.38746  20963253.4774                   20963251.2154
 -16293483.86748 -12668465.24646  21411299.7424                   21411297.0234
 -35486203.70346 -27611380.69544  23322029.7664                   23322028.0234
  -9348576.03147  -7253946.17244  23890267.5704                   23890266.8674
  -9603817.92647  -7454788.84046  22140832.2194                   22140830.5824
 -30839906.45347 -23997389.46545  21724208.8444                   21724207.0784
 -18010142.72346 -14004143.44143  24100304.1954                   24100304.1564
 -28216588.50848 -21953526.54346  20647370.3364                   20647365.8444
 11  7 27  2  0 30.0000000  0  9G25G10G12G17G09G05G04G27G02
   4566584.75847   3586101.77344  24079600.3054                   24079600.6764
 -22344165.24648 -17402338.44146  20955569.7194                   20955567.6334
 -16384915.54348 -12739710.71946  21393900.9384                   21393898.3674
 -35465759.31246 -27595449.96944  23325920.4694                   23325918.6294
  -9303111.10947  -7218519.04744  23898919.9694                   23898920.5594
  -9731336.12147  -7554153.60946  22116566.4384                   22116564.2344
 -30799905.59047 -23966219.96545  21731820.8524                   21731818.9344
 -17981023.58646 -13981453.28543  24105845.7114                   24105846.1804
 -28253667.85948 -21982419.52746  20640314.2194                   20640309.6414
 11  7 27  2  1  0.0000000  0  9G25G10G12G17G09G05G04G27G02
   4432131.40647   3481332.98444  24054014.3204                   24054014.1764
 -22383890.25848 -17433292.98046  20948010.3204                   20948007.8404
 -16475873.48448 -12810587.03946  21376591.6954                   21376589.4574
 -35445135.15646 -27579379.18444  23329844.7114                   23329842.9104
  -9257480.87547  -7182963.04744  23907602.5234                   23907603.9964
  -9858533.25847  -7653268.20745  22092361.3524                   22092359.8404
 -30759732.05147 -23934915.90645  21739465.5944                   21739463.7194
 -17951831.27046 -13958706.06643  24111399.8444                   24111401.6764
 -28290428.79348 -22011064.38746  20633318.6724                   20633314.1374
 11  7 27  2  1 30.0000000  0  9G25G10G12G17G09G05G04G27G02
   4297895.46147   3376733.60244  24028469.5004                   24028470.7464
 -22422959.78948 -17463736.75446  20940575.3984                   20940572.8874
 -16566354.57848 -12881091.79346  21359374.5164                   21359371.1804
 -35424329.57046 -27563167.03144  23333803.4384                   23333802.4844
  -9211688.00047  -7147280.31644  23916316.8444                   23916317.2154
  -9985405.69147  -7752129.78546  22068218.6564                   22068216.9534
 -30719387.03547 -23903478.24245  21747143.0474                   21747141.1724
 -17922567.43446 -13935903.09843  24116968.9694                   24116969.7774
 -28326871.62148 -22039461.37946  20626383.9924                   20626379.7544
 11  7 27  2  2  0.0000000  0  9G25G10G12G17G09G05G04G27G02
   4163877.83647   3272304.37144  24002966.6484                   24002967.4804
 -22461375.53947 -17493671.08646  20933265.2034                   20933262.6454
 -16656358.59848 -12951224.79746  21342246.9694                   21342244.2114
 -35403344.00046 -27546814.63744  23337797.5704                   23337795.3094
  -9165737.63347  -7111474.85944  23925060.2504                   23925060.7734
 -10111952.02047  -7850737.26246  22044137.5554                   22044135.6684
 -30678873.99647 -23871909.64545  21754852.6564                   21754850.6914
 -17893236.59446 -13913047.89143  24122549.8524                   24122549.3244
 -28362999.09848 -22067612.63747  20619509.3984                   20619505.1644
 11  7 27  2  2 30.0000000  0  9G25G10G12G17G09G05G04G27G02
   4030074.02047   3168041.74644  23977505.4224                   23977505.9614
 -22499144.19148 -17523101.19146  20926077.7734                   20926075.7114
 -16745890.42648 -13020989.86346  21325209.3134                   21325206.8054
 -35382185.72346 -27530327.66844  23341824.1024                   23341821.6254
  -9119639.99247  -7075554.68044  23933832.8984                   23933832.8914
 -10238176.85247  -7949094.21146  22020117.3054                   22020115.6024
 -30638202.30147 -23840217.40645  21762591.9844                   21762589.8054
 -17863848.89746 -13890148.42443  24128141.4844                   24128142.7704
 -28398819.39148 -22095524.53546  20612692.6174                   20612688.7344
 11  7 27  2  3  0.0000000  0  9G25G10G12G17G09G05G04G27G02
   3896487.63347   3063948.53544  23952083.9534                   23952085.2074
 -22536264.59848 -17552026.16046  20919014.3204                   20919012.0434
 -16834946.59048 -13090384.27746  21308262.5944                   21308259.9804
 -35360852.84846 -27513704.62544  23345883.1804                   23345880.9654
  -9073397.48047  -7039521.62144  23942633.1254                   23942632.7114
 -10364076.48047  -8047197.75846  21996159.5474                   21996157.9534
 -30597372.88748 -23808402.27345  21770361.8594                   21770359.8164
 -17834406.15646 -13867206.14843  24133745.8134                   24133747.3754
 -28434332.69948 -22123197.24246  20605934.5314                   20605930.2974
 11  7 27  2  3 30.0000000  0  9G25G10G12G17G09G05G04G27G02
   3763126.55147   2960030.90644  23926706.3284                   23926707.1294
 -22572731.10948 -17580441.60946  20912074.9454                   20912073.2344
 -16923520.37148 -13159402.80146  21291407.6644                   21291404.9414
 -35339339.57047 -27496941.01244  23349977.5704                   23349975.0234
  -9027008.42247  -7003374.35544  23951460.0554                   23951461.0594
 -10489642.28147  -8145041.17246  21972265.3134                   21972263.6484
 -30556382.43747 -23776461.66445  21778161.6804                   21778159.8054
 -17804905.49246 -13844218.68744  24139359.8674                   24139361.2194
 -28469534.64848 -22150627.31246  20599236.0554                   20599231.4064
 11  7 27  2  4  0.0000000  0  9G25G10G12G17G09G05G04G27G02
   3629993.61347   2856290.96544  23901372.0634                   23901371.7734
 -22608543.68447 -17608347.48046  20905260.0944                   20905257.5314
 -17011609.22748 -13228043.46146  21274644.8984                   21274642.0044
 -35317645.50846 -27480036.55144  23354105.4454                   23354103.4494
  -8980475.96947  -6967115.34844  23960315.8984                   23960316.5164
 -10614871.56247  -8242622.36346  21948434.8204                   21948432.7854
 -30515232.69147 -23744396.93445  21785992.2424                   21785990.5744
 -17775349.58646 -13821188.14843  24144984.0004                   24144984.8364
 -28504426.21548 -22177815.52746  20592596.4064                   20592591.7464
 11  7 27  2  4 30.0000000  0  9G25G10G12G17G09G05G04G27G02
   3497095.77747   2752734.25844  23876082.3444                   23876083.0514
 -22643697.72348 -17635740.21546  20898570.0634                   20898568.0124
 -17099206.40248 -13296300.98046  21257975.9774                   21257973.1644
 -35295765.94147 -27462987.53944  23358268.9064                   23358267.1724
  -8933799.05947  -6930743.79343  23969197.9454                   23969197.8954
 -10739757.28547  -8339935.85246  21924670.1094                   21924668.0354
 -30473921.30147 -23712206.24245  21793853.7504                   21793852.0704
 -17745736.73046 -13798113.26243  24150618.7504                   24150619.4184
 -28539004.35948 -22204759.52346  20586016.1024                   20586011.7894
 11  7 27  2  5  0.0000000  0  9G25G10G12G17G09G05G04G27G02
   3364433.89847   2649361.43844  23850837.7194                   23850838.1374
 -22678194.58248 -17662620.86346  20892005.8364                   20892003.3404
 -17186311.66448 -13364175.19546  21241400.3674                   21241397.4224
 -35273702.05147 -27445794.91444  23362467.5164                   23362465.4884
  -8886982.85947  -6894263.71543  23978106.6334                   23978105.3324
 -10864298.38748  -8436980.79746  21900970.2114                   21900968.2504
 -30432451.93048 -23679892.43745  21801745.1024                   21801743.3484
 -17716071.58246 -13774997.69943  24156264.0164                   24156265.2814
 -28573271.93048 -22231461.50846  20579495.2114                   20579491.3094
 11  7 27  2  5 30.0000000  0  9G25G10G12G17G09G05G04G27G02
   3232012.21947   2546175.72344  23825639.0314                   23825638.5274
 -22712032.87148 -17688988.33646  20885566.5634                   20885564.4024
 -17272921.44548 -13431663.31246  21224918.8594                   21224916.1764
 -35251452.03947 -27428457.23444  23366701.4454                   23366699.5274
  -8840029.42247  -6857676.62143  23987041.3364                   23987040.5354
 -10988490.18047  -8533753.55546  21877337.6334                   21877335.3364
 -30390825.00447 -23647455.86745  21809666.8134                   21809664.5634
 -17686355.21946 -13751842.19943  24161919.5634                   24161921.0084
 -28607228.07848 -22257920.82446  20573034.0704                   20573029.2894
 11  7 27  2  6  0.0000000  0  9G25G10G12G17G09G05G04G27G02
   3099825.80147   2443173.36344  23800484.5474                   23800484.7114
 -22745219.89848 -17714848.33646  20879251.1954                   20879248.8484
 -17359041.37948 -13498769.72746  21208530.7274                   21208528.2154
 -35229023.17247 -27410980.19544  23370969.5084                   23370967.3134
  -8792949.39546  -6820990.91443  23996000.1484                   23996001.0864
 -11112337.44547  -8630257.84846  21853769.9844                   21853768.0044
 -30349049.82447 -23614903.78145  21817615.8054                   21817614.1454
 -17656597.91446 -13728654.77343  24167581.5474                   24167583.4574
 -28640881.58648 -22284144.32447  20566629.6564                   20566625.3594
 11  7 27  2  6 30.0000000  0  9G25G10G12G17G09G05G04G27G02
   2967881.35947   2340359.55144  23775376.3754                   23775377.1644
 -22777751.69547 -17740197.77346  20873060.7114                   20873058.3674
 -17444665.03148 -13565489.43746  21192237.1884                   21192234.5474
 -35206410.83647 -27393360.18744  23375272.9924                   23375270.4224
  -8745742.20346  -6784206.18443  24004983.3754                   24004984.3054
 -11235833.45347  -8726488.44146  21830269.2664                   21830267.4884
 -30307124.41447 -23582234.62945  21825593.6724                   21825592.3554
 -17626798.39546 -13705434.41443  24173252.8284                   24173252.8914
 -28674229.68448 -22310129.83246  20560283.5394                   20560279.0744
 11  7 27  2  7  0.0000000  0  9G25G10G12G17G09G05G04G27G02
   2836186.35547   2237740.09844  23750315.9534                   23750316.6484
 -22809623.38748 -17765032.83246  20866995.6334                   20866993.1564
 -17529785.70348 -13631817.20346  21176039.0084                   21176036.4144
 -35183609.82047 -27375593.16044  23379611.8674                   23379609.7584
  -8698406.52346  -6747321.32043  24013990.9774                   24013991.8914
 -11358970.77347  -8822439.54346  21806837.3364                   21806834.9694
 -30265045.67247 -23549445.98845  21833601.1564                   21833599.8484
 -17596954.59046 -13682179.59443  24178931.6414                   24178932.7584
 -28707268.79748 -22335874.57846  20553996.8054                   20553991.9144
 11  7 27  2  7 30.0000000  0  9G25G10G12G17G09G05G04G27G02
   2704734.87947   2135310.38744  23725301.3444                   23725301.8594
 -22840843.51648 -17789360.18746  20861054.7734                   20861052.5164
 -17614409.92648 -13697758.12146  21159935.3834                   21159933.1604
 -35160628.15647 -27357685.37944  23383984.7194                   23383983.5084
  -8650954.30946  -6710345.67643  24023021.5164                   24023021.4064
 -11481755.05547  -8918115.54346  21783472.1414                   21783470.3054
 -30222824.45348 -23516546.33245  21841635.8134                   21841633.8914
 -17567078.05546 -13658899.28143  24184616.5554                   24184618.5084
 -28740008.34448 -22361385.90646  20547766.3834                   20547761.7734
 11  7 27  2  8  0.0000000  0  9G25G10G12G17G09G05G04G27G02
   2573530.83247   2033073.47344  23700333.5784                   23700333.6484
 -22871411.02048 -17813179.00446  20855237.5634                   20855235.6374
 -17698534.57848 -13763309.77046  21143927.2664                   21143924.7504
 -35137464.22747 -27339635.56644  23388392.5864                   23388391.1454
  -8603387.30147  -6673280.54343  24032073.4694                   24032072.8914
 -11604181.84047  -9013512.98046  21760174.8524                   21760172.9884
 -30180461.20748 -23483536.00445  21849697.4534                   21849695.8634
 -17537169.94946 -13635594.39543  24190308.6644                   24190308.9574
 -28772448.14548 -22386663.65247  20541593.2034                   20541588.8984
 11  7 27  2  8 30.0000000  0  9G25G10G12G17G09G05G04G27G02
   2442582.68447   1931035.98044  23675415.4774                   23675416.1374
 -22901319.81248 -17836484.53546  20849546.3834                   20849544.1884
 -17782151.56248 -13828465.83246  21128015.2664                   21128012.9804
 -35114112.02347 -27321439.03944  23392837.1644                   23392835.0944
  -8555703.33247  -6636124.26244  24041147.9774                   24041147.8484
 -11726243.28547  -9108625.73446  21736947.2814                   21736945.3364
 -30137951.87547 -23450411.85545  21857786.8754                   21857784.8834
 -17507227.22746 -13612262.39543  24196007.1954                   24196005.6094
 -28804583.68748 -22411704.31247  20535478.1334                   20535473.8284
 11  7 27  2  9  0.0000000  0  9G25G10G12G17G09G05G04G27G02
   2311879.59047   1829189.41044  23650542.9614                   23650542.9844
 -22930583.60948 -17859287.47746  20843977.4224                   20843975.3444
 -17865272.00048 -13893234.96946  21112198.0944                   21112195.1564
 -35090584.61347 -27303105.98444  23397313.6254                   23397312.0634
  -8507919.31247  -6598890.00044  24050240.8984                   24050241.5274
 -11847949.81247  -9203461.92646  21713787.6954                   21713785.7114
 -30095311.84848 -23417185.86345  21865900.4224                   21865899.1414
 -17477266.10946 -13588916.11343  24201708.0784                   24201710.0984
 -28836429.32048 -22436519.07046  20529417.9694                   20529413.4574
 11  7 27  2  9 30.0000000  0  9G25G10G12G17G09G05G04G27G02
   2181433.54747   1727543.12944  23625719.9844                   23625719.7704
 -22959193.12147 -17881580.58246  20838533.3364                   20838531.2664
 -17947885.68748 -13957609.24246  21096477.1414                   21096474.6764
 -35066872.31247 -27284628.88744  23401825.4454                   23401824.6214
  -8460028.89147  -6561572.84844  24059354.3984                   24059353.5594
 -11969289.32047  -9298012.13746  21690697.0164                   21690694.5944
 -30052533.58248 -23383852.14545  21874041.4454                   21874039.6684
 -17447280.01246 -13565550.41843  24207413.7734                   24207416.3054
 -28867976.99648 -22461101.65246  20523414.5784                   20523410.2664
 11  7 27  2 10  0.0000000  0  9G25G10G12G17G09G05G04G27G02
   2051243.71547   1626096.51644  23600945.4304                   23600945.4384
 -22987152.24248 -17903366.90246  20833212.7034                   20833210.5004
 -18029993.48448 -14021589.30546  21080852.6644                   21080849.7344
 -35042978.21547 -27266010.11344  23406372.9694                   23406371.0084
  -8412039.03946  -6524178.20343  24068485.6804                   24068485.9734
 -12090262.68048  -9392277.03546  21667676.5864                   21667674.5474
 -30009622.62148 -23350415.03145  21882206.9304                   21882204.9104
 -17417274.82845 -13542169.96143  24213124.0164                   24213125.2974
 -28899231.44948 -22485455.74246  20517467.2114                   20517462.4734
 11  7 27  2 10 30.0000000  0  9G25G10G12G17G09G05G04G27G02
   1921319.14147   1524856.57044  23576222.0944                   23576222.8674
 -23014454.79748 -17924641.59846  20828017.4774                   20828014.8484
 -18111587.29348 -14085168.86746  21065325.7194                   21065322.9064
 -35018895.71547 -27247244.53144  23410955.2734                   23410953.9104
  -8363946.69546  -6486703.74644  24077637.5394                   24077637.7074
 -12210860.52748  -9486249.31646  21644727.4534                   21644725.4454
 -29966574.33247 -23316870.90245  21890398.5634                   21890396.6454
 -17387247.39846 -13518771.96543  24218838.1804                   24218838.2624
 -28930187.57048 -22509577.37946  20511576.5004                   20511571.8914
 11  7 27  2 11  0.0000000  0  9G25G10G12G17G09G05G04G27G02
   1791655.88347   1423820.28544  23551547.7664                   23551549.0314
 -23041107.37548 -17945409.82046  20822945.7034                   20822942.9264
 -18192671.49648 -14148351.33246  21049896.1414                   21049893.6644
 -34994631.02747 -27228336.98844  23415573.1954                   23415571.6684
  -8315762.00847  -6449157.30544  24086806.7734                   24086807.8324
 -12331086.78548  -9579932.05946  21621849.0004                   21621847.1024
 -29923397.06247 -23283226.27345  21898614.7034                   21898613.0904
 -17357206.87946 -13495363.89143  24224553.5164                   24224555.6644
 -28960852.73448 -22533472.28947  20505740.8984                   20505736.6454
 11  7 27  2 11 30.0000000  0  9G25G10G12G17G09G05G04G27G02
   1662258.31347   1322991.01244  23526924.3284                   23526924.9694
 -23067108.69948 -17965670.57446  20817997.6174                   20817995.2194
 -18273242.55948 -14211133.94146  21034563.9064                   21034561.0314
 -34970182.08247 -27209285.84844  23420226.0944                   23420223.5744
  -8267486.43047  -6411539.99644  24095993.4454                   24095995.1884
 -12450936.97748  -9673321.76646  21599042.1414                   21599040.2074
 -29880091.01247 -23249481.30945  21906855.8134                   21906853.6724
 -17327154.15646 -13471946.30543  24230273.8054                   24230276.6604
 -28991226.33248 -22557140.02346  20499961.0394                   20499956.8244
 11  7 27  2 12  0.0000000  0  9G25G10G12G17G09G05G04G27G02
   1533122.42647   1222365.60944  23502350.4924                   23502350.9844
 -23092465.75448 -17985429.29746  20813172.5784                   20813170.3554
 -18353305.50048 -14273520.61746  21019328.3914                   21019325.5704
 -34945555.19547 -27190096.06644  23424912.1484                   23424909.5514
  -8219129.72746  -6373859.48043  24105194.9694                   24105195.6094
 -12570415.30948  -9766421.70746  21576306.3524                   21576304.7074
 -29836664.70347 -23215642.62945  21915119.2424                   21915117.6954
 -17297098.63346 -13448526.50443  24235993.8204                   24235996.4384
 -29021316.49648 -22580586.90646  20494235.0554                   20494230.4844
 11  7 27  2 12 30.0000000  0  9G25G10G12G17G09G05G04G27G02
   1404261.07847   1121954.19544  23477829.1414                   23477829.3794
 -23117168.31248 -18004678.03546  20808471.4844                   20808469.4884
 -18432847.70348 -14335501.52046  21004192.2664                   21004189.2934
 -34920739.56647 -27170759.23044  23429633.9454                   23429632.5044
  -8170685.12546  -6336110.50443  24114413.5554                   24114413.3204
 -12689508.79748  -9859221.77046  21553643.6954                   21553641.9494
 -29793109.72747 -23181703.68445  21923408.0394                   21923406.0984
 -17267032.64146 -13425098.50043  24241714.2734                   24241715.5554
 -29051113.83648 -22603805.58646  20488565.0234                   20488560.0664
 11  7 27  2 13  0.0000000  0  9G25G10G12G17G09G05G04G27G02
   1275678.91447   1021760.27344  23453360.1724                   23453360.7814
 -23141215.10948 -18023415.78146  20803895.9774                   20803893.4804
 -18511865.78548 -14397074.01246  20989155.1954                   20989152.6454
 -34895733.23447 -27151273.77744  23434392.4844                   23434390.8324
  -8122154.28146  -6298294.27743  24123649.0474                   24123649.7934
 -12808212.78148  -9951718.32446  21531054.7734                   21531052.6884
 -29749425.77047 -23147664.23845  21931720.5704                   21931718.6484
 -17236957.03546 -13401663.01243  24247437.8204                   24247437.9654
 -29080617.81648 -22626795.67246  20482950.1954                   20482945.9184
 11  7 27  2 13 30.0000000  0  9G25G10G12G17G09G05G04G27G02
   1147375.67247    921783.71944  23428945.3594                   23428945.6024
 -23164609.39148 -18041645.08246  20799444.0004                   20799441.7704
 -18590360.43048 -14458238.62946  20974218.3674                   20974215.7274
 -34870538.70347 -27131641.67644  23439187.2274                   23439185.4614
  -8073543.15246  -6260415.55944  24132899.7584                   24132900.8284
 -12926527.53147 -10043911.59446  21508540.6254                   21508538.2704
 -29705617.83247 -23113528.16845  21940057.0944                   21940055.0124
 -17206877.40246 -13378224.39843  24253161.8284                   24253164.1724
 -29109832.30948 -22649560.18446  20477390.7814                   20477386.8554
 11  7 27  2 14  0.0000000  0  9G25G10G12G17G09G05G04G27G02
   1019353.58647    822026.23044  23404582.9144                   23404583.2274
 -23187352.02348 -18059366.59046  20795116.1724                   20795113.6764
 -18668331.03948 -14518994.90646  20959380.8594                   20959378.1024
 -34845156.01647 -27111862.96544  23444017.3834                   23444015.7424
  -8024855.50846  -6222477.19144  24142165.6484                   24142166.2584
 -13044451.00848 -10135799.96546  21486099.8984                   21486098.0354
 -29661687.78147 -23079296.96145  21948415.9304                   21948414.8364
 -17176796.96146 -13354785.14143  24258885.7424                   24258887.7894
 -29138759.14548 -22672100.56246  20471886.5474                   20471882.4024
 11  7 27  2 14 30.0000000  0  9G25G10G12G17G09G05G04G27G02
    891613.30147    722488.36345  23380276.1174                   23380276.4454
 -23209445.03148 -18076581.90246  20790912.0314                   20790909.4734
 -18745777.15248 -14579342.48446  20944643.3524                   20944640.7624
 -34819586.83646 -27091938.92644  23448882.7114                   23448881.0864
  -7976096.63346  -6184483.30944  24151443.5004                   24151444.0044
 -13161982.16448 -10227382.63346  21463734.8834                   21463732.5234
 -29617639.61747 -23044973.70745  21956798.7194                   21956796.7734
 -17146720.15246 -13331348.72343  24264609.1414                   24264609.7584
 -29167401.28548 -22694419.09446  20466436.2344                   20466431.9344
 11  7 27  2 15  0.0000000  0  9G25G10G12G17G09G05G04G27G02
    764156.80547    623171.62544  23356021.5394                   23356021.6024
 -23230890.01648 -18093292.26246  20786831.0864                   20786828.6884
 -18822697.66448 -14639280.50046  20930005.8674                   20930002.6564
 -34793831.67647 -27071869.97344  23453783.9844                   23453781.7974
  -7927270.52046  -6146436.98044  24160734.9534                   24160734.4454
 -13279119.20748 -10318658.20346  21441444.3914                   21441442.0634
 -29573475.75447 -23010560.30145  21965202.7664                   21965201.0314
 -17116650.43446 -13307917.80943  24270331.6094                   24270332.8914
 -29195760.64848 -22716517.27047  20461039.3754                   20461035.1294
 11  7 27  2 15 30.0000000  0  9G25G10G12G17G09G05G04G27G02
    636989.24647    524080.04344  23331822.3444                   23331823.1334
 -23251684.74248 -18109495.92646  20782874.0164                   20782871.5864
 -18899088.55548 -14698805.82446  20915469.0084                   20915466.0784
 -34767887.50047 -27051653.73044  23458720.5634                   23458718.8204
  -7878377.92646  -6108338.87143  24170038.1564                   24170038.9024
 -13395857.27748 -10409622.88346  21419230.0864                   21419228.0004
 -29529195.51247 -22976056.20345  21973628.9534                   21973627.3524
 -17086587.90646 -13284492.54342  24276050.8914                   24276055.6844
 -29223835.74248 -22738393.93746  20455696.6954                   20455692.1414
 11  7 27  2 16  0.0000000  0  9G25G10G12G17G09G05G04G27G02
    510104.73047    425209.04745  23307677.0234                   23307677.5744
 -23271838.28148 -18125199.94946  20779039.0634                   20779036.3754
 -18974956.47748 -14757923.62546  20901032.0394                   20901028.6564
 -34741762.73847 -27031296.76244  23463692.5234                   23463690.8094
  -7829430.71546  -6070198.26243  24179353.0864                   24179354.2234
 -13512201.95348 -10500281.02046  21397090.0554                   21397087.9304
 -29484808.96947 -22941469.27745  21982075.2974                   21982074.0744
 -17056544.047 5                  24281768.148
 -29251636.34848 -22760056.71546  20450406.6414                   20450402.1724
 11  7 27  2 16 30.0000000  0  9G25G10G12G17G09G05G04G27G02
    383518.37147    326570.38344  23283588.4774                   23283588.5744
 -23291338.77048 -18140395.11746  20775328.1414                   20775325.7274
 -19050287.34448 -14816622.95346  20886696.9614                   20886693.8794
 -34715444.77047 -27010789.24244  23468700.6954                   23468698.4304
  -7780419.72346  -6032007.97343  24188679.5864                   24188680.6724
 -13628138.25448 -10590620.93746  21375028.3674                   21375026.0274
 -29440305.66447 -22906791.37145  21990544.1564                   21990542.8014
 -17026508.84446 -13253593.75052  24287485.9064                   24287483.0594
 -29279151.42648 -22781497.00046  20445170.8674                   20445166.3204
 11  7 27  2 17  0.0000000  0  9G25G10G12G17G09G05G04G27G02
    257221.28147    228157.10944  23259554.3134                   23259554.6214
 -23310198.34448 -18155090.87146  20771738.9774                   20771736.5514
 -19125090.93448 -14874911.42646  20872462.0864                   20872458.8284
 -34688944.83647 -26990139.94544  23473742.8914                   23473741.6414
  -7731359.64146  -5993779.41043  24198014.7114                   24198015.7274
 -13743675.16848 -10680649.66446  21353042.3364                   21353040.0434
 -29395698.59447 -22872032.62945  21999032.5394                   21999030.7974
 -16996496.66446 -13230207.76243  24293196.1804                   24293198.6134
 -29306393.24648 -22802724.37547  20439986.5164                   20439981.9344
 11  7 27  2 17 30.0000000  0  9G25G10G12G17G09G05G04G27G02
   1706645.02347   1357578.25844  23535370.9064                   23535370.1764
 -21752992.27748 -16941683.52046  21068065.7114                   21068063.2704
 -17623938.28948 -13705182.04746  21158121.8524                   21158118.9384
 -33086838.51647 -25741745.43044  23778613.6564                   23778612.1564
  -6106830.83646  -4727912.89843  24507151.8834                   24507152.4064
 -12283381.40648  -9542758.36746  21630926.6884                   21630924.8984
 -27775566.50847 -21609592.03545  22307333.3284                   22307331.8834
 -15391086.46146 -11979238.93043  24598695.4534                   24598698.9884
 -27757937.52348 -21596135.48046  20734647.8834                   20734643.4064
 11  7 27  2 18  0.0000000  0  9G25G10G12G17G09G05G04G27G02
   1580953.95347   1259637.21144  23511452.2894                   23511452.5234
 -21770552.34848 -16955366.66846  21064724.1804                   21064721.6294
 -17697662.58648 -13762629.50846  21144092.6414                   21144089.4884
 -33059953.78947 -25720796.28944  23783729.7734                   23783727.9774
  -6057662.94946  -4689600.34043  24516508.6644                   24516509.8164
 -12398092.09047  -9632143.25446  21609097.9774                   21609095.9024
 -27730737.89147 -21574660.64845  22315864.2194                   22315862.1994
 -15361108.73447 -11955879.72343  24604402.2734                   24604401.9494
 -27784617.10248 -21616924.73446  20729570.9454                   20729566.1134
 11  7 27  2 18 30.0000000  0  9G25G10G12G17G09G05G04G27G02
   1455564.01247   1161930.84044  23487591.3204                   23487591.3874
 -21787469.53948 -16968548.86746  21061504.7504                   21061502.6564
 -17770850.70348 -13819659.17246  21130165.1414                   21130161.6724
 -33032882.36346 -25699701.64844  23788881.7584                   23788879.2114
  -6008451.91846  -4651254.21543  24525873.3674                   24525875.8714
 -12512391.80148  -9721207.91446  21587347.1024                   21587345.3674
 -27685806.94947 -21539649.53145  22324413.7664                   22324412.4384
 -15331157.85247 -11932541.36743  24610100.1174                   24610099.7464
 -27811023.28148 -21637500.94946  20724546.1024                   20724541.7344
 11  7 27  2 19  0.0000000  0  9G25G10G12G17G09G05G04G27G02
   1330470.41047   1064455.37544  23463786.8204                   23463787.0744
 -21803752.05148 -16981236.52046  21058406.6254                   21058404.0314
 -17843508.40648 -13876275.52746  21116339.0004                   21116335.6374
 -33005631.22747 -25678466.97744  23794067.8444                   23794065.2344
  -5959208.50446  -4612882.78143  24535244.0314                   24535244.8714
 -12626285.49648  -9809956.20346  21565674.0394                   21565671.9964
 -27640782.70747 -21504565.70745  22332982.1804                   22332980.1914
 -15301243.80946 -11909231.81643  24615792.3524                   24615792.8244
 -27837164.61748 -21657870.79346  20719571.9224                   20719566.9144
 11  7 27  2 19 30.0000000  0  8G25G10G12G17G09G05G04G02
   1205681.69147    967217.48444  23440040.0084                   23440040.2704
 -21819394.62548 -16993425.51246  21055429.7894                   21055427.4344
 -17915627.85548 -13932472.46946  21102615.0784                   21102611.6954
 -32978194.19147 -25657087.45744  23799287.7274                   23799286.4454
  -5909929.78946  -4574483.83243  24544621.7814                   24544621.5744
 -12739764.63748  -9898381.46546  21544079.6414                   21544077.6804
 -27595661.02347 -21469405.96145  22341567.8914                   22341566.3984
 -27863036.41848 -21678030.60546  20714648.1644                   20714643.4144
 11  7 27  2 20  0.0000000  0  8G25G10G12G17G09G05G04G02
   1081202.42647    870220.77344  23416352.7584                   23416353.5164
 -21834396.28548 -17005115.09046  21052574.7894                   21052572.3484
 -17987205.84048 -13988247.48846  21088994.5004                   21088990.8134
 -32950569.07846 -25635561.39544  23804544.6724                   23804543.5864
  -5860617.10947  -4536058.35543  24554006.0864                   24554007.6804
 -12852824.76648  -9986480.22346  21522565.0394                   21522562.7664
 -27550441.50047 -21434169.98845  22350173.9384                   22350171.9694
 -27888637.60548 -21697979.55146  20709776.4384                   20709771.7194
 11  7 27  2 20 30.0000000  0  8G25G10G12G17G09G05G04G02
    957040.57047    773471.34044  23392725.6484                   23392725.0314
 -21848752.45748 -17016301.70346  21049843.0474                   21049840.8484
 -18058235.38748 -14043595.16046  21075477.7034                   21075474.5904
 -32922750.52346 -25613884.61344  23809838.5234                   23809837.0234
  -5811268.44947  -4497604.89843  24563396.8834                   24563398.5704
 -12965457.93048 -10074246.28546  21501132.0314                   21501129.4344
 -27505120.64847 -21398855.03145  22358797.3984                   22358795.7274
 -27913964.44548 -21717714.73046  20704956.9844                   20704952.2424
 11  7 27  2 21  0.0000000  0  8G25G10G12G17G09G05G04G02
    833199.50847    676971.87544  23369159.3524                   23369159.3014
 -21862462.80548 -17026985.06646  21047233.9844                   21047231.9224
 -18128714.04748 -14098513.57046  21062066.1884                   21062062.7384
 -32894737.44546 -25592056.23844  23815170.1414                   23815167.5354
  -5761886.30946  -4459125.35543  24572793.1644                   24572794.8984
 -13077661.03948 -10161677.23846  21479780.3834                   21479778.0904
 -27459699.22747 -21363461.72345  22367441.3594                   22367439.1804
 -27939017.21148 -21737236.33246  20700189.5234                   20700184.8484
 11  7 27  2 21 30.0000000  0  8G25G10G12G17G09G05G04G02
    709685.95747    580727.62544  23345655.3204                   23345654.5164
 -21875524.12548 -17037162.69146  21044748.4384                   21044746.2234
 -18198636.38348 -14152998.48446  21048760.2584                   21048757.1644
 -32866525.43746 -25570072.88744  23820537.4844                   23820535.8634
  -5712469.52746  -4420618.86643  24582198.3674                   24582197.5824
 -13189427.55148 -10248767.99246  21458511.6024                   21458509.5944
 -27414174.98047 -21327988.30945  22376104.0554                   22376102.0984
 -27963793.09448 -21756542.18046  20695474.8134                   20695470.2034
 11  7 27  2 22  0.0000000  0  8G25G10G12G17G09G05G04G02
    586496.30947    484735.73444  23322213.3674                   23322212.5784
 -21887943.44148 -17046840.05946  21042385.2974                   21042382.5274
 -18268007.27048 -14207053.70746  21035559.6334                   21035556.2704
 -32838120.55147 -25547939.21144  23825943.5164                   23825941.7814
  -5663028.06246  -4382093.09443  24591606.8754                   24591606.7894
 -13300761.13748 -10335521.38746  21437325.7504                   21437323.6294
 -27368555.64147 -21292440.78145  22384785.1334                   22384783.1414
 -27988299.37148 -21775637.95346  20690811.3674                   20690807.0394
 11  7 27  2 22 30.0000000  0  8G25G10G12G17G09G05G04G02
    463631.20747    388996.75444  23298832.0944                   23298832.1054
 -21899723.91047 -17056019.62146  21040143.4694                   21040140.9774
 -18336826.94548 -14260679.41446  21022463.6724                   21022460.6994
 -32809524.60546 -25525656.66044  23831384.9694                   23831383.2624
  -5613566.75646  -4343551.86443  24601018.9144                   24601020.6294
 -13411661.26248 -10421937.03546  21416222.0234                   21416219.5664
 -27322844.81247 -21256821.96945  22393483.3364                   22393481.9654
 -28012539.25048 -21794526.14846  20686198.9454                   20686194.2344
 11  7 27  2 23  0.0000000  0  8G25G10G12G17G09G05G04G02
    341092.08247    293511.80144  23275513.6884                   23275514.0124
 -21910867.64847 -17064703.03146  21038022.7664                   21038020.3324
 -18405095.17648 -14313875.42246  21009472.5394                   21009469.3674
 -32780738.52046 -25503225.98044  23836862.4774                   23836860.6604
  -5564089.75845  -4304998.47343  24610433.0944                   24610435.8554
 -13522126.71548 -10508013.96946  21395200.8054                   21395198.6134
 -27277045.39847 -21221134.13345  22402198.9454                   22402197.0824
 -28036515.14548 -21813208.63746  20681636.3674                   20681631.8754
 11  7 27  2 23 30.0000000  0  8G25G10G12G17G09G05G04G02
    218880.64847    198282.17245  23252257.6334                   23252258.3524
 -21921376.66847 -17072891.85546  21036022.9614                   21036020.3674
 -18472811.29748 -14366641.21546  20996586.3984                   20996583.3834
 -32751763.10547 -25480647.74644  23842376.8754                   23842375.0004
  -5514601.35246  -4266436.18743  24619851.2584                   24619852.5004
 -13632156.19548 -10593751.18046  21374263.1254                   21374260.8674
 -27231160.02347 -21185379.32445  22410930.3594                   22410928.7624
 -28060229.14548 -21831687.05546  20677123.6724                   20677118.9924
 11  7 27  2 24  0.0000000  0  8G25G10G12G17G09G05G04G02
     97000.04347    103310.34445  23229064.9454                   23229065.4574
 -21931251.47747 -17080586.49246  21034143.5704                   21034141.3054
 -18539972.72748 -14418974.78546  20983806.1724                   20983803.1294
 -32722597.66847 -25457921.42644  23847926.7664                   23847925.3134
  -5465104.43446  -4227867.14843  24629269.8364                   24629270.5904
 -13741746.87948 -10679146.47746  21353408.4064                   21353406.3204
 -27185189.45747 -21149558.14545  22419678.8834                   22419677.1684
 -28083681.76248 -21849961.79346  20672660.7344                   20672656.1954
 11  7 27  2 24 30.0000000  0  8G25G10G12G17G09G05G04G02
    -24540.49247      8603.49245  23205936.2274                   23205936.5944
 -21940486.23847 -17087782.38746  21032386.6334                   21032383.7234
 -18606572.57848 -14470870.76646  20971132.6334                   20971129.6804
 -32693235.49647 -25435041.84444  23853513.6644                   23853512.5314
  -5415595.57845  -4189288.91443  24638691.1804                   24638691.1954
 -13850889.18748 -10764192.39546  21332639.3364                   21332637.2664
 -27139129.00847 -21113666.91845  22428443.8914                   22428441.7814
 -28106867.80148 -21868028.80946  20668248.5314                   20668243.6884
 11  7 27  2 25  0.0000000  0  8G25G10G12G17G09G05G04G02
   -145744.14147    -85840.84444  23182871.9384                   23182872.0234
 -21949087.60247 -17094484.71946  21030749.5864                   21030747.1954
 -18672614.92248 -14522332.31246  20958565.0864                   20958561.9774
 -32663681.99247 -25412013.12944  23859137.7664                   23859135.9534
  -5366083.38746  -4150708.05543  24648112.9304                   24648114.3404
 -13959586.68748 -10848891.71146  21311955.1724                   21311952.7074
 -27092985.91447 -21077711.27345  22437224.1644                   22437222.7664
 -28129794.12148 -21885893.45346  20663885.6254                   20663880.8634
 11  7 27  2 25 30.0000000  0  8G25G10G12G17G09G05G04G02
   -266606.84447   -180019.53144  23159872.3054                   23159872.7234
 -21957055.59847 -17100693.52046  21029233.5704                   21029231.1684
 -18738096.73848 -14573357.09446  20946104.4384                   20946101.5434
 -32633935.56247 -25388834.08244  23864798.6644                   23864796.7034
  -5316569.75446  -4112126.08243  24657535.8204                   24657537.2074
 -14067835.80148 -10933241.62146  21291355.6334                   21291353.7664
 -27046760.19947 -21041691.26245  22446021.1644                   22446018.8364
 -28152460.59448 -21903555.62146  20659572.5634                   20659567.7194
 11  7 27  2 26  0.0000000  0  8G25G10G12G17G09G05G04G02
   -387130.05947   -273933.68445  23136937.2814                   23136937.2504
 -21964395.48847 -17106412.89546  21027836.3594                   21027834.3364
 -18803020.61748 -14623947.11346  20933750.0784                   20933746.4654
 -32604000.06247 -25365507.71944  23870495.1024                   23870493.5984
  -5267061.73447  -4073548.40643  24666956.5704                   24666956.3594
 -14175638.29748 -11017243.52746  21270841.9384                   21270839.2464
 -27000457.43047 -21005611.20745  22454832.1484                   22454830.7544
 -28174872.26248 -21921019.24246  20655307.5864                   20655303.0554
 11  7 27  2 26 30.0000000  0  8G25G10G12G17G09G05G04G02
   -507317.67647   -367586.32044  23114066.5474                   23114066.4264
 -21971114.35948 -17111648.35546  21026558.6804                   21026556.2774
 -18867391.84048 -14674106.48846  20921500.4694                   20921497.7234
 -32573881.66447 -25342038.81644  23876226.6804                   23876225.2934
  -5217569.25846  -4034982.84443  24676374.4774                   24676375.6214
 -14282998.18448 -11100900.54346  21250411.9844                   21250409.5474
 -26954085.82447 -20969477.51245  22463656.1564                   22463654.3874
 -28197036.92648 -21938290.40246  20651089.6024                   20651085.2734
 11  7 27  2 27  0.0000000  0  8G25G10G12G17G09G05G04G02
   -627154.12147   -460965.33645  23091262.3444                   23091263.0904
 -21977200.64548 -17116390.89846  21025399.7664                   21025397.6334
 -18931196.25848 -14723824.19546  20909358.6334                   20909355.8554
 -32543567.38747 -25318417.31244  23881994.5474                   23881993.4344
  -5168081.99247  -3996421.39843  24685792.6414                   24685793.7894
 -14389899.89148 -11184200.53946  21230069.0164                   21230067.2234
 -26907633.98047 -20933281.30145  22472495.6644                   22472494.7074
 -28218942.37148 -21955359.56246  20646921.4384                   20646916.5394
 11  7 27  2 27 30.0000000  0  8G25G10G12G17G09G05G04G02
   -746645.25847   -554075.29345  23068524.5234                   23068524.9534
 -21982663.77047 -17120647.86746  21024360.2734                   21024357.9454
 -18994440.77048 -14773105.60946  20897323.5394                   20897320.6804
 -32513065.96946 -25294649.98844  23887799.1564                   23887797.4384
  -5118611.68446  -3957873.12543  24695205.7584                   24695206.8634
 -14496349.73848 -11267148.43046  21209812.0164                   21209809.7384
 -26861111.88347 -20897030.33245  22481348.3754                   22481347.4884
 -28240598.67648 -21972234.59446  20642800.3284                   20642795.4774
 11  7 27  2 28  0.0000000  0  8G25G10G12G17G09G05G04G02
   -865783.25847   -646910.07045  23045852.9694                   23045853.1094
 -21987499.93748 -17124416.29346  21023439.9384                   21023437.9064
 -19057119.03548 -14821945.79346  20885396.4224                   20885393.4884
 -32482371.53547 -25270732.23844  23893639.9304                   23893639.0434
  -5069156.34446  -3919336.54743  24704616.5704                   24704616.0704
 -14602340.37148 -11349738.49646  21189643.0314                   21189640.3014
 -26814515.74247 -20860721.67645  22490215.7034                   22490214.2304
 -28262001.68448 -21988912.23846  20638727.5004                   20638722.8054
 11  7 27  2 28 30.0000000  0  8G25G10G12G17G09G05G04G02
   -984568.16847   -739469.71945  23023248.6254                   23023249.0124
 -21991713.04748 -17127699.22346  21022638.2114                   21022635.8914
 -19119231.96148 -14870345.44146  20873576.7814                   20873573.3204
 -32451486.48046 -25246665.96143  23899516.7034                   23899515.1644
  -5019721.74246  -3880816.14143  24714023.9224                   24714024.1054
 -14707872.00048 -11431970.90246  21169560.9304                   21169558.4304
 -26767849.63347 -20824358.47345  22499095.9924                   22499094.0744
 -28283155.27048 -22005395.55146  20634701.9224                   20634697.0594
 11  7 27  2 29  0.0000000  0  8G25G10G12G17G09G05G04G02
  -1102994.98047   -831750.32045  23000713.3204                   23000714.1024
 -21995301.84047 -17130495.66846  21021955.0784                   21021953.0084
 -19180776.59848 -14918302.28546  20861864.8834                   20861862.0314
 -32420408.53946 -25222449.35243  23905431.5864                   23905429.2584
  -4970308.44146  -3842312.34043  24723427.0394                   24723428.7034
 -14812939.98048 -11513842.01246  21149567.2034                   21149564.9104
 -26721112.73447 -20787940.11345  22507989.7584                   22507988.2544
 -28304058.25848 -22021683.59446  20630724.1564                   20630719.5274
 11  7 27  2 29 30.0000000  0  8G25G10G12G17G09G05G04G02
  -1221058.86747   -923748.14145  22978246.2734                   22978246.2234
 -21998265.12547 -17132804.70746  21021391.3594                   21021388.9964
 -19241749.05148 -14965813.25046  20850262.4144                   20850259.3594
 -32389135.39146 -25198080.67644  23911382.4844                   23911380.9264
  -4920917.27345  -3803825.86743  24732825.1174                   24732828.5864
 -14917539.74248 -11595348.28546  21129662.0784                   21129659.7274
 -26674304.43747 -20751466.12145  22516896.7814                   22516894.7584
 -28324709.50448 -22037775.45346  20626794.7814                   20626789.6134
 11  7 27  2 30  0.0000000  0  8G25G10G12G17G09G05G04G02
  -1338762.99247  -1015465.63345  22955847.9384                   22955847.8914
 -22000610.24247 -17134632.05546  21020945.0394                   21020942.1764
 -19302154.07848 -15012882.07846  20838767.4844                   20838764.7114
 -32357672.37546 -25173564.06244  23917369.7034                   23917367.9304
  -4871556.60245  -3765363.13343  24742218.9614                   24742220.8204
 -15021675.00448 -11676492.60546  21109846.2344                   21109843.4924
 -26627431.71947 -20714941.93445  22525816.7734                   22525815.0744
 -28345115.77748 -22053676.43046  20622911.4304                   20622906.4614
 11  7 27  2 30 30.0000000  0  8G25G10G12G17G09G05G04G02
  -1456108.73847  -1106903.89845  22933517.9454                   22933517.2304
 -22002342.41447 -17135981.78946  21020615.6884                   21020613.1564
 -19361994.50048 -15059510.94946  20827380.2734                   20827377.3794
 -32326023.46146 -25148902.55944  23923392.8284                   23923390.1804
  -4822233.98846  -3726929.98043  24751605.3594                   24751605.2934
 -15125347.06648 -11757275.98846  21090117.8134                   21090115.6294
 -26580500.05147 -20678371.80145  22534747.2814                   22534745.8324
 -28365282.22748 -22069390.52746  20619073.5004                   20619068.7664
 11  7 27  2 31  0.0000000  0  8G25G10G12G17G09G05G04G02
  -1573093.68447  -1198061.02345  22911256.2584                   22911256.0594
 -22003463.29747 -17136855.18446  21020402.2344                   21020399.7304
 -19421269.19548 -15105698.99646  20816100.8834                   20816097.5824
 -32294188.78146 -25124096.34443  23929449.2504                   23929448.3754
  -4772952.75846  -3688529.08243  24760983.0784                   24760982.6804
 -15228554.17248 -11837697.07846  21070478.1094                   21070475.6484
 -26533511.16447 -20641757.07845  22543689.0704                   22543687.3284
 -28385210.19948 -22084918.81246  20615281.4064                   20615276.5474
 11  7 27  2 31 30.0000000  0  8G25G10G12G17G09G05G04G02
  -1689705.43447  -1288927.31245  22889066.1724                   22889065.9224
 -22003963.91048 -17137245.25846  21020306.8204                   21020304.7154
 -19479967.04748 -15151437.56646  20804930.8834                   20804927.5434
 -32262158.14546 -25099137.43443  23935545.0634                   23935543.4734
  -4723705.98246  -3650155.04543  24770353.9694                   24770355.0004
 -15331284.10948 -11917746.34846  21050929.5944                   21050926.9024
 -26486456.55547 -20605091.16444  22552643.2034                   22552641.6684
 -28404891.30948 -22100254.72746  20611536.3754                   20611531.3404
 11  7 27  2 32  0.0000000  0  8G25G10G12G17G09G05G04G02
  -1805945.74247  -1379504.19145  22866946.0004                   22866945.8244
 -22003850.38747 -17137156.78546  21020328.3444                   21020325.8484
 -19538091.34848 -15196729.19546  20793870.1334                   20793867.2504
 -32229935.97746 -25074029.23844  23941677.4144                   23941674.8874
  -4674501.01647  -3611813.62943  24779718.4844                   24779720.3794
 -15433539.25848 -11997425.64546  21031470.9384                   21031468.3874
 -26439342.20347 -20568378.68044  22561608.6564                   22561607.3794
 -28424330.60248 -22115402.21946  20607837.3914                   20607832.3554
 11  7 27  2 32 30.0000000  0  8G25G10G12G17G09G05G04G02
  -1921809.30547  -1469787.47745  22844897.8594                   22844898.3054
 -22003121.43447 -17136588.75046  21020467.0944                   21020464.5944
 -19595638.26248 -15241570.92246  20782919.6564                   20782916.1564
 -32197519.39546 -25048769.54744  23947845.7344                   23947843.6254
  -4625337.90247  -3573504.72743  24789073.3524                   24789074.5164
 -15535314.40248 -12076730.91446  21012103.6884                   21012100.8674
 -26392166.34847 -20531618.26645  22570586.1024                   22570584.2274
 -28443526.86748 -22130360.32046  20604184.2734                   20604179.6994
 11  7 27  2 33  0.0000000  0  7G25G10G12G17G05G04G02
  -2037292.92247  -1559774.68745  22822921.3984                   22822922.7624
 -22001777.74247 -17135541.70746  21020722.7034                   21020720.4304
 -19652606.22748 -15285961.52346  20772078.8134                   20772075.4414
 -32164907.57846 -25023357.75444  23954051.5704                   23954049.7584
 -15636606.95748 -12155660.14146  20992828.2114                   20992825.9224
 -26344930.05547 -20494810.75444  22579575.1724                   22579573.1334
 -28462480.41448 -22145129.30946  20600577.5234                   20600572.8634
 11  7 27  2 33 30.0000000  0  7G25G10G12G17G05G04G02
  -2152401.48447  -1649469.64145  22801017.8594                   22801018.1454
 -21999828.21947 -17134022.58246  21021093.7814                   21021091.5904
 -19709001.57048 -15329905.92646  20761346.7194                   20761343.6094
 -32132108.05946 -24997799.68444  23960293.3524                   23960291.7974
 -15737422.42648 -12234217.60946  20973643.5784                   20973641.3134
 -26297642.29747 -20457963.14544  22588573.7814                   22588571.8914
 -28481199.93748 -22159715.94146  20597015.2114                   20597010.4804
 11  7 27  2 34  0.0000000  0  7G25G10G12G17G05G04G02
  -2267118.43747  -1738859.45345  22779187.5634                   22779187.5044
 -21997260.36347 -17132021.64146  21021582.8364                   21021580.0864
 -19764809.18048 -15373392.35246  20750726.8054                   20750723.7814
 -32099106.69146 -24972084.34444  23966573.1724                   23966571.4024
 -15837744.34848 -12312390.49646  20954553.1644                   20954550.6134
 -26250290.10547 -20421065.33244  22597584.5864                   22597582.8794
 -28499672.63748 -22174110.24646  20593499.9304                   20593495.3484
 11  7 27  2 34 30.0000000  0  7G25G10G12G17G05G04G02
  -2381450.60547  -1827949.43745  22757431.0394                   22757430.9964
 -21994085.15248 -17129547.43446  21022186.7034                   21022184.3164
 -19820037.27048 -15416427.19946  20740217.6954                   20740214.3524
 -32065912.73446 -24946218.93744  23972889.7894                   23972887.8754
 -15937580.03548 -12390184.49246  20935554.7194                   20935552.6724
 -26202884.47347 -20384125.88345  22606605.3204                   22606603.5314
 -28517908.78148 -22188320.19946  20590029.5784                   20590025.0554
 11  7 27  2 35  0.0000000  0  7G25G10G12G17G05G04G02
  -2495392.41447  -1916735.25045  22735748.9774                   22735748.3524
 -21990300.99647 -17126598.71946  21022906.5864                   21022904.0274
 -19874682.15248 -15459007.60546  20729819.0944                   20729815.9654
 -32032523.02746 -24920200.96143  23979244.2034                   23979241.9534
 -16036924.35548 -12467595.60546  20916650.1644                   20916647.5164
 -26155423.62547 -20347143.39544  22615636.6884                   22615635.0634
 -28535906.46948 -22202344.35246  20586604.9774                   20586600.4734
 11  7 27  2 35 30.0000000  0  7G25G10G12G17G05G04G02
  -2608940.46547  -2005214.23845  22714140.9694                   22714141.2974
 -21985908.59048 -17123176.05546  21023742.2034                   21023740.2704
 -19928741.99648 -15501132.13346  20719531.5864                   20719528.2194
 -31998936.83646 -24894029.90243  23985634.7734                   23985633.0944
 -16135774.37148 -12544621.54746  20897839.5314                   20897837.0474
 -26107908.26647 -20310118.43444  22624678.4454                   22624677.2854
 -28553666.16448 -22216183.05146  20583225.3834                   20583220.8094
 11  7 27  2 36  0.0000000  0  7G25G10G12G17G05G04G02
  -2722097.82847  -2093388.80145  22692607.9694                   22692607.4414
 -21980915.04348 -17119284.96146  21024692.5864                   21024690.4384
 -19982221.29748 -15542804.29746  20709354.9924                   20709352.0164
 -31965159.26646 -24867709.70344  23992062.2974                   23992060.5784
 -16234133.62148 -12621265.07846  20879122.4304                   20879119.9654
 -26060344.88347 -20273056.05944  22633729.4304                   22633727.6374
 -28571194.65248 -22229841.58646  20579889.6254                   20579885.0944
 11  7 27  2 36 30.0000000  0  7G25G10G12G17G05G04G02
  -2834858.58647  -2181254.28545  22671150.1484                   22671150.8754
 -21975318.54748 -17114924.03546  21025758.0474                   21025755.4654
 -20035115.48448 -15584020.52046  20699289.2894                   20699286.3984
 -31931187.11746 -24841237.89144  23998526.9694                   23998525.2544
 -16331996.88748 -12697522.12546  20860499.9304                   20860497.1414
 -26012731.75047 -20235954.90244  22642789.9304                   22642788.4454
 -28588489.46948 -22243318.03546  20576598.7194                   20576594.0824
 11  7 27  2 37  0.0000000  0  7G25G10G12G17G05G04G02
  -2947224.94547  -2268812.44945  22649767.5704                   22649768.5044
 -21969125.46947 -17110098.24246  21026936.2424                   21026934.0664
 -20087428.85948 -15624784.16046  20689334.7114                   20689331.4964
 -31897024.86346 -24814617.93444  24005027.6094                   24005026.3164
 -16429366.51248 -12773394.52046  20841971.2734                   20841968.2814
 -25965074.83247 -20198819.64545  22651858.8594                   22651857.4534
 -28605556.49648 -22256617.00846  20573350.7274                   20573346.3134
 11  7 27  2 37 30.0000000  0  7G25G10G12G17G05G04G02
  -3059196.58247  -2356063.03145  22628460.1724                   22628460.6454
 -21962339.62547 -17104810.55546  21028227.6954                   21028225.3484
 -20139162.27748 -15665095.89846  20679490.0634                   20679487.2774
 -31862675.08246 -24787851.88744  24011565.2584                   24011563.1024
 -16526242.77748 -12848882.48046  20823535.9614                   20823533.3914
 -25917377.53947 -20161652.93044  22660935.2664                   22660933.8914
 -28622399.06248 -22269741.06246  20570146.0944                   20570140.8834
 11  7 27  2 38  0.0000000  0  7G25G10G12G17G05G04G02
  -3170765.13747  -2442999.52745  22607229.2664                   22607229.5394
 -21954957.04748 -17099057.87546  21029632.5004                   21029629.9574
 -20190309.45748 -15704950.82046  20669757.0314                   20669753.9844
 -31828131.80946 -24760935.03543  24018137.4774                   24018136.8874
 -16622617.60248 -12923979.71946  20805196.7274                   20805193.9614
 -25869635.41047 -20124451.26644  22670020.2894                   22670019.1684
 -28639012.55148 -22282686.61746  20566984.5164                   20566979.9144
 11  7 27  2 38 30.0000000  0  7G25G10G12G17G05G04G02
  -3281930.88748  -2529622.16045  22586075.2344                   22586075.3054
 -21946981.79748 -17092843.37146  21031149.8594                   21031147.6454
 -20240872.22748 -15744350.35546  20660135.1414                   20660132.4414
 -31793397.40646 -24733869.27343  24024746.8444                   24024745.3714
 -16718492.25448 -12998687.20346  20786952.0004                   20786949.5044
 -25821852.44947 -20087217.78144  22679112.8444                   22679111.0354
 -28655400.89148 -22295456.72346  20563865.5634                   20563861.1414
 11  7 27  2 39  0.0000000  0  7G25G10G12G17G05G04G02
  -3392699.87947  -2615935.59845  22564996.5704                   22564996.4884
 -21938424.21948 -17086175.10946  21032778.5634                   21032776.0824
 -20290858.03948 -15783300.32046  20650623.0864                   20650620.4024
 -31758480.71546 -24706661.45343  24031391.5314                   24031390.4064
 -16813872.92648 -13073009.75846  20768801.6564                   20768799.3984
 -25774038.52047 -20049960.16044  22688212.1024                   22688210.2344
 -28671573.38748 -22308058.65246  20560787.9924                   20560783.3364
 11  7 27  2 39 30.0000000  0  7G25G10G12G17G05G04G02
  -3503058.26247  -2701929.12145  22543995.7814                   22543995.0354
 -21929274.85548 -17079045.71146  21034519.3364                   21034517.4964
 -20340254.91048 -15821791.36346  20641223.4144                   20641220.5904
 -31723370.09846 -24679302.52343  24038073.2814                   24038071.7774
 -16908746.69548 -13146937.33646  20750747.9614                   20750745.3244
 -25726183.44547 -20012670.47344  22697318.6564                   22697316.7114
 -28687520.04348 -22320484.59446  20557753.5634                   20557748.7544
 11  7 27  2 40  0.0000000  0  7G25G10G12G17G05G04G02
  -2037585.69947  -1560002.39845  22822865.7274                   22822865.7034
 -20344121.45748 -15843861.21946  21336164.3754                   21336161.5354
 -18813646.35548 -14632226.23846  20931727.0634                   20931724.2704
 -30112652.56646 -23424197.96943  24344583.1414                   24344580.7894
 -15427694.04748 -11992870.29746  21032582.6484                   21032580.2544
 -24102875.93047 -18747755.53944  23006223.6094                   23006221.7274
 -27127827.51248 -21105139.73046  20854553.1644                   20854548.1954
 11  7 27  2 40 30.0000000  0  7G25G10G12G17G05G04G02
  -2147128.37547  -1645360.26245  22802020.4534                   22802020.7344
 -20333806.57448 -15835823.62546  21338126.8444                   21338124.2344
 -18861876.13748 -14669807.86746  20922549.2584                   20922546.3954
 -30077167.37146 -23396547.14843  24351335.1804                   24351333.6994
 -15521560.39848 -12066012.87146  21014720.4454                   21014717.8874
 -24054955.40247 -18710414.88344  23015342.7274                   23015340.4304
 -27143338.79748 -21117226.43046  20851601.5704                   20851597.1094
 11  7 27  2 41  0.0000000  0  7G25G10G12G17G05G04G02
  -2256257.55947  -1730395.92245  22781254.2584                   22781254.2384
 -20322909.50047 -15827332.37946  21340200.6724                   21340198.3094
 -18909519.33648 -14706932.42246  20913482.7814                   20913480.4734
 -30041492.99646 -23368748.94544  24358123.6804                   24358121.9414
 -15614918.37148 -12138759.30546  20996954.9064                   20996952.4454
 -24007001.84847 -18673048.48844  23024467.6414                   23024466.0664
 -27158632.01648 -21129143.20346  20848691.3204                   20848686.8444
 11  7 27  2 41 30.0000000  0  7G25G10G12G17G05G04G02
  -2364970.14547  -1815106.95345  22760566.6484                   22760566.6954
 -20311431.68047 -15818388.60246  21342384.7664                   21342382.2934
 -18956574.53948 -14743598.78946  20904528.7814                   20904525.6684
 -30005628.49246 -23340802.61343  24364948.7664                   24364946.6764
 -15707765.42248 -12211107.62146  20979286.6254                   20979284.2074
 -23959015.89847 -18635656.85944  23033598.5394                   23033597.5314
 -27173707.73848 -21140890.50846  20845822.2274                   20845817.7814
 11  7 27  2 42  0.0000000  0  7G25G10G12G17G05G04G02
  -2473261.46147  -1899489.71145  22739959.6254                   22739959.6604
 -20299372.61748 -15808991.90245  21344679.5634                   21344677.2074
 -19003038.79748 -14779804.69546  20895686.8364                   20895683.9964
 -29969572.00846 -23312706.63744  24371810.0784                   24371807.6414
 -15800097.67648 -12283054.79346  20961716.2424                   20961713.7344
 -23910996.81247 -18598239.41444  23042737.5634                   23042735.1684
 -27188564.64848 -21152467.29746  20842995.4224                   20842990.6094
 11  7 27  2 42 30.0000000  0  8G25G10G12G17G29G05G04G02
  -2581136.30547  -1983547.93445  22719432.1094                   22719431.9384
 -20286741.40248 -15799149.36746  21347083.0704                   21347080.7274
 -19048918.85948 -14815555.37946  20886956.0944                   20886953.2664
 -29933330.73846 -23284466.67244  24378705.9224                   24378705.2854
  12434835.14856   9712193.77753  24753955.6484                   24753955.2624
 -15891920.28148 -12354604.83646  20944242.8834                   20944240.5004
 -23862952.68447 -18560802.44544  23051879.4534                   23051877.8954
 -27203211.14848 -21163880.12946  20840208.3914                   20840203.6764
 11  7 27  2 43  0.0000000  0  8G25G10G12G17G29G05G04G02
  -2688590.48447  -2067278.37545  22698983.6804                   22698984.2774
 -20273537.92648 -15788860.93046  21349595.3134                   21349593.0164
 -19094211.89848 -14850848.64146  20878337.3134                   20878334.0634
 -29896902.70746 -23256081.18444  24385638.5314                   24385637.4064
  12319629.21546   9622422.99243  24732032.2664                   24732031.8204
 -15983229.79348 -12425755.07046  20926867.5164                   20926864.9494
 -23814883.05147 -18523345.59444  23061027.0634                   23061024.9184
 -27217646.59448 -21175128.52046  20837461.3134                   20837456.2034
 11  7 27  2 43 30.0000000  0  8G25G10G12G17G29G05G04G02
  -2795622.73847  -2150680.05545  22678616.0554                   22678615.9694
 -20259765.87147 -15778129.44546  21352216.3594                   21352213.6804
 -19138918.92248 -14885685.27046  20869830.0084                   20869826.3984
 -29860289.13346 -23227551.09843  24392605.2504                   24392603.5554
  12204362.72345   9532604.99643  24710098.0314                   24710097.5354
 -16074025.55548 -12496504.98046  20909589.6954                   20909587.1134
 -23766790.23847 -18485870.68744  23070178.6024                   23070176.5474
 -27231873.11748 -21186214.10546  20834754.1024                   20834749.0864
 11  7 27  2 44  0.0000000  0  8G25G10G12G17G29G05G04G02
  -2902234.05547  -2233753.71945  22658328.5784                   22658328.4304
 -20245430.11748 -15766958.71946  21354944.6024                   21354942.0784
 -19183042.93448 -14920067.60946  20861433.1884                   20861429.9844
 -29823493.53946 -23198879.19543  24399607.6174                   24399605.8244
  12089032.93445   9442737.70343  24688151.3984                   24688151.5634
 -16164309.18448 -12566855.82446  20892409.4304                   20892406.5234
 -23718678.86347 -18448381.32444  23079333.8204                   23079332.2504
 -27245895.36748 -21197140.52046  20832085.4774                   20832080.8204
 11  7 27  2 44 30.0000000  0  8G25G10G12G17G29G05G04G02
  -3008420.78547  -2316496.54745  22638121.6954                   22638121.4574
 -20230531.39147 -15755349.31646  21357779.8834                   21357776.8874
 -19226581.82848 -14953994.00846  20853148.1254                   20853144.9224
 -29786514.55546 -23170064.38743  24406644.1724                   24406642.8444
  11973641.24645   9352822.19543  24666192.8914                   24666193.1914
 -16254077.34848 -12636804.99646  20875326.8594                   20875324.4144
 -23670548.71946 -18410877.34444  23088492.7194                   23088491.0044
 -27259713.27748 -21207907.69946  20829456.0234                   20829451.1334
 11  7 27  2 45  0.0000000  0  8G25G10G12G17G29G05G04G02
  -3114180.58247  -2398906.69545  22617996.1954                   22617996.1604
 -20215071.77748 -15743302.85946  21360721.3594                   21360718.8244
 -19269535.24248 -14987464.19146  20844974.2664                   20844971.3634
 -29749352.48046 -23141106.91843  24413716.3204                   24413715.2894
  11858188.30146   9262858.93443  24644223.5944                   24644222.8914
 -16343328.60948 -12706351.39846  20858342.9694                   20858340.2974
 -23622400.96546 -18373359.62544  23097655.2194                   23097653.1254
 -27273327.70748 -21218516.33646  20826865.2894                   20826860.6994
 11  7 27  2 45 30.0000000  0  8G25G10G12G17G29G05G04G02
  -3219509.62147  -2480981.20345  22597953.1094                   22597952.6524
 -20199051.43447 -15730819.47746  21363769.7974                   21363767.4344
 -19311901.21548 -15020476.62546  20836912.2114                   20836908.8404
 -29712005.94546 -23112005.69543  24420822.6884                   24420821.7274
  11742676.27346   9172849.61343  24622242.4694                   24622241.1844
 -16432059.73048 -12775492.49646  20841457.8834                   20841454.9654
 -23574235.37946 -18335828.00844  23106820.7584                   23106819.0554
 -27286738.19148 -21228966.04746  20824313.5864                   20824308.8204
 11  7 27  2 46  0.0000000  0  8G25G10G12G17G29G05G04G02
  -3324402.37147  -2562715.75045  22577992.3134                   22577991.8874
 -20182469.65247 -15717898.59446  21366925.4064                   21366922.9454
 -19353675.79748 -15053028.23446  20828962.6804                   20828959.4734
 -29674471.71946 -23082758.25843  24427965.3204                   24427963.6564
  11627108.77346   9082797.05143  24600250.6804                   24600249.4924
 -16520265.85248 -12844224.50446  20824672.6954                   20824669.8204
 -23526049.92647 -18298280.91044  23115990.0314                   23115988.6094
 -27299942.86748 -21239255.39146  20821800.4454                   20821795.7934
 11  7 27  2 46 30.0000000  0  8G25G10G12G17G29G05G04G02
  -3428857.36747  -2644109.18445  22558115.1334                   22558115.0164
 -20165329.33647 -15704542.49246  21370187.1884                   21370184.7584
 -19394859.90648 -15085119.74246  20821125.6954                   20821122.1604
 -29636750.87946 -23053365.37143  24435144.1644                   24435141.8054
  11511485.32446   8992700.87543  24578247.6644                   24578246.6374
 -16607946.53548 -12912547.08646  20807987.3054                   20807984.8244
 -23477846.66447 -18260719.94544  23125162.7974                   23125161.7074
 -27312943.62148 -21249385.83646  20819326.2814                   20819321.9184
 11  7 27  2 47  0.0000000  0  8G25G10G12G17G29G05G04G02
  -3532869.94547  -2725157.87945  22538322.3444                   22538322.2704
 -20147630.10948 -15690750.89145  21373555.3524                   21373552.9654
 -19435450.32848 -15116748.63346  20813401.6094                   20813398.0824
 -29598841.08646 -23023825.26643  24442357.6094                   24442355.4384
  11395808.41046   8902563.05143  24556234.9844                   24556233.4104
 -16695097.40248 -12980456.81646  20791403.5944                   20791400.6294
 -23429624.19147 -18223143.99244  23134339.3134                   23134338.0394
 -27325738.98448 -21259356.24246  20816891.8754                   20816886.9264
 11  7 27  2 47 30.0000000  0  8G25G10G12G17G29G05G04G02
  -3636438.44947  -2805860.53945  22518613.8834                   22518613.3164
 -20129374.60247 -15676525.81246  21377029.3984                   21377026.6914
 -19475447.43448 -15147915.19946  20805790.6564                   20805787.2854
 -29560743.12146 -22994138.53543  24449607.3914                   24449605.5704
  11280078.81346   8812384.17243  24534212.9694                   24534210.0234
 -16781717.55548 -13047953.00846  20774920.0634                   20774917.4264
 -23381384.28547 -18185554.45744  23143518.4144                   23143517.6914
 -27338330.84848 -21269168.06246  20814495.7734                   20814491.0044
 11  7 27  2 48  0.0000000  0  8G25G10G12G17G29G05G04G02
  -3739559.28147  -2886214.37545  22498990.0004                   22498989.9844
 -20110563.53547 -15661867.84045  21380608.7814                   21380606.2424
 -19514849.88348 -15178618.39146  20798292.5864                   20798289.5234
 -29522455.88746 -22964304.24643  24456893.3134                   24456890.7734
  11164298.10946   8722165.49243  24512180.4454                   24512178.4574
 -16867804.11748 -13115033.42246  20758538.5084                   20758535.8914
 -23333127.02347 -18147951.39544  23152701.9144                   23152700.1954
 -27350719.05948 -21278821.20346  20812138.0784                   20812133.1414
 11  7 27  2 48 30.0000000  0  8G25G10G12G17G29G05G04G02
  -3842235.39847  -2966221.67645  22479451.7034                   22479451.5664
 -20091204.07448 -15646782.55145  21384292.3444                   21384290.0744
 -19553662.59448 -15208862.06246  20790906.7344                   20790903.6954
 -29483984.85246 -22934326.79343  24464214.1954                   24464211.7504
  11048461.61746   8631903.38343  24490137.2034                   24490135.7894
 -16953360.63748 -13181700.80946  20742257.6094                   20742254.9884
 -23284858.52347 -18110339.59044  23161887.2814                   23161885.6564
 -27362909.87548 -21288320.52346  20809818.3284                   20809813.4414
 11  7 27  2 49  0.0000000  0  8G25G10G12G17G29G05G04G02
  -3944459.95747  -3045877.13745  22459998.6484                   22459998.8244
 -20071294.09047 -15631268.27046  21388081.0944                   21388078.9964
 -19591880.65648 -15238642.36746  20783633.8914                   20783630.4534
 -29445325.40246 -22904202.55943  24471570.6884                   24471568.3834
  10932574.21946   8541601.61343  24468083.3284                   24468083.6094
 -17038381.28148 -13247950.62946  20726078.5084                   20726075.8054
 -23236575.21547 -18072716.25044  23171075.1884                   23171073.7544
 -27374899.79348 -21297663.30146  20807536.7974                   20807531.4264
 11  7 27  2 49 30.0000000  0  8G25G10G12G17G29G05G04G02
  -4046233.55548  -3125181.19945  22440632.2344                   22440631.7814
 -20050838.90647 -15615329.16446  21391973.8284                   21391971.3284
 -19629506.47348 -15267961.17246  20776473.9144                   20776471.0944
 -29406480.58646 -22873933.86343  24478963.1484                   24478961.0274
  10816633.71546   8451258.46943  24446021.2584                   24446020.7734
 -17122867.41048 -13313783.95346  20710001.2114                   20709998.7274
 -23188281.16447 -18035084.50844  23180265.1484                   23180264.0164
 -27386692.71948 -21306852.57446  20805292.8054                   20805287.6454
 11  7 27  2 50  0.0000000  0  8G25G10G12G17G29G05G04G02
  -4147549.52048  -3204128.68045  22421352.3284                   22421351.9414
 -20029836.09447 -15598963.32846  21395970.5704                   21395968.2934
 -19666535.53948 -15296814.98846  20769427.3284                   20769424.6024
 -29367446.23846 -22843517.46943  24486390.8444                   24486389.1214
  10700645.41046   8360878.07043  24423949.1954                   24423949.1914
 -17206812.80548 -13379195.92646  20694027.0234                   20694024.2274
 -23139973.00047 -17997441.78944  23189457.8754                   23189456.3054
 -27398285.30548 -21315885.74246  20803086.7274                   20803081.7344
 11  7 27  2 50 30.0000000  0  8G25G10G12G17G29G05G04G02
  -4248410.32448  -3282721.48445  22402159.1334                   22402158.7034
 -20008292.33647 -15582175.97345  21400069.9064                   21400067.7814
 -19702972.37148 -15325207.31646  20762493.8754                   20762490.5904
 -29328227.24246 -22812957.18744  24493854.1414                   24493852.2734
  10584605.13746   8270457.18444  24401867.8364                   24401867.4344
 -17290220.88748 -13444189.21146  20678154.8914                   20678152.4844
 -23091656.59847 -17959792.63744  23198651.9144                   23198650.5164
 -27409683.39548 -21324767.36346  20800917.7664                   20800913.0824
 11  7 27  2 51  0.0000000  0  8G25G10G12G17G29G05G04G02
  -4348814.28947  -3360958.31245  22383052.5864                   22383052.4774
 -19986210.27047 -15564969.16045  21404272.1024                   21404269.8674
 -19738816.80948 -15353138.03546  20755672.6884                   20755669.9454
 -29288824.29746 -22782253.59044  24501352.3984                   24501350.1844
  10468512.69946   8179995.63343  24379776.1564                   24379775.0514
 -17373090.41848 -13508762.84046  20662385.4454                   20662382.6294
 -23043333.36347 -17922138.15244  23207847.4844                   23207846.0704
 -27420888.55148 -21333498.63346  20798785.3284                   20798780.5044
 11  7 27  2 51 30.0000000  0  7G25G10G12G29G05G04G02
  -4448756.43447  -3438835.28145  22364034.1954                   22364033.9574
 -19963589.46147 -15547342.55545  21408576.7034                   21408574.1954
 -19774066.68048 -15380605.46146  20748964.8674                   20748961.6644
  10352371.77346   8089496.27043  24357675.3594                   24357674.0744
 -17455417.53148 -13572913.80546  20646719.0554                   20646716.7384
 -22995001.68046 -17884477.09044  23217044.2194                   23217043.1684
 -27431898.93448 -21342078.12946  20796689.9694                   20796685.5004
 11  7 27  2 52  0.0000000  0  7G25G10G12G29G05G04G02
  -4548235.49247  -3516351.41045  22345104.2344                   22345103.6414
 -19940433.34847 -15529298.82445  21412983.3524                   21412980.7624
 -19808722.66848 -15407610.12146  20742370.0864                   20742366.9734
  10236181.68447   7998958.60244  24335564.9384                   24335563.7194
 -17537201.71948 -13636641.71947  20631156.0164                   20631153.4884
 -22946663.62546 -17846811.05144  23226242.8984                   23226241.6564
 -27442716.82848 -21350507.64546  20794631.5314                   20794626.8014
 11  7 27  2 52 30.0000000  0  7G25G10G12G29G05G04G02
  -4647249.60947  -3593505.25045  22326262.1724                   22326262.5204
 -19916744.58647 -15510840.03145  21417490.7814                   21417488.9804
 -19842784.72348 -15434151.98446  20735888.2504                   20735885.2114
  10119943.01646   7908383.11343  24313445.9144                   24313443.2464
 -17618441.88748 -13699945.70746  20615696.6564                   20615693.9734
 -22898320.43447 -17809141.00844  23235443.1564                   23235441.2704
 -27453343.19948 -21358787.92246  20792609.6564                   20792604.1724
 11  7 27  2 53  0.0000000  0  7G25G10G12G29G05G04G02
  -4745798.60947  -3670296.64845  22307508.8054                   22307509.4574
 -19892527.32447 -15491969.43045  21422099.3674                   21422096.8834
 -19876254.69548 -15460232.47746  20729519.3054                   20729515.8594
  10003654.27346   7817768.61743  24291316.3444                   24291313.8204
 -17699138.53948 -13762826.19546  20600340.1024                   20600337.7894
 -22849974.95746 -17771469.18443  23244642.7274                   23244640.8754
 -27463781.44548 -21366921.60246  20790623.0704                   20790618.2854
 11  7 27  2 53 30.0000000  0  7G25G10G12G29G05G04G02
  -4843877.09047  -3746721.42245  22288845.3444                   22288845.4104
 -19867780.57047 -15472686.23445  21426808.7894                   21426806.3834
 -19909129.41048 -15485849.13746  20723263.4224                   20723259.8714
   9887319.46546   7727118.25843  24269178.5474                   24269176.7074
 -17779287.38748 -13825279.81246  20585088.7814                   20585085.9614
 -22801625.21947 -17733794.06644  23253843.5554                   23253841.6024
 -27474029.49248 -21374907.08646  20788672.7194                   20788667.5204
 11  7 27  2 54  0.0000000  0  7G25G10G12G29G05G04G02
  -4941481.20348  -3822776.55945  22270272.0164                   22270271.8014
 -19842504.95347 -15452990.93445  21431618.8364                   21431616.2734
 -19941407.07848 -15511000.57046  20717120.9384                   20717117.9694
   9770941.00846   7636433.82043  24247032.3984                   24247030.4924
 -17858885.16048 -13887304.02046  20569941.5164                   20569939.0474
 -22753270.43747 -17696114.99644  23263045.0634                   23263043.1764
 -27484086.19148 -21382743.45746  20786759.0084                   20786754.2584
 11  7 27  2 54 30.0000000  0  7G25G10G12G29G05G04G02
  -5038610.85247  -3898461.97745  22251788.3594                   22251789.0204
 -19816704.76247 -15432886.87145  21436528.0944                   21436525.2234
 -19973089.88748 -15535688.46546  20711091.9924                   20711088.6914
   9654517.27746   7545714.14143  24224876.8914                   24224876.4774
 -17937932.61348 -13948899.41046  20554899.1564                   20554896.5124
 -22704913.52347 -17658434.27744  23272246.9304                   23272245.8444
 -27493954.82448 -21390433.29346  20784881.1174                   20784876.4534
 11  7 27  2 55  0.0000000  0  7G25G10G12G29G05G04G02
  -5135265.82447  -3973777.51245  22233395.7034                   22233395.6684
 -19790384.36347 -15412377.46145  21441536.5164                   21441534.0594
 -20004179.71948 -15559914.30546  20705176.2664                   20705172.5004
   9538046.89146   7454958.13343  24202713.8134                   24202712.8244
 -18016430.46148 -14010066.53946  20539961.6564                   20539959.2344
 -22656557.53146 -17620754.25844  23281448.6804                   23281446.8324
 -27503638.23448 -21397978.78946  20783038.9224                   20783033.7114
 11  7 27  2 55 30.0000000  0  7G25G10G12G29G05G04G02
  -5231441.42247  -4048719.50445  22215094.2114                   22215094.3244
 -19763543.54347 -15391462.53145  21446644.3914                   21446641.5594
 -20034674.09847 -15583676.16846  20699373.2344                   20699369.7114
   9421533.78946   7364168.79744  24180541.6484                   24180540.7154
 -18094374.65648 -14070802.25046  20525129.3834                   20525126.5904
 -22608200.64547 -17583073.57444  23290651.2974                   23290649.2304
 -27513135.00448 -21405378.85546  20781231.3444                   20781226.7774
 11  7 27  2 56  0.0000000  0  7G25G10G12G29G05G04G02
  -5327139.76648  -4123289.60545  22196883.0784                   22196883.1454
 -19736188.80547 -15370147.14145  21451849.8444                   21451847.0514
 -20064577.17648 -15606977.27046  20693682.4924                   20693679.3874
   9304974.00047   7273343.03544  24158361.3984                   24158360.9384
 -18171768.27048 -14131108.93446  20510401.9224                   20510399.1604
 -22559848.18747 -17545396.31644  23299852.0314                   23299850.0704
 -27522450.38748 -21412637.58646  20779458.7344                   20779453.7194
 11  7 27  2 56 30.0000000  0  7G25G10G12G29G05G04G02
  -5422359.22747  -4197486.53945  22178763.4774                   22178763.5434
 -19708323.00847 -15348433.51645  21457151.9694                   21457149.1804
 -20093889.71548 -15629818.21146  20688104.9694                   20688101.6254
   9188368.04347   7182481.32844  24136171.9064                   24136171.2774
 -18248610.53948 -14190986.00846  20495779.2194                   20495776.4844
 -22511501.32847 -17507723.42244  23309052.3914                   23309050.0554
 -27531585.71148 -21419756.00446  20777720.1644                   20777715.4184
 11  7 27  2 57  0.0000000  0  7G25G10G12G29G05G04G02
  -5517099.86348  -4271310.35246  22160735.2274                   22160735.4184
 -19679950.57847 -15326325.10545  21462551.6094                   21462548.8984
 -20122613.47748 -15652200.36746  20682638.7664                   20682635.7544
   9071714.51247   7091582.49644  24113974.2504                   24113971.5354
 -18324902.44148 -14250434.21546  20481261.4304                   20481258.5594
 -22463163.29747 -17470057.39844  23318250.7344                   23318248.3634
 -27540543.94948 -21426736.43446  20776015.3204                   20776010.8484
 11  7 27  2 57 30.0000000  0  7G25G10G12G29G05G04G02
  -5611357.71148  -4344757.98046  22142798.6094                   22142798.9694
 -19651072.21147 -15303822.46545  21468046.6884                   21468044.2154
 -20150747.12548 -15674122.69146  20677285.1644                   20677282.3134
   8955015.86747   7000648.52344  24091767.0394                   24091764.3444
 -18400640.96148 -14309451.22346  20466848.7194                   20466846.1644
 -22414833.19947 -17432397.56644  23327447.4694                   23327445.5514
 -27549324.43048 -21433578.35546  20774344.5394                   20774340.0354
 11  7 27  2 58  0.0000000  0  7G25G10G12G29G05G04G02
  -5705134.84048  -4417831.02346  22124953.1484                   22124952.9414
 -19621694.53547 -15280930.74645  21473637.1644                   21473634.7424
 -20178294.87148 -15695588.46946  20672042.9924                   20672040.3914
   8838268.71147   6909676.74643  24069549.7424                   24069548.4304
 -18475828.79748 -14368039.12146  20452540.8134                   20452538.3094
 -22366515.91847 -17394747.71544  23336641.8284                   23336639.8444
 -27557932.21148 -21440285.69946  20772706.5944                   20772701.8014
 11  7 27  2 58 30.0000000  0  7G25G10G12G29G05G04G02
  -5798422.30548  -4490522.50045  22107201.1724                   22107200.7894
 -19591813.02747 -15257646.44945  21479323.2114                   21479321.1294
 -20205249.95348 -15716592.43746  20666913.6254                   20666910.7664
   8721480.84446   6818673.21543  24047326.7034                   24047325.5354
 -18550457.99248 -14426191.72746  20438339.4144                   20438336.7034
 -22318205.30547 -17357103.07444  23345834.9774                   23345833.2384
 -27566361.50848 -21446853.97346  20771102.3984                   20771097.5704
 11  7 27  2 59  0.0000000  0  7G25G10G12G29G05G04G02
  -5891219.78148  -4562832.18046  22089542.2974                   22089541.8954
 -19561431.69947 -15233972.68045  21485105.1644                   21485102.4344
 -20231614.09448 -15737135.92246  20661896.5864                   20661893.8754
   8604651.38346   6727637.25843  24025093.8984                   24025093.6914
 -18624529.32848 -14483909.61746  20424244.3674                   20424241.3244
 -22269904.02347 -17319465.70744  23355026.6024                   23355025.1644
 -27574614.58648 -21453284.93046  20769532.2504                   20769527.0554
 11  7 27  2 59 30.0000000  0  7G25G10G12G29G05G04G02
  -5983533.16448  -4634764.64845  22071975.5784                   22071975.4774
 -19530560.72747 -15209917.35945  21490979.4304                   21490976.9224
 -20257395.75848 -15757225.53946  20656990.6954                   20656987.8404
   8487773.16046   6636563.32843  24002852.7114                   24002851.7114
 -18698049.43048 -14541197.99246  20410253.9774                   20410250.8954
 -22221620.88347 -17281842.46544  23364214.7734                   23364212.7974
 -27582700.31648 -21459585.48446  20767993.6174                   20767988.6684
 11  7 27  3  0  0.0000000  0  7G25G10G12G29G05G04G02
  -6075351.94548  -4706311.70745  22054502.6724                   22054502.8284
 -19499194.32447 -15185476.00445  21496947.9774                   21496945.8674
 -20282586.24248 -15776854.49646  20652196.8674                   20652194.0944
   8370855.39146   6545458.62543  23980603.7344                   23980603.4024
 -18771008.84448 -14598049.46146  20396369.9924                   20396366.9494
 -22173348.23847 -17244227.39844  23373399.9454                   23373398.2504
 -27590611.60248 -21465750.10246  20766487.8364                   20766483.3794
 11  7 27  3  0 30.0000000  0  7G25G10G12G29G05G04G02
  -6166682.94948  -4777478.68746  22037123.2734                   22037122.8094
 -19467343.89847 -15160657.46945  21503008.9144                   21503006.7114
 -20307195.18448 -15796030.30946  20647514.2734                   20647511.6094
   8253890.33246   6454317.00444  23958346.3914                   23958345.5664
 -18843415.23848 -14654470.00447  20382591.4924                   20382588.5514
 -22125095.64147 -17206627.96944  23382582.2114                   23382580.7734
 -27598357.85948 -21471786.14146  20765013.8134                   20765009.3794
 11  7 27  3  1  0.0000000  0  7G25G10G12G29G05G04G02
  -6257524.51248  -4848264.28546  22019836.8284                   22019835.8914
 -19435011.82847 -15135463.65245  21509161.6644                   21509158.8364
 -20331222.98448 -15814753.27046  20642941.8834                   20642938.7504
   8136878.32446   6363138.84844  23936079.9924                   23936078.6804
 -18915267.85948 -14710459.03946  20368918.5704                   20368915.4884
 -22076864.38747 -17169045.16844  23391760.8834                   23391758.8484
 -27605940.35548 -21477694.56246  20763570.8984                   20763566.5164
 11  7 27  3  1 30.0000000  0  7G25G10G12G29G05G04G02
  -6347870.02348  -4918663.34846  22002644.6254                   22002644.0704
 -19402196.35947 -15109893.16045  21515406.3204                   21515404.0274
 -20354665.00448 -15833019.78946  20638480.5004                   20638477.6094
   8019824.87547   6271928.41044  23913805.8204                   23913803.5594
 -18986561.09048 -14766012.19146  20355351.8134                   20355349.2894
 -22028650.48047 -17131475.89843  23400935.6954                   23400934.1524
 -27613355.57048 -21483472.64546  20762159.7894                   20762154.8834
 11  7 27  3  2  0.0000000  0  7G25G10G12G29G05G04G02
  -6437713.84048  -4988671.48846  21985547.6334                   21985547.1174
 -19368896.05947 -15083944.86745  21521743.1094                   21521740.1214
 -20377518.08648 -15850827.39846  20634132.4064                   20634128.7504
   7902734.68046   6180689.31344  23891523.9384                   23891523.0084
 -19057290.10948 -14821125.69146  20341892.2274                   20341889.6644
 -21980450.91447 -17093917.77744  23410107.5554                   23410106.0044
 -27620600.57048 -21489118.07846  20760781.2664                   20760776.0274
 11  7 27  3  2 30.0000000  0  7G25G10G12G29G05G04G02
  -4951630.58648  -3830684.50046  22268340.2664                   22268339.7734
 -17759694.08647 -13830021.23845  21827963.9774                   21827961.3554
 -18824361.66848 -14640575.63746  20929688.0864                   20929684.8794
   9361032.84047   7317025.58644  24169028.5004                   24169028.0434
 -17552031.19548 -13648196.64546  20628333.7734                   20628330.9024
 -20356847.58646 -15828772.32444  23719068.6644                   23719067.2814
 -26052255.40648 -20267030.91846  21059227.2504                   21059222.5084
 11  7 27  3  3  0.0000000  0  7G25G10G12G29G05G04G02
  -5040464.44148  -3899905.64846  22251435.6484                   22251434.8834
 -17725431.08247 -13803322.78545  21834483.8444                   21834481.3954
 -18846037.20748 -14657465.67646  20925563.2274                   20925560.0394
   9243872.67646   7225731.94944  24146734.2814                   24146733.0784
 -17621628.42248 -13702428.22746  20615089.5864                   20615086.9804
 -20308678.53546 -15791238.01644  23728235.3524                   23728233.5944
 -26059161.61748 -20272412.37946  21057913.1564                   21057908.2704
 11  7 27  3  3 30.0000000  0  7G25G10G12G29G05G04G02
  -5128792.48048  -3968732.67246  22234627.6174                   22234626.8164
 -17690692.70347 -13776253.92245  21841094.8204                   21841092.2504
 -18867126.96148 -14673899.25446  20921549.8054                   20921546.8444
   9126676.84846   7134410.57843  24124432.1484                   24124430.6604
 -17690660.57448 -13756219.49246  20601953.0004                   20601950.5354
 -20260528.04347 -15753718.16044  23737397.7584                   23737396.6764
 -26065901.97348 -20277664.59046  21056630.4614                   21056625.8634
 11  7 27  3  4  0.0000000  0  7G25G10G12G29G05G04G02
  -5216617.98048  -4037168.09446  22217914.3674                   22217914.4924
 -17655486.44547 -13748820.46545  21847793.9534                   21847791.6644
 -18887636.22347 -14689880.49246  20917647.1724                   20917643.8164
   9009440.87946   7043057.94143  24102123.2274                   24102121.3874
 -17759131.48848 -13809573.42246  20588923.6484                   20588920.8524
 -20212401.83247 -15716217.22344  23746556.1414                   23746554.3634
 -26072482.54348 -20282792.29346  21055378.3524                   21055373.2934
 11  7 27  3  4 30.0000000  0  7G25G10G12G29G05G04G02
  -5303936.01248  -4105208.08246  22201298.5314                   22201297.3754
 -17619811.75447 -13721022.00045  21854582.9144                   21854580.0314
 -18907562.57048 -14705407.52346  20913855.4224                   20913852.2934
   8892168.55946   6951677.00443  24079806.7894                   24079805.1524
 -17827037.16448 -13862486.91847  20576001.7734                   20575998.8284
 -20164297.55147 -15678733.38744  23755709.9384                   23755708.2154
 -26078901.10548 -20287793.76246  21054156.8364                   21054151.9494
 11  7 27  3  5  0.0000000  0  7G25G10G12G29G05G04G02
  -5390744.50048  -4172851.03146  22184779.3524                   22184778.7814
 -17583670.91847 -13692860.30545  21861460.0554                   21861457.4574
 -18926906.09048 -14720480.39846  20910174.1564                   20910171.4654
   8774861.49246   6860268.94543  24057483.6954                   24057481.8094
 -17894376.59448 -13914959.17647  20563187.4304                   20563184.4304
 -20116215.82847 -15641267.10243  23764859.7424                   23764857.8984
 -26085158.28948 -20292669.48046  21052965.9924                   21052961.3404
 11  7 27  3  5 30.0000000  0  7G25G10G12G29G05G04G02
  -5477043.13748  -4240096.68446  22168357.1414                   22168357.0004
 -17547068.22747 -13664338.71945  21868425.5554                   21868423.0234
 -18945668.42648 -14735100.40246  20906604.1804                   20906600.7704
   8657518.83247   6768833.18844  24035154.5784                   24035151.9104
 -17961150.87948 -13966991.06647  20550480.5554                   20550478.0044
 -20068158.92647 -15603820.16443  23774004.2344                   23774001.9964
 -26091256.30948 -20297421.16846  21051805.6254                   21051800.8914
 11  7 27  3  6  0.0000000  0  7G25G10G12G29G05G04G02
  -5562827.83648  -4306941.87546  22152032.6884                   22152032.1884
 -17510003.88347 -13635457.41845  21875478.3984                   21875475.7464
 -18963848.68448 -14749266.83646  20903144.6724                   20903141.6454
   8540144.02346   6677372.40244  24012818.4534                   24012816.9494
 -18027356.63348 -14018579.93747  20537882.1024                   20537879.3324
 -20020125.24647 -15566391.32043  23783145.0004                   23783142.8054
 -26097193.93748 -20302047.88746  21050675.6334                   21050671.3324
 11  7 27  3  6 30.0000000  0  7G25G10G12G29G05G04G02
  -5648094.89548  -4373383.70346  22135806.9694                   22135806.6844
 -17472478.68047 -13606216.99245  21882619.4064                   21882616.4574
 -18981445.17648 -14762978.38746  20899796.2504                   20899792.9224
   8422739.55946   6585888.50844  23990476.8284                   23990476.3794
 -18092991.25048 -14069723.77047  20525392.2194                   20525389.4924
 -19972113.64147 -15528979.67243  23792281.8594                   23792279.4964
 -26102970.11348 -20306548.79346  21049576.2504                   21049571.3674
 11  7 27  3  7  0.0000000  0  7G25G10G12G29G05G04G02
  -5732838.07048  -4439417.30946  22119681.0864                   22119680.3874
 -17434490.77347 -13576616.01245  21889848.0394                   21889845.2464
 -18998454.07848 -14776232.08246  20896559.5084                   20896556.6914
   8305310.96547   6494385.79344  23968131.5704                   23968130.5594
 -18158049.21148 -14120418.26647  20513012.3594                   20513009.3794
 -19924120.12147 -15491582.12143  23801414.3594                   23801412.2704
 -26108581.21148 -20310921.07046  21048508.8364                   21048503.9104
 11  7 27  3  7 30.0000000  0  7G25G10G12G29G05G04G02
  -5817063.45748  -4505047.44146  22103653.3594                   22103653.5904
 -17396050.69547 -13546662.69145  21897163.0314                   21897160.2774
 -19014883.84448 -14789034.50046  20893432.8834                   20893429.5634
   8187851.64547   6402859.15244  23945778.8594                   23945777.7814
 -18222537.92648 -14170669.18447  20500740.3364                   20500737.2504
 -19876153.41047 -15454205.43743  23810542.5704                   23810539.9224
 -26114036.01248 -20315171.53946  21047470.8674                   21047465.8834
 11  7 27  3  8  0.0000000  0  7G25G10G12G29G05G04G02
  -5900768.22748  -4570271.91446  22087724.9844                   22087724.8914
 -17357160.29347 -13516358.46945  21904563.9454                   21904561.0554
 -19030733.83648 -14801385.14846  20890416.7114                   20890413.7934
   8070363.37946   6311309.98044  23923421.9614                   23923420.2854
 -18286455.59048 -14220475.13347  20488577.1254                   20488574.5514
 -19828213.03547 -15416849.29343  23819665.3284                   23819662.5594
 -26119334.18748 -20319299.97746  21046462.4924                   21046457.7274
 11  7 27  3  8 30.0000000  0  7G25G10G12G29G05G04G02
  -5983957.74648  -4635094.88346  22071894.3524                   22071894.2384
 -17317828.84447 -13485710.58245  21912047.7734                   21912045.4304
 -19046012.00448 -14813290.22746  20887509.4614                   20887506.4454
   7952840.29347   6219733.64144  23901058.2584                   23901056.0084
 -18349808.63348 -14269841.11347  20476521.5944                   20476519.0664
 -19780306.77046 -15379519.71543  23828781.3914                   23828778.9734
 -26124483.64148 -20323312.53146  21045482.5554                   21045477.9734
 11  7 27  3  9  0.0000000  0  7G25G10G12G29G05G04G02
  -6066624.26248  -4699510.31246  22056163.6644                   22056163.6454
 -17278053.16047 -13454716.53145  21919617.0394                   21919614.4224
 -19060712.80548 -14824745.39846  20884711.8524                   20884708.8754
   7835289.33247   6128135.56344  23878688.5474                   23878687.5824
 -18412590.19948 -14318761.78947  20464574.5944                   20464571.6764
 -19732429.34046 -15342212.62543  23837891.7734                   23837890.0004
 -26129479.14548 -20327205.11346  21044531.9224                   21044527.3954
 11  7 27  3  9 30.0000000  0  7G25G10G12G29G05G04G02
  -6148767.64848  -4763518.11746  22040532.1884                   22040532.1334
 -17237837.47747 -13423379.62945  21927269.5394                   21927267.5474
 -19074838.79348 -14835752.67646  20882024.1174                   20882020.8954
   7717710.05947   6036515.45344  23856313.7894                   23856311.9694
 -18474801.28948 -14367237.94147  20452736.1024                   20452733.3404
 -19684583.03946 -15304929.78943  23846996.5864                   23846995.0394
 -26134323.10248 -20330979.62146  21043610.1804                   21043605.3954
 11  7 27  3 10  0.0000000  0  7G25G10G12G29G05G04G02
  -6230380.34848  -4827112.40246  22025001.4384                   22025001.8594
 -17197178.63747 -13391697.41445  21935006.7424                   21935004.2234
 -19088384.02048 -14846307.39546  20879446.5704                   20879443.4144
   7600109.43047   5944878.63744  23833935.3524                   23833932.2774
 -18536435.67648 -14415264.70747  20441007.4064                   20441004.5274
 -19636762.21546 -15267666.81643  23856096.4924                   23856094.9924
 -26139010.53148 -20334632.13746  21042718.2344                   21042713.2114
 11  7 27  3 10 30.0000000  0  7G25G10G12G29G05G04G02
  -6311463.27048  -4890293.87146  22009572.0554                   22009572.2854
 -17156081.51647 -13359673.67645  21942827.6884                   21942824.9654
 -19101353.08248 -14856413.15246  20876978.3444                   20876975.2114
   7482485.65647   5853223.78944  23811552.2424                   23811550.8054
 -18597494.85248 -14462843.27047  20429388.2034                   20429385.7774
 -19588970.14546 -15230426.24243  23865191.0004                   23865189.8404
 -26143544.77048 -20338165.29746  21041855.3674                   21041850.5864
 11  7 27  3 11  0.0000000  0  7G25G10G12G29G05G04G02
  -6392015.64848  -4953061.92246  21994243.2814                   21994243.5394
 -17114549.67647 -13327311.18745  21950730.7424                   21950728.2814
 -19113747.36748 -14866071.03946  20874619.7344                   20874616.3834
   7364839.16047   5761551.28544  23789163.9924                   23789164.1214
 -18657979.66448 -14509974.26647  20417878.4224                   20417876.0314
 -19541208.57446 -15193209.41443  23874280.4774                   23874278.3714
 -26147927.38748 -20341580.31246  21041021.3524                   21041016.6604
 11  7 27  3 11 30.0000000  0  7G25G10G12G29G05G04G02
  -6472034.61748  -5015414.33246  21979015.9064                   21979015.8364
 -17072584.82047 -13294611.28545  21958716.2734                   21958713.4144
 -19125565.94548 -14875280.31646  20872370.9614                   20872367.7384
   7247172.00446   5669862.69944  23766773.1414                   23766772.1564
 -18717887.61348 -14556655.76247  20406478.2424                   20406475.6604
 -19493476.77346 -15156015.76643  23883363.2114                   23883361.6724
 -26152157.96948 -20344876.86346  21040216.0234                   21040211.5274
 11  7 27  3 12  0.0000000  0  7G25G10G12G29G05G04G02
  -6551523.24648  -5077353.50046  21963890.0864                   21963889.9384
 -17030194.55147 -13261579.89545  21966782.7194                   21966780.4614
 -19136814.75848 -14884045.62146  20870230.2734                   20870226.7504
   7129480.63347   5578155.23044  23744377.3204                   23744375.7544
 -18777223.33648 -14602891.37547  20395187.2664                   20395183.8794
 -19445779.84046 -15118849.33643  23892439.0634                   23892437.9064
 -26156242.12148 -20348059.30146  21039439.0944                   21039434.1804
 11  7 27  3 12 30.0000000  0  7G25G10G12G29G05G04G02
  -6630480.28548  -5138878.44946  21948865.4304                   21948864.5234
 -16987381.61347 -13228219.17245  21974930.3984                   21974927.2114
 -19147494.67648 -14892367.62946  20868198.0634                   20868194.5664
   7011765.60247   5486429.31644  23721976.2894                   23721975.3204
 -18835986.77748 -14648681.04347  20384004.6024                   20384001.8674
 -19398118.78546 -15081710.85543  23901509.0784                   23901507.4614
 -26160180.82048 -20351128.40246  21038689.6174                   21038684.4614
 11  7 27  3 13  0.0000000  0  7G25G10G12G29G05G04G02
  -6708909.81248  -5199992.33246  21933940.6414                   21933939.9574
 -16944154.19547 -13194535.45345  21983155.9534                   21983153.5164
 -19157612.21548 -14900251.42646  20866272.4694                   20866269.3794
   6894022.80547   5394681.76644  23699570.9384                   23699569.8404
 -18894182.51248 -14694028.35947  20372930.5004                   20372927.6724
 -19350499.86346 -15044605.20344  23910570.4454                   23910568.1684
 -26163980.21948 -20354088.96946  21037966.5004                   21037961.8524
 11  7 27  3 13 30.0000000  0  7G25G10G12G29G05G04G02
  -6786792.73448  -5260680.29746  21919119.7974                   21919119.4414
 -16900497.54347 -13160517.27745  21991463.1644                   21991461.1644
 -19167151.15248 -14907684.35546  20864457.1724                   20864454.4144
   6776270.87947   5302927.10544  23677164.0234                   23677162.2344
 -18951792.91848 -14738919.55947  20361967.5004                   20361964.7854
 -19302906.02346 -15007519.08243  23919627.0784                   23919625.8014
 -26167623.78548 -20356928.10546  21037273.3524                   21037268.6914
 11  7 27  3 14  0.0000000  0  7G25G10G12G29G05G04G02
  -6864130.59448  -5320943.53546  21904403.2584                   21904402.2344
 -16856417.78947 -13126169.40245  21999851.2894                   21999849.2114
 -19176115.34048 -14914669.42646  20862751.6334                   20862748.3984
   6658507.73047   5211163.68044  23654753.8524                   23654751.3874
 -19008820.72748 -14783356.79347  20351115.3674                   20351112.4734
 -19255340.98446 -14970455.42643  23928678.8914                   23928676.9534
 -26171115.41048 -20359648.84046  21036608.5394                   21036604.0594
 11  7 27  3 14 30.0000000  0  7G25G10G12G29G05G04G02
  -6940926.15248  -5380784.20346  21889789.5634                   21889788.6644
 -16811921.73447 -13091497.14545  22008318.8754                   22008316.3484
 -19184509.52748 -14921210.34446  20861154.2274                   20861151.0664
   6540729.80547   5119388.74244  23632341.1884                   23632338.6884
 -19065269.63748 -14827342.94147  20340373.6334                   20340370.6604
 -19207809.37146 -14933417.82443  23937723.9454                   23937721.9024
 -26174459.99248 -20362254.99646  21035972.5704                   21035967.5434
 11  7 27  3 15  0.0000000  0  7G25G10G12G29G05G04G02
  -7017181.70748  -5440204.09446  21875278.1804                   21875277.1884
 -16767015.46947 -13056505.23445  22016864.2734                   22016861.6024
 -19192339.02748 -14927311.23846  20859664.3754                   20859661.4774
   6422935.23846   5027600.80944  23609926.3594                   23609923.9024
 -19121143.06248 -14870880.66047  20329741.0234                   20329737.9304
 -19160315.85246 -14896409.90243  23946761.6094                   23946759.8094
 -26177661.98848 -20364750.04346  21035362.9694                   21035357.7424
 11  7 27  3 15 30.0000000  0  7G25G10G12G29G05G04G02
  -7092896.12148  -5499202.30946  21860870.1414                   21860869.0984
 -16721702.29347 -13021196.25045  22025487.1884                   22025484.7624
 -19199604.83648 -14932972.90646  20858281.6254                   20858278.3914
   6305124.53946   4935800.35244  23587507.1484                   23587505.6294
 -19176440.93748 -14913969.89147  20319218.3594                   20319215.0784
 -19112860.85946 -14859431.99243  23955792.4694                   23955789.8794
 -26180722.54748 -20367134.89146  21034780.4614                   21034775.5594
 11  7 27  3 16  0.0000000  0  7G25G10G12G29G05G04G02
  -7168064.32448  -5557774.90246  21846566.0554                   21846565.2344
 -16675981.44947 -12985569.60245  22034187.4844                   22034185.1914
 -19206304.53148 -14938193.43746  20857006.5474                   20857003.4574
   6187302.27347   4843990.86744  23565086.3364                   23565083.9064
 -19231159.64148 -14956607.83247  20308805.4614                   20308802.6214
 -19065441.41046 -14822481.79743  23964815.2034                   23964813.1254
 -26183638.65248 -20369407.17246  21034225.5314                   21034220.9414
 11  7 27  3 16 30.0000000  0  7G25G10G12G29G05G04G02
  -7242682.87548  -5615919.19946  21832366.7344                   21832365.9454
 -16629853.64847 -12949625.84445  22042965.3204                   22042962.6214
 -19212437.35548 -14942972.26646  20855839.8054                   20855836.8204
   6069472.00847   4752175.20744  23542663.6954                   23542661.8404
 -19285296.43748 -14998792.32847  20298503.7814                   20298500.7934
 -19018056.30946 -14785558.36343  23973832.5474                   23973830.2544
 -26186409.06648 -20371565.92646  21033698.5554                   21033693.5434
 11  7 27  3 17  0.0000000  0  7G25G10G12G29G05G04G02
  -7316751.80148  -5673635.21546  21818271.5234                   21818270.7734
 -16583323.48047 -12913368.55945  22051819.6334                   22051816.9804
 -19218005.52748 -14947311.10546  20854780.3834                   20854776.7344
   5951633.60247   4660353.15645  23520240.1254                   23520239.0204
 -19338852.66848 -15040524.43447  20288312.1644                   20288309.3954
 -18970706.94946 -14748662.78143  23982842.9304                   23982840.4884
 -26189035.99248 -20373612.87146  21033198.9774                   21033193.7734
 11  7 27  3 17 30.0000000  0  7G25G10G12G29G05G04G02
  -7390276.17648  -5730926.90646  21804280.5864                   21804279.8094
 -16536399.85247 -12876804.68445  22060748.8594                   22060746.5474
 -19223016.53948 -14951215.78146  20853826.3444                   20853823.3954
   5833781.32047   4568520.30544  23497813.5164                   23497811.7344
 -19391834.53548 -15081808.98047  20278230.0634                   20278227.0704
 -18923400.45346 -14711800.58243  23991844.1174                   23991842.9924
 -26191526.60948 -20375553.59446  21032724.2504                   21032719.5044
 11  7 27  3 18  0.0000000  0  7G25G10G12G29G05G04G02
  -7463252.65248  -5787791.65646  21790393.3754                   21790392.9184
 -16489083.34847 -12839934.68045  22069752.7974                   22069750.6214
 -19227469.75448 -14954685.82446  20852979.3984                   20852976.0354
   5715918.23447   4476679.04344  23475384.6564                   23475383.2344
 -19444239.62948 -15122644.10547  20268257.7814                   20268255.0084
 -18876135.37946 -14674970.68743  24000839.0634                   24000837.2734
 -26193879.64148 -20377387.11346  21032276.9844                   21032271.7854
 11  7 27  3 18 30.0000000  0  7G25G10G12G29G05G04G02
  -7535683.39548  -5844231.16446  21776610.5084                   21776609.6174
 -16441380.24247 -12802763.41845  22078830.5004                   22078827.7974
 -19231369.84048 -14957724.84846  20852236.9064                   20852233.5204
   5598042.41447   4384827.83644  23452953.4304                   23452951.3524
 -19496071.46148 -15163032.52747  20258394.4924                   20258391.8134
 -18828915.78146 -14638176.17643  24009824.4844                   24009823.0704
 -26196099.14148 -20379116.58246  21031854.6564                   21031849.7344
 11  7 27  3 19  0.0000000  0  7G25G10G12G29G05G04G02
  -7607560.23448  -5900239.07046  21762932.3364                   21762931.9144
 -16393286.53547 -12765287.80945  22087982.2034                   22087980.0594
 -19234711.02048 -14960328.37546  20851600.9614                   20851597.7584
   5480162.27747   4292973.28544  23430521.2034                   23430519.9454
 -19547322.91448 -15202968.69547  20248641.7664                   20248638.9304
 -18781735.14546 -14601412.07043  24018803.0784                   24018801.0474
 -26198178.91048 -20380737.17646  21031458.6954                   21031454.2114
 11  7 27  3 19 30.0000000  0  7G25G10G12G29G05G04G02
  -7678883.10948  -5955815.32846  21749360.5944                   21749359.8984
 -16344806.60547 -12727511.24245  22097208.1804                   22097205.0274
 -19237495.43448 -14962498.05946  20851071.2504                   20851067.8634
   5362277.39147   4201115.05144  23408088.3834                   23408086.6484
 -19597995.09848 -15242453.49647  20238999.0004                   20238996.0204
 -18734595.24646 -14564679.66043  24027773.4304                   24027771.3444
 -26200121.11748 -20382250.57046  21031089.6094                   21031084.3794
 11  7 27  3 20  0.0000000  0  7G25G10G12G29G05G04G02
  -7749650.55148  -6010958.76646  21735893.8054                   21735893.2154
 -16295942.85247 -12689435.58645  22106506.4534                   22106503.7664
 -19239724.54748 -14964235.03546  20850646.6094                   20850643.6214
   5244389.21947   4109254.21144  23385655.4844                   23385653.2034
 -19648087.83248 -15281486.77347  20229466.8204                   20229464.0704
 -18687496.28946 -14527979.18043  24036735.4384                   24036734.3954
 -26201926.02348 -20383656.98446  21030745.3134                   21030740.9264
 11  7 27  3 20 30.0000000  0  7G25G10G12G29G05G04G02
  -7819869.70748  -6065674.98046  21722531.6414                   21722530.8444
 -16246706.16447 -12651069.34045  22115875.6024                   22115873.1454
 -19241408.12148 -14965546.91846  20850326.7734                   20850323.7504
   5126490.44947   4017385.11744  23363219.3674                   23363217.7344
 -19697609.28148 -15320074.88747  20220043.0634                   20220040.4964
 -18640447.05246 -14491317.44443  24045689.2734                   24045687.2664
 -26203602.62548 -20384963.41846  21030426.4534                   21030421.6134
 11  7 27  3 21  0.0000000  0  7G25G10G12G29G05G04G02
  -7889527.78548  -6119953.99246  21709275.7894                   21709275.1454
 -16197087.93047 -12612405.77745  22125318.0554                   22125315.3874
 -19242535.19948 -14966425.17246  20850112.2974                   20850109.0204
   5008594.30947   3925518.08244  23340784.5784                   23340782.8364
 -19746547.77748 -15358208.76247  20210730.2424                   20210727.4694
 -18593436.32846 -14454685.72343  24054634.9924                   24054633.1994
 -26205140.05148 -20386161.41046  21030134.1564                   21030129.2704
 11  7 27  3 21 30.0000000  0  7G25G10G12G29G05G04G02
  -7958627.05148  -6173797.57046  21696126.9844                   21696126.4224
 -16147094.64547 -12573449.96945  22134831.3524                   22134828.4734
 -19243111.12548 -14966873.94146  20850002.9224                   20849999.7584
   4890698.36747   3833651.20744  23318350.2894                   23318348.4454
 -19794906.48848 -15395890.84447  20201527.9614                   20201524.9964
 -18546468.03946 -14418087.05543  24063572.6954                   24063570.9574
 -26206542.49648 -20387254.22746  21029867.6334                   21029862.3014
 11  7 27  3 22  0.0000000  0  7G25G10G12G29G05G04G02
  -8027163.76248  -6227202.78546  21683084.6414                   21683083.9574
 -16096726.40247 -12534201.99245  22144415.8134                   22144413.3134
 -19243134.81248 -14966892.39846  20849998.2584                   20849994.8674
   4772806.36746   3741787.37144  23295915.8364                   23295913.3714
 -19842683.25448 -15433119.46547  20192436.3834                   20192433.5704
 -18499540.21146 -14381519.96143  24072502.3984                   24072501.4064
 -26207808.12548 -20388240.42646  21029626.4614                   21029621.4694
 11  7 27  3 22 30.0000000  0  7G25G10G12G29G05G04G02
  -8095141.13348  -6280172.16046  21670149.0864                   21670148.5704
 -16045990.46147 -12494667.48444  22154070.6884                   22154068.0664
 -19242611.40648 -14966484.54746  20850097.5944                   20850094.1994
   4654915.37547   3649924.32844  23273481.4454                   23273480.2734
 -19889882.05548 -15469897.72747  20183454.6414                   20183451.8204
 -18452657.31246 -14344987.82043  24081425.0864                   24081422.9104
 -26208941.71547 -20389123.74246  21029410.6174                   21029405.4964
 11  7 27  3 23  0.0000000  0  7G25G10G12G29G05G04G02
  -8162557.66448  -6332704.51646  21657320.1954                   21657319.7704
 -15994889.13747 -12454848.27745  22163794.9224                   22163792.6414
 -19241542.35248 -14965651.52046  20850301.3984                   20850298.1094
   4537027.10547   3558063.41444  23251048.8524                   23251046.9344
 -19936502.88748 -15506225.62947  20174583.1254                   20174580.0314
 -18405819.64846 -14308490.93743  24090338.0234                   24090336.1454
 -26209943.62148 -20389904.44146  21029220.0084                   21029214.8444
 11  7 27  3 23 30.0000000  0  7G25G10G12G29G05G04G02
  -8229410.92248  -6384797.94946  21644598.1954                   21644597.9384
 -15943423.81247 -12414745.42245  22173588.7194                   22173585.8324
 -19239927.16448 -14964392.93746  20850608.3524                   20850605.2664
   4419144.22347   3466206.68844  23228615.2664                   23228614.1054
 -19982544.51248 -15542102.19547  20165821.6414                   20165818.7034
 -18359026.23046 -14272028.54343  24099241.7424                   24099240.2344
 -26210813.30547 -20390582.11346  21029054.3674                   21029049.2274
 11  7 27  3 24  0.0000000  0  7G25G10G12G29G05G04G02
  -8295698.50848  -6436450.60546  21631984.1094                   21631983.8594
 -15891596.39147 -12374360.41045  22183451.2504                   22183448.0634
 -19237766.55148 -14962709.34446  20851019.8054                   20851016.5084
   4301269.22347   3374356.03544  23206185.0084                   23206183.0164
 -20028005.28948 -15577526.15247  20157170.8284                   20157167.6414
 -18312276.16046 -14235599.93443  24108138.1644                   24108136.1844
 -26211549.84048 -20391156.02746  21028913.9384                   21028909.6054
 11  7 27  3 24 30.0000000  0  7G25G10G12G29G05G04G02
  -8361422.89848  -6487664.40246  21619477.1564                   21619476.5904
 -15839413.22747 -12333698.19945  22193380.6804                   22193378.0474
 -19235065.19148 -14960604.39146  20851533.7344                   20851530.9304
   4183399.86347   3282509.78944  23183755.3054                   23183753.6334
 -20072888.93748 -15612500.39847  20148629.7584                   20148626.5664
 -18265573.12146 -14199207.96543  24117025.7194                   24117023.7384
 -26212157.55948 -20391629.56646  21028798.4844                   21028793.6724
 11  7 27  3 25  0.0000000  0  7G25G10G12G29G05G04G02
  -8426580.99648  -6538436.92646  21607078.1884                   21607077.8834
 -15786874.64547 -12292759.05145  22203378.9614                   22203376.1254
 -19231822.57848 -14958077.68446  20852150.6884                   20852147.7034
   4065539.78147   3190670.79744  23161327.3284                   23161324.9184
 -20117193.76248 -15647023.62147  20140198.5864                   20140195.9534
 -18218915.63746 -14162851.52043  24125904.1564                   24125902.0234
 -26212634.94948 -20392001.55546  21028707.6174                   21028702.8524
 11  7 27  3 25 30.0000000  0  7G25G10G12G29G05G04G02
  -6915747.69148  -5361164.20746  21894580.1024                   21894580.0944
 -14158563.50447 -11023945.17245  22513236.2114                   22513233.4414
 -17652618.49248 -13727529.04346  21152663.4144                   21152660.3324
   5523116.16047   4326444.61744  23438694.9694                   23438692.6764
 -18585496.64548 -14453493.38347  20431670.7274                   20431667.5944
 -16596883.64846 -12898930.50443  24434566.3054                   24434565.1564
 -24637560.75048 -19164671.02046  21328434.3284                   21328429.7424
 11  7 27  3 26  0.0000000  0  7G25G10G12G29G05G04G02
  -6979765.31648  -5411048.05546  21882398.0944                   21882397.9964
 -14105318.23447 -10982455.35544  22523368.4844                   22523365.6764
 -17648293.05148 -13724158.57446  21153486.5554                   21153483.3914
   5405283.21546   4234626.76244  23416271.9304                   23416269.5044
 -18628639.23848 -14487110.96947  20423461.0394                   20423457.9924
 -16550313.36746 -12862641.98443  24443428.7664                   24443427.0824
 -24637774.14548 -19164837.28546  21328393.5944                   21328388.9344
 11  7 27  3 26 30.0000000  0  7G25G10G12G29G05G04G02
  -7043216.48448  -5460490.50046  21870323.3444                   21870323.4064
 -14051729.03147 -10940697.54345  22533566.1804                   22533563.4264
 -17643433.30548 -13720371.75446  21154411.4064                   21154407.8874
   5287460.59847   4142816.99644  23393851.0314                   23393848.7704
 -18671206.48048 -14520280.22747  20415360.7424                   20415357.9654
 -16503792.34846 -12826391.87543  24452280.4694                   24452279.5904
 -24637861.96948 -19164905.71146  21328377.2034                   21328371.8634
 11  7 27  3 27  0.0000000  0  7G25G10G12G29G05G04G02
  -7106096.62548  -5509488.00046  21858357.7584                   21858357.5944
 -13997795.29347 -10898671.24245  22543829.3284                   22543827.0824
 -17638037.80948 -13716167.48046  21155438.3984                   21155434.9574
   5169653.57047   4051019.32844  23371433.0004                   23371430.5124
 -18713194.66048 -14552998.26647  20407370.6334                   20407367.7234
 -16457317.22746 -12790177.49643  24461125.1884                   24461123.8014
 -24637821.05148 -19164873.80546  21328384.7034                   21328379.9614
 11  7 27  3 27 30.0000000  0  7G25G10G12G29G05G04G02
  -7168408.30148  -5558042.54746  21846500.6334                   21846499.8674
 -13943523.25447 -10856381.36345  22554156.9384                   22554154.2034
 -17632111.38748 -13711549.49246  21156565.7424                   21156562.7074
   5051859.94547   3959232.10544  23349017.7424                   23349014.7274
 -18754607.45348 -14585267.95347  20399490.1094                   20399487.2154
 -16410892.14146 -12754002.10543  24469959.4384                   24469957.8444
 -24637655.24248 -19164744.59846  21328416.4454                   21328411.7424
 11  7 27  3 28  0.0000000  0  8G25G10G12G26G29G05G04G02
  -7230145.19148  -5606149.19146  21834752.1724                   21834751.8054
 -13888910.25447 -10813825.76645  22564549.7584                   22564547.1024
 -17625649.84048 -13706514.51646  21157795.5314                   21157792.6994
  15590617.90256  12175700.77553  24888291.8134                   24888290.7504
   4934086.65247   3867460.74644  23326606.0394                   23326603.8634
 -18795439.82848 -14617085.37547  20391719.5164                   20391716.9344
 -16364511.68446 -12717861.49643  24478785.6334                   24478783.7504
 -24637359.93448 -19164514.48846  21328472.8834                   21328467.5744
 11  7 27  3 28 30.0000000  0  8G25G10G12G26G29G05G04G02
  -7291311.99248  -5653811.60946  21823112.5314                   21823112.2704
 -13833964.74647 -10771011.08645  22575005.4534                   22575002.5664
 -17618660.91048 -13701068.60246  21159125.4774                   21159122.6884
  15460654.17646  12074430.37143  24863559.8524                   24863559.1414
   4816329.27047   3775701.77744  23304197.3054                   23304195.2504
 -18835697.74648 -14648455.16847  20384059.0634                   20384055.9734
 -16318181.82046 -12681760.32443  24487601.6564                   24487600.1094
 -24636941.22348 -19164188.21946  21328552.2974                   21328547.3754
 11  7 27  3 29  0.0000000  0  8G25G10G12G26G29G05G04G02
  -7351907.34048  -5701028.73846  21811581.5634                   21811581.2814
 -13778689.15247 -10727939.18745  22585524.1644                   22585521.1134
 -17611145.28548 -13695212.28146  21160555.6564                   21160552.7974
  15330576.48446  11973071.16043  24838808.1484                   24838806.9104
   4698589.76247   3683956.75844  23281792.4144                   23281790.1454
 -18875380.84848 -14679377.05147  20376507.8134                   20376504.8094
 -16271902.36746 -12645698.41043  24496408.7424                   24496406.6414
 -24636399.00848 -19163765.71146  21328655.6804                   21328650.5514
 11  7 27  3 29 30.0000000  0  8G25G10G12G26G29G05G04G02
  -7411932.27048  -5747801.38346  21800159.3524                   21800158.3674
 -13723088.07447 -10684613.67244  22596104.3754                   22596101.3324
 -17603106.99648 -13688948.68046  21162085.0864                   21162082.2734
  15200386.11346  11871624.19943  24814032.9534                   24814032.3674
   4580868.23047   3592225.74245  23259390.9774                   23259389.1604
 -18914491.46948 -14709852.83247  20369065.2504                   20369062.1644
 -16225675.38346 -12609677.40243  24505205.4224                   24505203.9574
 -24635735.63348 -19163248.78946  21328781.3914                   21328777.0044
 11  7 27  3 30  0.0000000  0  8G25G10G12G26G29G05G04G02
  -7471384.80148  -5794128.00846  21788846.0784                   21788844.9734
 -13667163.28947 -10641035.90644  22606747.0084                   22606744.0664
 -17594545.94948 -13682277.74246  21163714.0004                   21163710.9614
  15070087.19146  11770092.59443  24789237.9924                   24789236.7934
   4463166.92647   3500510.52045  23236993.3204                   23236991.1254
 -18953028.55548 -14739881.70747  20361731.7664                   20361728.6334
 -16179500.07046 -12573696.60543  24513992.0944                   24513990.0554
 -24634950.53148 -19162637.00446  21328930.8134                   21328925.9924
